<?xml version="1.0" encoding="UTF-8" standalone="no" ?>
<gpx xmlns="http://www.topografix.com/GPX/1/1" xmlns:xsi="http://www.w3.org/2001/XMLSchema-instance" xsi:schemaLocation="http://www.topografix.com/GPX/1/1 http://www.topografix.com/GPX/1/1/gpx.xsd" version="1.1" creator="VisuGPX - https://www.visugpx.com">
  <metadata>
    <name>Champagne 16/10/20</name>
    <desc><![CDATA[Au départ de la passerelle de Saint-Mammès, boucle entre Champagne sur Seine et la Forêt.
]]></desc>
  </metadata>
  <trk>
    <name><![CDATA[Champagne 16/10/20]]></name>
    <trkseg>
      <trkpt lat="48.38695" lon="2.80346">
        <ele>48.599998474121</ele>
        <time>2020-01-16T12:43:21Z</time>
      </trkpt>
      <trkpt lat="48.38698" lon="2.8035">
        <ele>48.799999237061</ele>
        <time>2020-01-16T12:43:26Z</time>
      </trkpt>
      <trkpt lat="48.38702" lon="2.80354">
        <ele>48.799999237061</ele>
        <time>2020-01-16T12:43:31Z</time>
      </trkpt>
      <trkpt lat="48.38705" lon="2.80359">
        <ele>48.799999237061</ele>
        <time>2020-01-16T12:43:36Z</time>
      </trkpt>
      <trkpt lat="48.38709" lon="2.80364">
        <ele>49</ele>
        <time>2020-01-16T12:43:41Z</time>
      </trkpt>
      <trkpt lat="48.38712" lon="2.80369">
        <ele>48.799999237061</ele>
        <time>2020-01-16T12:43:46Z</time>
      </trkpt>
      <trkpt lat="48.38716" lon="2.80375">
        <ele>48.799999237061</ele>
        <time>2020-01-16T12:43:51Z</time>
      </trkpt>
      <trkpt lat="48.38719" lon="2.80382">
        <ele>49</ele>
        <time>2020-01-16T12:43:56Z</time>
      </trkpt>
      <trkpt lat="48.38721" lon="2.80387">
        <ele>49</ele>
        <time>2020-01-16T12:44:01Z</time>
      </trkpt>
      <trkpt lat="48.38726" lon="2.80391">
        <ele>48.799999237061</ele>
        <time>2020-01-16T12:44:06Z</time>
      </trkpt>
      <trkpt lat="48.38729" lon="2.80395">
        <ele>49.200000762939</ele>
        <time>2020-01-16T12:44:11Z</time>
      </trkpt>
      <trkpt lat="48.38732" lon="2.80401">
        <ele>49</ele>
        <time>2020-01-16T12:44:16Z</time>
      </trkpt>
      <trkpt lat="48.38734" lon="2.80407">
        <ele>49</ele>
        <time>2020-01-16T12:44:21Z</time>
      </trkpt>
      <trkpt lat="48.38735" lon="2.80414">
        <ele>49</ele>
        <time>2020-01-16T12:44:26Z</time>
      </trkpt>
      <trkpt lat="48.38737" lon="2.8042">
        <ele>49.200000762939</ele>
        <time>2020-01-16T12:44:31Z</time>
      </trkpt>
      <trkpt lat="48.38744" lon="2.80425">
        <ele>49.400001525879</ele>
        <time>2020-01-16T12:44:36Z</time>
      </trkpt>
      <trkpt lat="48.38746" lon="2.80432">
        <ele>49.200000762939</ele>
        <time>2020-01-16T12:44:41Z</time>
      </trkpt>
      <trkpt lat="48.38749" lon="2.80441">
        <ele>49.200000762939</ele>
        <time>2020-01-16T12:44:46Z</time>
      </trkpt>
      <trkpt lat="48.38752" lon="2.80447">
        <ele>49.400001525879</ele>
        <time>2020-01-16T12:44:51Z</time>
      </trkpt>
      <trkpt lat="48.38756" lon="2.80455">
        <ele>49.799999237061</ele>
        <time>2020-01-16T12:44:56Z</time>
      </trkpt>
      <trkpt lat="48.3876" lon="2.80462">
        <ele>50</ele>
        <time>2020-01-16T12:45:01Z</time>
      </trkpt>
      <trkpt lat="48.38764" lon="2.8047">
        <ele>50</ele>
        <time>2020-01-16T12:45:06Z</time>
      </trkpt>
      <trkpt lat="48.38768" lon="2.80475">
        <ele>49.799999237061</ele>
        <time>2020-01-16T12:45:11Z</time>
      </trkpt>
      <trkpt lat="48.38771" lon="2.80483">
        <ele>49.799999237061</ele>
        <time>2020-01-16T12:45:16Z</time>
      </trkpt>
      <trkpt lat="48.38772" lon="2.80491">
        <ele>49.799999237061</ele>
        <time>2020-01-16T12:45:21Z</time>
      </trkpt>
      <trkpt lat="48.38776" lon="2.80501">
        <ele>49.799999237061</ele>
        <time>2020-01-16T12:45:26Z</time>
      </trkpt>
      <trkpt lat="48.38779" lon="2.80507">
        <ele>49.799999237061</ele>
        <time>2020-01-16T12:45:31Z</time>
      </trkpt>
      <trkpt lat="48.38783" lon="2.80513">
        <ele>49.799999237061</ele>
        <time>2020-01-16T12:45:36Z</time>
      </trkpt>
      <trkpt lat="48.38786" lon="2.80516">
        <ele>49.799999237061</ele>
        <time>2020-01-16T12:45:41Z</time>
      </trkpt>
      <trkpt lat="48.3879" lon="2.80522">
        <ele>49.599998474121</ele>
        <time>2020-01-16T12:45:46Z</time>
      </trkpt>
      <trkpt lat="48.38793" lon="2.80529">
        <ele>49.599998474121</ele>
        <time>2020-01-16T12:45:51Z</time>
      </trkpt>
      <trkpt lat="48.38795" lon="2.80536">
        <ele>50</ele>
        <time>2020-01-16T12:45:56Z</time>
      </trkpt>
      <trkpt lat="48.38798" lon="2.80544">
        <ele>49.799999237061</ele>
        <time>2020-01-16T12:46:01Z</time>
      </trkpt>
      <trkpt lat="48.388" lon="2.80552">
        <ele>49.799999237061</ele>
        <time>2020-01-16T12:46:06Z</time>
      </trkpt>
      <trkpt lat="48.38803" lon="2.8056">
        <ele>50</ele>
        <time>2020-01-16T12:46:11Z</time>
      </trkpt>
      <trkpt lat="48.38806" lon="2.80569">
        <ele>50</ele>
        <time>2020-01-16T12:46:16Z</time>
      </trkpt>
      <trkpt lat="48.38809" lon="2.80577">
        <ele>50.200000762939</ele>
        <time>2020-01-16T12:46:21Z</time>
      </trkpt>
      <trkpt lat="48.3881" lon="2.80583">
        <ele>50</ele>
        <time>2020-01-16T12:46:26Z</time>
      </trkpt>
      <trkpt lat="48.38814" lon="2.80589">
        <ele>50.200000762939</ele>
        <time>2020-01-16T12:46:31Z</time>
      </trkpt>
      <trkpt lat="48.38816" lon="2.80596">
        <ele>50.400001525879</ele>
        <time>2020-01-16T12:46:36Z</time>
      </trkpt>
      <trkpt lat="48.38817" lon="2.80604">
        <ele>50.400001525879</ele>
        <time>2020-01-16T12:46:41Z</time>
      </trkpt>
      <trkpt lat="48.38819" lon="2.80612">
        <ele>50.599998474121</ele>
        <time>2020-01-16T12:46:46Z</time>
      </trkpt>
      <trkpt lat="48.38822" lon="2.80619">
        <ele>50.400001525879</ele>
        <time>2020-01-16T12:46:51Z</time>
      </trkpt>
      <trkpt lat="48.38827" lon="2.80625">
        <ele>50.200000762939</ele>
        <time>2020-01-16T12:46:56Z</time>
      </trkpt>
      <trkpt lat="48.38831" lon="2.8063">
        <ele>50.200000762939</ele>
        <time>2020-01-16T12:47:01Z</time>
      </trkpt>
      <trkpt lat="48.38836" lon="2.80637">
        <ele>50.200000762939</ele>
        <time>2020-01-16T12:47:06Z</time>
      </trkpt>
      <trkpt lat="48.3884" lon="2.80642">
        <ele>50.200000762939</ele>
        <time>2020-01-16T12:47:11Z</time>
      </trkpt>
      <trkpt lat="48.38844" lon="2.80649">
        <ele>50.400001525879</ele>
        <time>2020-01-16T12:47:16Z</time>
      </trkpt>
      <trkpt lat="48.38847" lon="2.80653">
        <ele>50.400001525879</ele>
        <time>2020-01-16T12:47:21Z</time>
      </trkpt>
      <trkpt lat="48.3885" lon="2.80659">
        <ele>50.200000762939</ele>
        <time>2020-01-16T12:47:26Z</time>
      </trkpt>
      <trkpt lat="48.38853" lon="2.80665">
        <ele>49.799999237061</ele>
        <time>2020-01-16T12:47:31Z</time>
      </trkpt>
      <trkpt lat="48.38856" lon="2.80668">
        <ele>49.599998474121</ele>
        <time>2020-01-16T12:47:36Z</time>
      </trkpt>
      <trkpt lat="48.38859" lon="2.80674">
        <ele>49.799999237061</ele>
        <time>2020-01-16T12:47:41Z</time>
      </trkpt>
      <trkpt lat="48.38862" lon="2.8068">
        <ele>49.799999237061</ele>
        <time>2020-01-16T12:47:46Z</time>
      </trkpt>
      <trkpt lat="48.38865" lon="2.80687">
        <ele>49.599998474121</ele>
        <time>2020-01-16T12:47:51Z</time>
      </trkpt>
      <trkpt lat="48.38866" lon="2.80693">
        <ele>49.799999237061</ele>
        <time>2020-01-16T12:47:56Z</time>
      </trkpt>
      <trkpt lat="48.38869" lon="2.80702">
        <ele>50.200000762939</ele>
        <time>2020-01-16T12:48:01Z</time>
      </trkpt>
      <trkpt lat="48.38877" lon="2.8071">
        <ele>49.799999237061</ele>
        <time>2020-01-16T12:48:06Z</time>
      </trkpt>
      <trkpt lat="48.38879" lon="2.80712">
        <ele>49.599998474121</ele>
        <time>2020-01-16T12:48:11Z</time>
      </trkpt>
      <trkpt lat="48.3888" lon="2.80712">
        <ele>49.599998474121</ele>
        <time>2020-01-16T12:48:16Z</time>
      </trkpt>
      <trkpt lat="48.38881" lon="2.80715">
        <ele>49.400001525879</ele>
        <time>2020-01-16T12:48:21Z</time>
      </trkpt>
      <trkpt lat="48.38884" lon="2.80722">
        <ele>49.599998474121</ele>
        <time>2020-01-16T12:48:26Z</time>
      </trkpt>
      <trkpt lat="48.38885" lon="2.80728">
        <ele>49.400001525879</ele>
        <time>2020-01-16T12:48:31Z</time>
      </trkpt>
      <trkpt lat="48.38887" lon="2.8073">
        <ele>49.400001525879</ele>
        <time>2020-01-16T12:48:36Z</time>
      </trkpt>
      <trkpt lat="48.38888" lon="2.80735">
        <ele>49.400001525879</ele>
        <time>2020-01-16T12:48:41Z</time>
      </trkpt>
      <trkpt lat="48.3889" lon="2.80741">
        <ele>49.599998474121</ele>
        <time>2020-01-16T12:48:46Z</time>
      </trkpt>
      <trkpt lat="48.38893" lon="2.80742">
        <ele>49.799999237061</ele>
        <time>2020-01-16T12:48:51Z</time>
      </trkpt>
      <trkpt lat="48.38894" lon="2.80741">
        <ele>49.799999237061</ele>
        <time>2020-01-16T12:48:56Z</time>
      </trkpt>
      <trkpt lat="48.38894" lon="2.8074">
        <ele>49.799999237061</ele>
        <time>2020-01-16T12:49:01Z</time>
      </trkpt>
      <trkpt lat="48.38893" lon="2.80741">
        <ele>49.599998474121</ele>
        <time>2020-01-16T12:49:06Z</time>
      </trkpt>
      <trkpt lat="48.38893" lon="2.80741">
        <ele>49.599998474121</ele>
        <time>2020-01-16T12:49:11Z</time>
      </trkpt>
      <trkpt lat="48.38893" lon="2.8074">
        <ele>49.599998474121</ele>
        <time>2020-01-16T12:49:16Z</time>
      </trkpt>
      <trkpt lat="48.38892" lon="2.80736">
        <ele>49.599998474121</ele>
        <time>2020-01-16T12:49:21Z</time>
      </trkpt>
      <trkpt lat="48.38891" lon="2.80735">
        <ele>49.599998474121</ele>
        <time>2020-01-16T12:49:26Z</time>
      </trkpt>
      <trkpt lat="48.38891" lon="2.80735">
        <ele>49.599998474121</ele>
        <time>2020-01-16T12:49:31Z</time>
      </trkpt>
      <trkpt lat="48.38892" lon="2.80738">
        <ele>49.599998474121</ele>
        <time>2020-01-16T12:49:36Z</time>
      </trkpt>
      <trkpt lat="48.38892" lon="2.80745">
        <ele>49.599998474121</ele>
        <time>2020-01-16T12:49:41Z</time>
      </trkpt>
      <trkpt lat="48.38895" lon="2.80751">
        <ele>49.599998474121</ele>
        <time>2020-01-16T12:49:46Z</time>
      </trkpt>
      <trkpt lat="48.38898" lon="2.80756">
        <ele>50</ele>
        <time>2020-01-16T12:49:51Z</time>
      </trkpt>
      <trkpt lat="48.38902" lon="2.8076">
        <ele>50.400001525879</ele>
        <time>2020-01-16T12:49:56Z</time>
      </trkpt>
      <trkpt lat="48.38906" lon="2.80764">
        <ele>50.599998474121</ele>
        <time>2020-01-16T12:50:01Z</time>
      </trkpt>
      <trkpt lat="48.38909" lon="2.80768">
        <ele>50.799999237061</ele>
        <time>2020-01-16T12:50:06Z</time>
      </trkpt>
      <trkpt lat="48.38912" lon="2.8077">
        <ele>50.799999237061</ele>
        <time>2020-01-16T12:50:11Z</time>
      </trkpt>
      <trkpt lat="48.38916" lon="2.80771">
        <ele>51.200000762939</ele>
        <time>2020-01-16T12:50:16Z</time>
      </trkpt>
      <trkpt lat="48.3892" lon="2.80772">
        <ele>51.400001525879</ele>
        <time>2020-01-16T12:50:21Z</time>
      </trkpt>
      <trkpt lat="48.38924" lon="2.80772">
        <ele>51.400001525879</ele>
        <time>2020-01-16T12:50:26Z</time>
      </trkpt>
      <trkpt lat="48.38927" lon="2.80771">
        <ele>52</ele>
        <time>2020-01-16T12:50:31Z</time>
      </trkpt>
      <trkpt lat="48.38931" lon="2.8077">
        <ele>52.400001525879</ele>
        <time>2020-01-16T12:50:36Z</time>
      </trkpt>
      <trkpt lat="48.38936" lon="2.80768">
        <ele>52.400001525879</ele>
        <time>2020-01-16T12:50:41Z</time>
      </trkpt>
      <trkpt lat="48.38939" lon="2.80765">
        <ele>52.799999237061</ele>
        <time>2020-01-16T12:50:46Z</time>
      </trkpt>
      <trkpt lat="48.38944" lon="2.80763">
        <ele>53</ele>
        <time>2020-01-16T12:50:51Z</time>
      </trkpt>
      <trkpt lat="48.38947" lon="2.8076">
        <ele>53.200000762939</ele>
        <time>2020-01-16T12:50:56Z</time>
      </trkpt>
      <trkpt lat="48.38951" lon="2.80757">
        <ele>53.400001525879</ele>
        <time>2020-01-16T12:51:01Z</time>
      </trkpt>
      <trkpt lat="48.38955" lon="2.80752">
        <ele>53.799999237061</ele>
        <time>2020-01-16T12:51:06Z</time>
      </trkpt>
      <trkpt lat="48.3896" lon="2.80749">
        <ele>54.200000762939</ele>
        <time>2020-01-16T12:51:11Z</time>
      </trkpt>
      <trkpt lat="48.38964" lon="2.80745">
        <ele>54.200000762939</ele>
        <time>2020-01-16T12:51:16Z</time>
      </trkpt>
      <trkpt lat="48.38968" lon="2.80742">
        <ele>54.599998474121</ele>
        <time>2020-01-16T12:51:21Z</time>
      </trkpt>
      <trkpt lat="48.38973" lon="2.80738">
        <ele>54.799999237061</ele>
        <time>2020-01-16T12:51:26Z</time>
      </trkpt>
      <trkpt lat="48.38977" lon="2.80734">
        <ele>55</ele>
        <time>2020-01-16T12:51:31Z</time>
      </trkpt>
      <trkpt lat="48.38981" lon="2.80731">
        <ele>55.200000762939</ele>
        <time>2020-01-16T12:51:36Z</time>
      </trkpt>
      <trkpt lat="48.38985" lon="2.80729">
        <ele>55.599998474121</ele>
        <time>2020-01-16T12:51:41Z</time>
      </trkpt>
      <trkpt lat="48.38988" lon="2.80724">
        <ele>55.799999237061</ele>
        <time>2020-01-16T12:51:46Z</time>
      </trkpt>
      <trkpt lat="48.38992" lon="2.80721">
        <ele>55.799999237061</ele>
        <time>2020-01-16T12:51:51Z</time>
      </trkpt>
      <trkpt lat="48.38996" lon="2.80716">
        <ele>55.799999237061</ele>
        <time>2020-01-16T12:51:56Z</time>
      </trkpt>
      <trkpt lat="48.39" lon="2.80711">
        <ele>56</ele>
        <time>2020-01-16T12:52:01Z</time>
      </trkpt>
      <trkpt lat="48.39004" lon="2.80707">
        <ele>56</ele>
        <time>2020-01-16T12:52:06Z</time>
      </trkpt>
      <trkpt lat="48.39007" lon="2.80702">
        <ele>55.799999237061</ele>
        <time>2020-01-16T12:52:11Z</time>
      </trkpt>
      <trkpt lat="48.39012" lon="2.80699">
        <ele>55.599998474121</ele>
        <time>2020-01-16T12:52:16Z</time>
      </trkpt>
      <trkpt lat="48.39016" lon="2.80694">
        <ele>55.400001525879</ele>
        <time>2020-01-16T12:52:21Z</time>
      </trkpt>
      <trkpt lat="48.39021" lon="2.80691">
        <ele>55.799999237061</ele>
        <time>2020-01-16T12:52:26Z</time>
      </trkpt>
      <trkpt lat="48.39025" lon="2.80687">
        <ele>56</ele>
        <time>2020-01-16T12:52:31Z</time>
      </trkpt>
      <trkpt lat="48.3903" lon="2.80683">
        <ele>55.400001525879</ele>
        <time>2020-01-16T12:52:36Z</time>
      </trkpt>
      <trkpt lat="48.39035" lon="2.8068">
        <ele>55.200000762939</ele>
        <time>2020-01-16T12:52:41Z</time>
      </trkpt>
      <trkpt lat="48.39039" lon="2.80673">
        <ele>55</ele>
        <time>2020-01-16T12:52:46Z</time>
      </trkpt>
      <trkpt lat="48.39042" lon="2.80668">
        <ele>55</ele>
        <time>2020-01-16T12:52:51Z</time>
      </trkpt>
      <trkpt lat="48.39045" lon="2.80662">
        <ele>54.799999237061</ele>
        <time>2020-01-16T12:52:56Z</time>
      </trkpt>
      <trkpt lat="48.39048" lon="2.80655">
        <ele>55</ele>
        <time>2020-01-16T12:53:01Z</time>
      </trkpt>
      <trkpt lat="48.39049" lon="2.80643">
        <ele>55</ele>
        <time>2020-01-16T12:53:06Z</time>
      </trkpt>
      <trkpt lat="48.39049" lon="2.80633">
        <ele>55.200000762939</ele>
        <time>2020-01-16T12:53:11Z</time>
      </trkpt>
      <trkpt lat="48.39047" lon="2.80623">
        <ele>55.400001525879</ele>
        <time>2020-01-16T12:53:16Z</time>
      </trkpt>
      <trkpt lat="48.39046" lon="2.80614">
        <ele>55.400001525879</ele>
        <time>2020-01-16T12:53:21Z</time>
      </trkpt>
      <trkpt lat="48.39044" lon="2.80604">
        <ele>55.400001525879</ele>
        <time>2020-01-16T12:53:26Z</time>
      </trkpt>
      <trkpt lat="48.39041" lon="2.80596">
        <ele>55.599998474121</ele>
        <time>2020-01-16T12:53:31Z</time>
      </trkpt>
      <trkpt lat="48.39038" lon="2.80586">
        <ele>56.200000762939</ele>
        <time>2020-01-16T12:53:36Z</time>
      </trkpt>
      <trkpt lat="48.39037" lon="2.80577">
        <ele>56.599998474121</ele>
        <time>2020-01-16T12:53:41Z</time>
      </trkpt>
      <trkpt lat="48.39034" lon="2.80568">
        <ele>57.200000762939</ele>
        <time>2020-01-16T12:53:46Z</time>
      </trkpt>
      <trkpt lat="48.39032" lon="2.80559">
        <ele>57.599998474121</ele>
        <time>2020-01-16T12:53:51Z</time>
      </trkpt>
      <trkpt lat="48.3903" lon="2.8055">
        <ele>58</ele>
        <time>2020-01-16T12:53:56Z</time>
      </trkpt>
      <trkpt lat="48.39029" lon="2.80543">
        <ele>58.200000762939</ele>
        <time>2020-01-16T12:54:01Z</time>
      </trkpt>
      <trkpt lat="48.39028" lon="2.80535">
        <ele>58.799999237061</ele>
        <time>2020-01-16T12:54:06Z</time>
      </trkpt>
      <trkpt lat="48.39025" lon="2.80527">
        <ele>59.200000762939</ele>
        <time>2020-01-16T12:54:11Z</time>
      </trkpt>
      <trkpt lat="48.39023" lon="2.80519">
        <ele>59.400001525879</ele>
        <time>2020-01-16T12:54:16Z</time>
      </trkpt>
      <trkpt lat="48.39021" lon="2.8051">
        <ele>59.799999237061</ele>
        <time>2020-01-16T12:54:21Z</time>
      </trkpt>
      <trkpt lat="48.39021" lon="2.80501">
        <ele>60</ele>
        <time>2020-01-16T12:54:26Z</time>
      </trkpt>
      <trkpt lat="48.3902" lon="2.80493">
        <ele>60.200000762939</ele>
        <time>2020-01-16T12:54:31Z</time>
      </trkpt>
      <trkpt lat="48.39019" lon="2.80483">
        <ele>60.400001525879</ele>
        <time>2020-01-16T12:54:36Z</time>
      </trkpt>
      <trkpt lat="48.39017" lon="2.80475">
        <ele>60.599998474121</ele>
        <time>2020-01-16T12:54:41Z</time>
      </trkpt>
      <trkpt lat="48.39014" lon="2.80467">
        <ele>61</ele>
        <time>2020-01-16T12:54:46Z</time>
      </trkpt>
      <trkpt lat="48.39012" lon="2.80458">
        <ele>61.599998474121</ele>
        <time>2020-01-16T12:54:51Z</time>
      </trkpt>
      <trkpt lat="48.3901" lon="2.80449">
        <ele>61.799999237061</ele>
        <time>2020-01-16T12:54:56Z</time>
      </trkpt>
      <trkpt lat="48.39008" lon="2.80441">
        <ele>62.200000762939</ele>
        <time>2020-01-16T12:55:01Z</time>
      </trkpt>
      <trkpt lat="48.39006" lon="2.80432">
        <ele>62.400001525879</ele>
        <time>2020-01-16T12:55:06Z</time>
      </trkpt>
      <trkpt lat="48.39005" lon="2.80424">
        <ele>63.200000762939</ele>
        <time>2020-01-16T12:55:11Z</time>
      </trkpt>
      <trkpt lat="48.39005" lon="2.80416">
        <ele>63.400001525879</ele>
        <time>2020-01-16T12:55:16Z</time>
      </trkpt>
      <trkpt lat="48.39004" lon="2.80408">
        <ele>63.799999237061</ele>
        <time>2020-01-16T12:55:21Z</time>
      </trkpt>
      <trkpt lat="48.39001" lon="2.80401">
        <ele>64.599998474121</ele>
        <time>2020-01-16T12:55:26Z</time>
      </trkpt>
      <trkpt lat="48.38999" lon="2.80394">
        <ele>64.599998474121</ele>
        <time>2020-01-16T12:55:31Z</time>
      </trkpt>
      <trkpt lat="48.38998" lon="2.80388">
        <ele>64.800003051758</ele>
        <time>2020-01-16T12:55:36Z</time>
      </trkpt>
      <trkpt lat="48.38996" lon="2.8038">
        <ele>65</ele>
        <time>2020-01-16T12:55:41Z</time>
      </trkpt>
      <trkpt lat="48.38995" lon="2.80373">
        <ele>65.400001525879</ele>
        <time>2020-01-16T12:55:46Z</time>
      </trkpt>
      <trkpt lat="48.38995" lon="2.80365">
        <ele>65.800003051758</ele>
        <time>2020-01-16T12:55:51Z</time>
      </trkpt>
      <trkpt lat="48.38994" lon="2.80358">
        <ele>66</ele>
        <time>2020-01-16T12:55:56Z</time>
      </trkpt>
      <trkpt lat="48.38995" lon="2.80352">
        <ele>66.400001525879</ele>
        <time>2020-01-16T12:56:01Z</time>
      </trkpt>
      <trkpt lat="48.38995" lon="2.80344">
        <ele>66.800003051758</ele>
        <time>2020-01-16T12:56:06Z</time>
      </trkpt>
      <trkpt lat="48.38995" lon="2.80336">
        <ele>66.800003051758</ele>
        <time>2020-01-16T12:56:11Z</time>
      </trkpt>
      <trkpt lat="48.38997" lon="2.8033">
        <ele>67.199996948242</ele>
        <time>2020-01-16T12:56:16Z</time>
      </trkpt>
      <trkpt lat="48.39" lon="2.80325">
        <ele>67.800003051758</ele>
        <time>2020-01-16T12:56:21Z</time>
      </trkpt>
      <trkpt lat="48.39004" lon="2.80319">
        <ele>68.199996948242</ele>
        <time>2020-01-16T12:56:26Z</time>
      </trkpt>
      <trkpt lat="48.39008" lon="2.80314">
        <ele>68.400001525879</ele>
        <time>2020-01-16T12:56:31Z</time>
      </trkpt>
      <trkpt lat="48.39013" lon="2.80307">
        <ele>68.599998474121</ele>
        <time>2020-01-16T12:56:36Z</time>
      </trkpt>
      <trkpt lat="48.39017" lon="2.80304">
        <ele>68.800003051758</ele>
        <time>2020-01-16T12:56:41Z</time>
      </trkpt>
      <trkpt lat="48.39022" lon="2.80298">
        <ele>68.800003051758</ele>
        <time>2020-01-16T12:56:46Z</time>
      </trkpt>
      <trkpt lat="48.39026" lon="2.80296">
        <ele>69</ele>
        <time>2020-01-16T12:56:51Z</time>
      </trkpt>
      <trkpt lat="48.39029" lon="2.80298">
        <ele>69</ele>
        <time>2020-01-16T12:56:56Z</time>
      </trkpt>
      <trkpt lat="48.3903" lon="2.80299">
        <ele>69</ele>
        <time>2020-01-16T12:57:01Z</time>
      </trkpt>
      <trkpt lat="48.3903" lon="2.803">
        <ele>69</ele>
        <time>2020-01-16T12:57:06Z</time>
      </trkpt>
      <trkpt lat="48.39031" lon="2.80302">
        <ele>69</ele>
        <time>2020-01-16T12:57:11Z</time>
      </trkpt>
      <trkpt lat="48.39031" lon="2.80305">
        <ele>69.199996948242</ele>
        <time>2020-01-16T12:57:16Z</time>
      </trkpt>
      <trkpt lat="48.39032" lon="2.80305">
        <ele>69.800003051758</ele>
        <time>2020-01-16T12:57:21Z</time>
      </trkpt>
      <trkpt lat="48.39034" lon="2.80306">
        <ele>69.599998474121</ele>
        <time>2020-01-16T12:57:26Z</time>
      </trkpt>
      <trkpt lat="48.39037" lon="2.80306">
        <ele>69.599998474121</ele>
        <time>2020-01-16T12:57:31Z</time>
      </trkpt>
      <trkpt lat="48.39039" lon="2.80306">
        <ele>69.800003051758</ele>
        <time>2020-01-16T12:57:36Z</time>
      </trkpt>
      <trkpt lat="48.39042" lon="2.80308">
        <ele>69</ele>
        <time>2020-01-16T12:57:41Z</time>
      </trkpt>
      <trkpt lat="48.39045" lon="2.80312">
        <ele>69.199996948242</ele>
        <time>2020-01-16T12:57:46Z</time>
      </trkpt>
      <trkpt lat="48.39049" lon="2.80315">
        <ele>70</ele>
        <time>2020-01-16T12:57:51Z</time>
      </trkpt>
      <trkpt lat="48.39051" lon="2.8032">
        <ele>70.400001525879</ele>
        <time>2020-01-16T12:57:56Z</time>
      </trkpt>
      <trkpt lat="48.39053" lon="2.80324">
        <ele>70.800003051758</ele>
        <time>2020-01-16T12:58:01Z</time>
      </trkpt>
      <trkpt lat="48.39056" lon="2.80329">
        <ele>71</ele>
        <time>2020-01-16T12:58:06Z</time>
      </trkpt>
      <trkpt lat="48.39059" lon="2.80333">
        <ele>71.199996948242</ele>
        <time>2020-01-16T12:58:11Z</time>
      </trkpt>
      <trkpt lat="48.39062" lon="2.80338">
        <ele>71</ele>
        <time>2020-01-16T12:58:16Z</time>
      </trkpt>
      <trkpt lat="48.39072" lon="2.80343">
        <ele>71.400001525879</ele>
        <time>2020-01-16T12:58:21Z</time>
      </trkpt>
      <trkpt lat="48.39076" lon="2.80349">
        <ele>71.800003051758</ele>
        <time>2020-01-16T12:58:26Z</time>
      </trkpt>
      <trkpt lat="48.39079" lon="2.80354">
        <ele>72.199996948242</ele>
        <time>2020-01-16T12:58:31Z</time>
      </trkpt>
      <trkpt lat="48.39082" lon="2.80361">
        <ele>72.400001525879</ele>
        <time>2020-01-16T12:58:36Z</time>
      </trkpt>
      <trkpt lat="48.39088" lon="2.80367">
        <ele>72.400001525879</ele>
        <time>2020-01-16T12:58:41Z</time>
      </trkpt>
      <trkpt lat="48.39093" lon="2.8037">
        <ele>72.800003051758</ele>
        <time>2020-01-16T12:58:46Z</time>
      </trkpt>
      <trkpt lat="48.39097" lon="2.80374">
        <ele>73</ele>
        <time>2020-01-16T12:58:51Z</time>
      </trkpt>
      <trkpt lat="48.391" lon="2.80378">
        <ele>73.199996948242</ele>
        <time>2020-01-16T12:58:56Z</time>
      </trkpt>
      <trkpt lat="48.39104" lon="2.80382">
        <ele>73.599998474121</ele>
        <time>2020-01-16T12:59:01Z</time>
      </trkpt>
      <trkpt lat="48.3911" lon="2.80383">
        <ele>73.800003051758</ele>
        <time>2020-01-16T12:59:06Z</time>
      </trkpt>
      <trkpt lat="48.39114" lon="2.80385">
        <ele>73.800003051758</ele>
        <time>2020-01-16T12:59:11Z</time>
      </trkpt>
      <trkpt lat="48.39117" lon="2.80387">
        <ele>74</ele>
        <time>2020-01-16T12:59:16Z</time>
      </trkpt>
      <trkpt lat="48.39121" lon="2.8039">
        <ele>74</ele>
        <time>2020-01-16T12:59:21Z</time>
      </trkpt>
      <trkpt lat="48.39125" lon="2.80392">
        <ele>74.599998474121</ele>
        <time>2020-01-16T12:59:26Z</time>
      </trkpt>
      <trkpt lat="48.3913" lon="2.80392">
        <ele>75</ele>
        <time>2020-01-16T12:59:31Z</time>
      </trkpt>
      <trkpt lat="48.39134" lon="2.80392">
        <ele>75</ele>
        <time>2020-01-16T12:59:36Z</time>
      </trkpt>
      <trkpt lat="48.39138" lon="2.80395">
        <ele>75</ele>
        <time>2020-01-16T12:59:41Z</time>
      </trkpt>
      <trkpt lat="48.39147" lon="2.80399">
        <ele>75.800003051758</ele>
        <time>2020-01-16T12:59:46Z</time>
      </trkpt>
      <trkpt lat="48.39151" lon="2.80403">
        <ele>76</ele>
        <time>2020-01-16T12:59:51Z</time>
      </trkpt>
      <trkpt lat="48.39153" lon="2.80408">
        <ele>75.599998474121</ele>
        <time>2020-01-16T12:59:56Z</time>
      </trkpt>
      <trkpt lat="48.39157" lon="2.80414">
        <ele>75.599998474121</ele>
        <time>2020-01-16T13:00:01Z</time>
      </trkpt>
      <trkpt lat="48.3916" lon="2.80422">
        <ele>76</ele>
        <time>2020-01-16T13:00:06Z</time>
      </trkpt>
      <trkpt lat="48.39162" lon="2.8043">
        <ele>76.599998474121</ele>
        <time>2020-01-16T13:00:11Z</time>
      </trkpt>
      <trkpt lat="48.39163" lon="2.80436">
        <ele>76.800003051758</ele>
        <time>2020-01-16T13:00:16Z</time>
      </trkpt>
      <trkpt lat="48.39165" lon="2.80444">
        <ele>77.199996948242</ele>
        <time>2020-01-16T13:00:21Z</time>
      </trkpt>
      <trkpt lat="48.39168" lon="2.80452">
        <ele>77.400001525879</ele>
        <time>2020-01-16T13:00:26Z</time>
      </trkpt>
      <trkpt lat="48.39171" lon="2.80459">
        <ele>77.400001525879</ele>
        <time>2020-01-16T13:00:31Z</time>
      </trkpt>
      <trkpt lat="48.39173" lon="2.80467">
        <ele>77.400001525879</ele>
        <time>2020-01-16T13:00:36Z</time>
      </trkpt>
      <trkpt lat="48.39177" lon="2.80472">
        <ele>77.599998474121</ele>
        <time>2020-01-16T13:00:41Z</time>
      </trkpt>
      <trkpt lat="48.39183" lon="2.80473">
        <ele>77.800003051758</ele>
        <time>2020-01-16T13:00:46Z</time>
      </trkpt>
      <trkpt lat="48.39186" lon="2.80478">
        <ele>78.199996948242</ele>
        <time>2020-01-16T13:00:51Z</time>
      </trkpt>
      <trkpt lat="48.3919" lon="2.80484">
        <ele>78.599998474121</ele>
        <time>2020-01-16T13:00:56Z</time>
      </trkpt>
      <trkpt lat="48.39194" lon="2.80488">
        <ele>78.599998474121</ele>
        <time>2020-01-16T13:01:01Z</time>
      </trkpt>
      <trkpt lat="48.39198" lon="2.80492">
        <ele>79</ele>
        <time>2020-01-16T13:01:06Z</time>
      </trkpt>
      <trkpt lat="48.39202" lon="2.80496">
        <ele>79.199996948242</ele>
        <time>2020-01-16T13:01:11Z</time>
      </trkpt>
      <trkpt lat="48.39207" lon="2.80497">
        <ele>79.400001525879</ele>
        <time>2020-01-16T13:01:16Z</time>
      </trkpt>
      <trkpt lat="48.3921" lon="2.80497">
        <ele>79.800003051758</ele>
        <time>2020-01-16T13:01:21Z</time>
      </trkpt>
      <trkpt lat="48.39211" lon="2.80497">
        <ele>79.800003051758</ele>
        <time>2020-01-16T13:01:26Z</time>
      </trkpt>
      <trkpt lat="48.39212" lon="2.80499">
        <ele>79.599998474121</ele>
        <time>2020-01-16T13:01:31Z</time>
      </trkpt>
      <trkpt lat="48.39216" lon="2.80501">
        <ele>80</ele>
        <time>2020-01-16T13:01:36Z</time>
      </trkpt>
      <trkpt lat="48.3922" lon="2.80502">
        <ele>80</ele>
        <time>2020-01-16T13:01:41Z</time>
      </trkpt>
      <trkpt lat="48.39224" lon="2.80502">
        <ele>80.400001525879</ele>
        <time>2020-01-16T13:01:46Z</time>
      </trkpt>
      <trkpt lat="48.39231" lon="2.80503">
        <ele>80.400001525879</ele>
        <time>2020-01-16T13:01:51Z</time>
      </trkpt>
      <trkpt lat="48.39239" lon="2.80501">
        <ele>80.400001525879</ele>
        <time>2020-01-16T13:01:56Z</time>
      </trkpt>
      <trkpt lat="48.39246" lon="2.80505">
        <ele>80.400001525879</ele>
        <time>2020-01-16T13:02:01Z</time>
      </trkpt>
      <trkpt lat="48.39251" lon="2.80506">
        <ele>80.800003051758</ele>
        <time>2020-01-16T13:02:06Z</time>
      </trkpt>
      <trkpt lat="48.39256" lon="2.80505">
        <ele>80.800003051758</ele>
        <time>2020-01-16T13:02:11Z</time>
      </trkpt>
      <trkpt lat="48.39261" lon="2.80504">
        <ele>80.800003051758</ele>
        <time>2020-01-16T13:02:16Z</time>
      </trkpt>
      <trkpt lat="48.39267" lon="2.80502">
        <ele>80.800003051758</ele>
        <time>2020-01-16T13:02:21Z</time>
      </trkpt>
      <trkpt lat="48.39274" lon="2.80504">
        <ele>81.199996948242</ele>
        <time>2020-01-16T13:02:26Z</time>
      </trkpt>
      <trkpt lat="48.39281" lon="2.80506">
        <ele>81.199996948242</ele>
        <time>2020-01-16T13:02:31Z</time>
      </trkpt>
      <trkpt lat="48.39287" lon="2.80507">
        <ele>81.199996948242</ele>
        <time>2020-01-16T13:02:36Z</time>
      </trkpt>
      <trkpt lat="48.39293" lon="2.80508">
        <ele>81.199996948242</ele>
        <time>2020-01-16T13:02:41Z</time>
      </trkpt>
      <trkpt lat="48.393" lon="2.80513">
        <ele>81.599998474121</ele>
        <time>2020-01-16T13:02:46Z</time>
      </trkpt>
      <trkpt lat="48.39305" lon="2.80516">
        <ele>81.800003051758</ele>
        <time>2020-01-16T13:02:51Z</time>
      </trkpt>
      <trkpt lat="48.39311" lon="2.80519">
        <ele>82.800003051758</ele>
        <time>2020-01-16T13:02:56Z</time>
      </trkpt>
      <trkpt lat="48.39314" lon="2.80526">
        <ele>83.199996948242</ele>
        <time>2020-01-16T13:03:01Z</time>
      </trkpt>
      <trkpt lat="48.39317" lon="2.80532">
        <ele>83.800003051758</ele>
        <time>2020-01-16T13:03:06Z</time>
      </trkpt>
      <trkpt lat="48.39321" lon="2.80538">
        <ele>84.400001525879</ele>
        <time>2020-01-16T13:03:11Z</time>
      </trkpt>
      <trkpt lat="48.39324" lon="2.80544">
        <ele>84.800003051758</ele>
        <time>2020-01-16T13:03:16Z</time>
      </trkpt>
      <trkpt lat="48.39327" lon="2.80551">
        <ele>85.199996948242</ele>
        <time>2020-01-16T13:03:21Z</time>
      </trkpt>
      <trkpt lat="48.3933" lon="2.80558">
        <ele>85.599998474121</ele>
        <time>2020-01-16T13:03:26Z</time>
      </trkpt>
      <trkpt lat="48.39332" lon="2.80564">
        <ele>86</ele>
        <time>2020-01-16T13:03:31Z</time>
      </trkpt>
      <trkpt lat="48.39334" lon="2.8057">
        <ele>86.199996948242</ele>
        <time>2020-01-16T13:03:36Z</time>
      </trkpt>
      <trkpt lat="48.39336" lon="2.80577">
        <ele>86.800003051758</ele>
        <time>2020-01-16T13:03:41Z</time>
      </trkpt>
      <trkpt lat="48.39337" lon="2.80584">
        <ele>87.199996948242</ele>
        <time>2020-01-16T13:03:46Z</time>
      </trkpt>
      <trkpt lat="48.3934" lon="2.80593">
        <ele>87.599998474121</ele>
        <time>2020-01-16T13:03:51Z</time>
      </trkpt>
      <trkpt lat="48.3934" lon="2.80602">
        <ele>88.199996948242</ele>
        <time>2020-01-16T13:03:56Z</time>
      </trkpt>
      <trkpt lat="48.39342" lon="2.80611">
        <ele>88.800003051758</ele>
        <time>2020-01-16T13:04:01Z</time>
      </trkpt>
      <trkpt lat="48.39343" lon="2.80619">
        <ele>89</ele>
        <time>2020-01-16T13:04:06Z</time>
      </trkpt>
      <trkpt lat="48.39345" lon="2.80626">
        <ele>89.599998474121</ele>
        <time>2020-01-16T13:04:11Z</time>
      </trkpt>
      <trkpt lat="48.39347" lon="2.80634">
        <ele>89.800003051758</ele>
        <time>2020-01-16T13:04:16Z</time>
      </trkpt>
      <trkpt lat="48.39349" lon="2.80641">
        <ele>90.199996948242</ele>
        <time>2020-01-16T13:04:21Z</time>
      </trkpt>
      <trkpt lat="48.39352" lon="2.80649">
        <ele>90.599998474121</ele>
        <time>2020-01-16T13:04:26Z</time>
      </trkpt>
      <trkpt lat="48.39354" lon="2.80657">
        <ele>90.800003051758</ele>
        <time>2020-01-16T13:04:31Z</time>
      </trkpt>
      <trkpt lat="48.39356" lon="2.80665">
        <ele>91</ele>
        <time>2020-01-16T13:04:36Z</time>
      </trkpt>
      <trkpt lat="48.39358" lon="2.80672">
        <ele>91.400001525879</ele>
        <time>2020-01-16T13:04:41Z</time>
      </trkpt>
      <trkpt lat="48.39359" lon="2.80679">
        <ele>91.599998474121</ele>
        <time>2020-01-16T13:04:46Z</time>
      </trkpt>
      <trkpt lat="48.3936" lon="2.80686">
        <ele>92</ele>
        <time>2020-01-16T13:04:51Z</time>
      </trkpt>
      <trkpt lat="48.3936" lon="2.80693">
        <ele>92.400001525879</ele>
        <time>2020-01-16T13:04:56Z</time>
      </trkpt>
      <trkpt lat="48.3936" lon="2.80701">
        <ele>92.800003051758</ele>
        <time>2020-01-16T13:05:01Z</time>
      </trkpt>
      <trkpt lat="48.39362" lon="2.80708">
        <ele>93</ele>
        <time>2020-01-16T13:05:06Z</time>
      </trkpt>
      <trkpt lat="48.39362" lon="2.80717">
        <ele>93.199996948242</ele>
        <time>2020-01-16T13:05:11Z</time>
      </trkpt>
      <trkpt lat="48.39364" lon="2.80724">
        <ele>93.599998474121</ele>
        <time>2020-01-16T13:05:16Z</time>
      </trkpt>
      <trkpt lat="48.39365" lon="2.80731">
        <ele>94</ele>
        <time>2020-01-16T13:05:21Z</time>
      </trkpt>
      <trkpt lat="48.39366" lon="2.80738">
        <ele>94.199996948242</ele>
        <time>2020-01-16T13:05:26Z</time>
      </trkpt>
      <trkpt lat="48.39368" lon="2.80745">
        <ele>94.400001525879</ele>
        <time>2020-01-16T13:05:31Z</time>
      </trkpt>
      <trkpt lat="48.3937" lon="2.80753">
        <ele>95</ele>
        <time>2020-01-16T13:05:36Z</time>
      </trkpt>
      <trkpt lat="48.39372" lon="2.80762">
        <ele>95.199996948242</ele>
        <time>2020-01-16T13:05:41Z</time>
      </trkpt>
      <trkpt lat="48.39373" lon="2.80771">
        <ele>95.599998474121</ele>
        <time>2020-01-16T13:05:46Z</time>
      </trkpt>
      <trkpt lat="48.39376" lon="2.80779">
        <ele>95.800003051758</ele>
        <time>2020-01-16T13:05:51Z</time>
      </trkpt>
      <trkpt lat="48.39378" lon="2.80788">
        <ele>96.199996948242</ele>
        <time>2020-01-16T13:05:56Z</time>
      </trkpt>
      <trkpt lat="48.3938" lon="2.80796">
        <ele>96.800003051758</ele>
        <time>2020-01-16T13:06:01Z</time>
      </trkpt>
      <trkpt lat="48.39382" lon="2.80803">
        <ele>97</ele>
        <time>2020-01-16T13:06:06Z</time>
      </trkpt>
      <trkpt lat="48.39384" lon="2.80811">
        <ele>97</ele>
        <time>2020-01-16T13:06:11Z</time>
      </trkpt>
      <trkpt lat="48.39386" lon="2.80818">
        <ele>97.400001525879</ele>
        <time>2020-01-16T13:06:16Z</time>
      </trkpt>
      <trkpt lat="48.39386" lon="2.80827">
        <ele>97.599998474121</ele>
        <time>2020-01-16T13:06:21Z</time>
      </trkpt>
      <trkpt lat="48.39388" lon="2.80834">
        <ele>97.800003051758</ele>
        <time>2020-01-16T13:06:26Z</time>
      </trkpt>
      <trkpt lat="48.39389" lon="2.80841">
        <ele>98.199996948242</ele>
        <time>2020-01-16T13:06:31Z</time>
      </trkpt>
      <trkpt lat="48.39391" lon="2.80849">
        <ele>98.599998474121</ele>
        <time>2020-01-16T13:06:36Z</time>
      </trkpt>
      <trkpt lat="48.39393" lon="2.80855">
        <ele>99.199996948242</ele>
        <time>2020-01-16T13:06:41Z</time>
      </trkpt>
      <trkpt lat="48.39395" lon="2.80862">
        <ele>99.400001525879</ele>
        <time>2020-01-16T13:06:46Z</time>
      </trkpt>
      <trkpt lat="48.39397" lon="2.8087">
        <ele>99.599998474121</ele>
        <time>2020-01-16T13:06:51Z</time>
      </trkpt>
      <trkpt lat="48.39399" lon="2.80878">
        <ele>100</ele>
        <time>2020-01-16T13:06:56Z</time>
      </trkpt>
      <trkpt lat="48.39401" lon="2.80885">
        <ele>100.40000152588</ele>
        <time>2020-01-16T13:07:01Z</time>
      </trkpt>
      <trkpt lat="48.39403" lon="2.80892">
        <ele>100.80000305176</ele>
        <time>2020-01-16T13:07:06Z</time>
      </trkpt>
      <trkpt lat="48.39405" lon="2.809">
        <ele>101</ele>
        <time>2020-01-16T13:07:11Z</time>
      </trkpt>
      <trkpt lat="48.39408" lon="2.80908">
        <ele>101.40000152588</ele>
        <time>2020-01-16T13:07:16Z</time>
      </trkpt>
      <trkpt lat="48.39411" lon="2.80915">
        <ele>101.59999847412</ele>
        <time>2020-01-16T13:07:21Z</time>
      </trkpt>
      <trkpt lat="48.39413" lon="2.80922">
        <ele>101.80000305176</ele>
        <time>2020-01-16T13:07:26Z</time>
      </trkpt>
      <trkpt lat="48.39412" lon="2.8093">
        <ele>102.19999694824</ele>
        <time>2020-01-16T13:07:31Z</time>
      </trkpt>
      <trkpt lat="48.39415" lon="2.80938">
        <ele>102.40000152588</ele>
        <time>2020-01-16T13:07:36Z</time>
      </trkpt>
      <trkpt lat="48.39416" lon="2.80946">
        <ele>102.59999847412</ele>
        <time>2020-01-16T13:07:41Z</time>
      </trkpt>
      <trkpt lat="48.39419" lon="2.80954">
        <ele>103</ele>
        <time>2020-01-16T13:07:46Z</time>
      </trkpt>
      <trkpt lat="48.39421" lon="2.80962">
        <ele>103.19999694824</ele>
        <time>2020-01-16T13:07:51Z</time>
      </trkpt>
      <trkpt lat="48.39422" lon="2.80971">
        <ele>103.40000152588</ele>
        <time>2020-01-16T13:07:56Z</time>
      </trkpt>
      <trkpt lat="48.39424" lon="2.80978">
        <ele>103.80000305176</ele>
        <time>2020-01-16T13:08:01Z</time>
      </trkpt>
      <trkpt lat="48.39428" lon="2.80986">
        <ele>104.19999694824</ele>
        <time>2020-01-16T13:08:06Z</time>
      </trkpt>
      <trkpt lat="48.3943" lon="2.80993">
        <ele>104.40000152588</ele>
        <time>2020-01-16T13:08:11Z</time>
      </trkpt>
      <trkpt lat="48.39432" lon="2.81">
        <ele>104.80000305176</ele>
        <time>2020-01-16T13:08:16Z</time>
      </trkpt>
      <trkpt lat="48.39434" lon="2.81008">
        <ele>105.19999694824</ele>
        <time>2020-01-16T13:08:21Z</time>
      </trkpt>
      <trkpt lat="48.39436" lon="2.81014">
        <ele>105.40000152588</ele>
        <time>2020-01-16T13:08:26Z</time>
      </trkpt>
      <trkpt lat="48.39438" lon="2.81022">
        <ele>105.59999847412</ele>
        <time>2020-01-16T13:08:31Z</time>
      </trkpt>
      <trkpt lat="48.39441" lon="2.81029">
        <ele>105.80000305176</ele>
        <time>2020-01-16T13:08:36Z</time>
      </trkpt>
      <trkpt lat="48.39441" lon="2.81037">
        <ele>106</ele>
        <time>2020-01-16T13:08:41Z</time>
      </trkpt>
      <trkpt lat="48.39444" lon="2.81046">
        <ele>106.19999694824</ele>
        <time>2020-01-16T13:08:46Z</time>
      </trkpt>
      <trkpt lat="48.39447" lon="2.81053">
        <ele>106.59999847412</ele>
        <time>2020-01-16T13:08:51Z</time>
      </trkpt>
      <trkpt lat="48.3945" lon="2.81059">
        <ele>106.80000305176</ele>
        <time>2020-01-16T13:08:56Z</time>
      </trkpt>
      <trkpt lat="48.39453" lon="2.81065">
        <ele>107.40000152588</ele>
        <time>2020-01-16T13:09:01Z</time>
      </trkpt>
      <trkpt lat="48.39457" lon="2.81071">
        <ele>107.59999847412</ele>
        <time>2020-01-16T13:09:06Z</time>
      </trkpt>
      <trkpt lat="48.39459" lon="2.81079">
        <ele>107.80000305176</ele>
        <time>2020-01-16T13:09:11Z</time>
      </trkpt>
      <trkpt lat="48.39461" lon="2.81085">
        <ele>107.80000305176</ele>
        <time>2020-01-16T13:09:16Z</time>
      </trkpt>
      <trkpt lat="48.39463" lon="2.81092">
        <ele>108.19999694824</ele>
        <time>2020-01-16T13:09:21Z</time>
      </trkpt>
      <trkpt lat="48.39465" lon="2.81099">
        <ele>108.40000152588</ele>
        <time>2020-01-16T13:09:26Z</time>
      </trkpt>
      <trkpt lat="48.39467" lon="2.81106">
        <ele>109.19999694824</ele>
        <time>2020-01-16T13:09:31Z</time>
      </trkpt>
      <trkpt lat="48.3947" lon="2.81113">
        <ele>109.40000152588</ele>
        <time>2020-01-16T13:09:36Z</time>
      </trkpt>
      <trkpt lat="48.39472" lon="2.8112">
        <ele>109.80000305176</ele>
        <time>2020-01-16T13:09:41Z</time>
      </trkpt>
      <trkpt lat="48.39475" lon="2.81127">
        <ele>110</ele>
        <time>2020-01-16T13:09:46Z</time>
      </trkpt>
      <trkpt lat="48.39478" lon="2.81133">
        <ele>110.19999694824</ele>
        <time>2020-01-16T13:09:51Z</time>
      </trkpt>
      <trkpt lat="48.39481" lon="2.81139">
        <ele>110.59999847412</ele>
        <time>2020-01-16T13:09:56Z</time>
      </trkpt>
      <trkpt lat="48.39484" lon="2.81147">
        <ele>111</ele>
        <time>2020-01-16T13:10:01Z</time>
      </trkpt>
      <trkpt lat="48.39489" lon="2.81154">
        <ele>111.19999694824</ele>
        <time>2020-01-16T13:10:06Z</time>
      </trkpt>
      <trkpt lat="48.39492" lon="2.81163">
        <ele>111.40000152588</ele>
        <time>2020-01-16T13:10:11Z</time>
      </trkpt>
      <trkpt lat="48.39495" lon="2.81169">
        <ele>112.19999694824</ele>
        <time>2020-01-16T13:10:16Z</time>
      </trkpt>
      <trkpt lat="48.39499" lon="2.81176">
        <ele>112.80000305176</ele>
        <time>2020-01-16T13:10:21Z</time>
      </trkpt>
      <trkpt lat="48.39503" lon="2.81182">
        <ele>113.19999694824</ele>
        <time>2020-01-16T13:10:26Z</time>
      </trkpt>
      <trkpt lat="48.39507" lon="2.81186">
        <ele>113.59999847412</ele>
        <time>2020-01-16T13:10:31Z</time>
      </trkpt>
      <trkpt lat="48.39511" lon="2.81192">
        <ele>114.19999694824</ele>
        <time>2020-01-16T13:10:36Z</time>
      </trkpt>
      <trkpt lat="48.39515" lon="2.812">
        <ele>114.59999847412</ele>
        <time>2020-01-16T13:10:41Z</time>
      </trkpt>
      <trkpt lat="48.3952" lon="2.81205">
        <ele>114.80000305176</ele>
        <time>2020-01-16T13:10:46Z</time>
      </trkpt>
      <trkpt lat="48.39523" lon="2.81208">
        <ele>115.40000152588</ele>
        <time>2020-01-16T13:10:51Z</time>
      </trkpt>
      <trkpt lat="48.39527" lon="2.81213">
        <ele>116</ele>
        <time>2020-01-16T13:10:56Z</time>
      </trkpt>
      <trkpt lat="48.39531" lon="2.81218">
        <ele>116.19999694824</ele>
        <time>2020-01-16T13:11:01Z</time>
      </trkpt>
      <trkpt lat="48.39535" lon="2.81223">
        <ele>116.19999694824</ele>
        <time>2020-01-16T13:11:06Z</time>
      </trkpt>
      <trkpt lat="48.39536" lon="2.81228">
        <ele>116.40000152588</ele>
        <time>2020-01-16T13:11:11Z</time>
      </trkpt>
      <trkpt lat="48.39538" lon="2.81235">
        <ele>117</ele>
        <time>2020-01-16T13:11:16Z</time>
      </trkpt>
      <trkpt lat="48.39541" lon="2.81242">
        <ele>117.40000152588</ele>
        <time>2020-01-16T13:11:21Z</time>
      </trkpt>
      <trkpt lat="48.39546" lon="2.81249">
        <ele>117.80000305176</ele>
        <time>2020-01-16T13:11:26Z</time>
      </trkpt>
      <trkpt lat="48.3955" lon="2.81254">
        <ele>118</ele>
        <time>2020-01-16T13:11:31Z</time>
      </trkpt>
      <trkpt lat="48.39555" lon="2.8126">
        <ele>118.40000152588</ele>
        <time>2020-01-16T13:11:36Z</time>
      </trkpt>
      <trkpt lat="48.39559" lon="2.81265">
        <ele>118.59999847412</ele>
        <time>2020-01-16T13:11:41Z</time>
      </trkpt>
      <trkpt lat="48.39563" lon="2.81272">
        <ele>118.80000305176</ele>
        <time>2020-01-16T13:11:46Z</time>
      </trkpt>
      <trkpt lat="48.39565" lon="2.81278">
        <ele>119</ele>
        <time>2020-01-16T13:11:51Z</time>
      </trkpt>
      <trkpt lat="48.39566" lon="2.81284">
        <ele>119.19999694824</ele>
        <time>2020-01-16T13:11:56Z</time>
      </trkpt>
      <trkpt lat="48.39568" lon="2.81289">
        <ele>119.19999694824</ele>
        <time>2020-01-16T13:12:01Z</time>
      </trkpt>
      <trkpt lat="48.3957" lon="2.81293">
        <ele>119.40000152588</ele>
        <time>2020-01-16T13:12:06Z</time>
      </trkpt>
      <trkpt lat="48.39572" lon="2.81296">
        <ele>119.59999847412</ele>
        <time>2020-01-16T13:12:11Z</time>
      </trkpt>
      <trkpt lat="48.39578" lon="2.81295">
        <ele>120</ele>
        <time>2020-01-16T13:12:16Z</time>
      </trkpt>
      <trkpt lat="48.39583" lon="2.81293">
        <ele>120</ele>
        <time>2020-01-16T13:12:21Z</time>
      </trkpt>
      <trkpt lat="48.39587" lon="2.81286">
        <ele>120</ele>
        <time>2020-01-16T13:12:26Z</time>
      </trkpt>
      <trkpt lat="48.39589" lon="2.81281">
        <ele>120</ele>
        <time>2020-01-16T13:12:31Z</time>
      </trkpt>
      <trkpt lat="48.39593" lon="2.81276">
        <ele>120.19999694824</ele>
        <time>2020-01-16T13:12:36Z</time>
      </trkpt>
      <trkpt lat="48.39597" lon="2.81271">
        <ele>120.19999694824</ele>
        <time>2020-01-16T13:12:41Z</time>
      </trkpt>
      <trkpt lat="48.396" lon="2.81266">
        <ele>120.40000152588</ele>
        <time>2020-01-16T13:12:46Z</time>
      </trkpt>
      <trkpt lat="48.39604" lon="2.8126">
        <ele>120.40000152588</ele>
        <time>2020-01-16T13:12:51Z</time>
      </trkpt>
      <trkpt lat="48.39606" lon="2.81255">
        <ele>120</ele>
        <time>2020-01-16T13:12:56Z</time>
      </trkpt>
      <trkpt lat="48.39613" lon="2.81253">
        <ele>119.80000305176</ele>
        <time>2020-01-16T13:13:01Z</time>
      </trkpt>
      <trkpt lat="48.3962" lon="2.81248">
        <ele>119.59999847412</ele>
        <time>2020-01-16T13:13:06Z</time>
      </trkpt>
      <trkpt lat="48.39625" lon="2.81245">
        <ele>119.59999847412</ele>
        <time>2020-01-16T13:13:11Z</time>
      </trkpt>
      <trkpt lat="48.39631" lon="2.8124">
        <ele>119.59999847412</ele>
        <time>2020-01-16T13:13:16Z</time>
      </trkpt>
      <trkpt lat="48.39635" lon="2.81233">
        <ele>119.19999694824</ele>
        <time>2020-01-16T13:13:21Z</time>
      </trkpt>
      <trkpt lat="48.3964" lon="2.81227">
        <ele>119.19999694824</ele>
        <time>2020-01-16T13:13:26Z</time>
      </trkpt>
      <trkpt lat="48.39643" lon="2.81222">
        <ele>119</ele>
        <time>2020-01-16T13:13:31Z</time>
      </trkpt>
      <trkpt lat="48.39648" lon="2.81217">
        <ele>118.80000305176</ele>
        <time>2020-01-16T13:13:36Z</time>
      </trkpt>
      <trkpt lat="48.39652" lon="2.81215">
        <ele>118.80000305176</ele>
        <time>2020-01-16T13:13:41Z</time>
      </trkpt>
      <trkpt lat="48.39657" lon="2.81212">
        <ele>118.59999847412</ele>
        <time>2020-01-16T13:13:46Z</time>
      </trkpt>
      <trkpt lat="48.39661" lon="2.81206">
        <ele>118.59999847412</ele>
        <time>2020-01-16T13:13:51Z</time>
      </trkpt>
      <trkpt lat="48.39666" lon="2.81202">
        <ele>118.40000152588</ele>
        <time>2020-01-16T13:13:56Z</time>
      </trkpt>
      <trkpt lat="48.39671" lon="2.81196">
        <ele>118.19999694824</ele>
        <time>2020-01-16T13:14:01Z</time>
      </trkpt>
      <trkpt lat="48.39675" lon="2.81191">
        <ele>118</ele>
        <time>2020-01-16T13:14:06Z</time>
      </trkpt>
      <trkpt lat="48.39681" lon="2.81187">
        <ele>118</ele>
        <time>2020-01-16T13:14:11Z</time>
      </trkpt>
      <trkpt lat="48.39685" lon="2.81184">
        <ele>117.80000305176</ele>
        <time>2020-01-16T13:14:16Z</time>
      </trkpt>
      <trkpt lat="48.39692" lon="2.81182">
        <ele>117.59999847412</ele>
        <time>2020-01-16T13:14:21Z</time>
      </trkpt>
      <trkpt lat="48.39697" lon="2.81179">
        <ele>117.59999847412</ele>
        <time>2020-01-16T13:14:26Z</time>
      </trkpt>
      <trkpt lat="48.39702" lon="2.81174">
        <ele>117.40000152588</ele>
        <time>2020-01-16T13:14:31Z</time>
      </trkpt>
      <trkpt lat="48.39705" lon="2.81167">
        <ele>117.19999694824</ele>
        <time>2020-01-16T13:14:36Z</time>
      </trkpt>
      <trkpt lat="48.3971" lon="2.81164">
        <ele>117</ele>
        <time>2020-01-16T13:14:41Z</time>
      </trkpt>
      <trkpt lat="48.39713" lon="2.81159">
        <ele>116.80000305176</ele>
        <time>2020-01-16T13:14:46Z</time>
      </trkpt>
      <trkpt lat="48.39716" lon="2.81151">
        <ele>116.40000152588</ele>
        <time>2020-01-16T13:14:51Z</time>
      </trkpt>
      <trkpt lat="48.3972" lon="2.81144">
        <ele>116.40000152588</ele>
        <time>2020-01-16T13:14:56Z</time>
      </trkpt>
      <trkpt lat="48.39724" lon="2.81137">
        <ele>116</ele>
        <time>2020-01-16T13:15:01Z</time>
      </trkpt>
      <trkpt lat="48.39729" lon="2.81132">
        <ele>115.80000305176</ele>
        <time>2020-01-16T13:15:06Z</time>
      </trkpt>
      <trkpt lat="48.39733" lon="2.81124">
        <ele>115.40000152588</ele>
        <time>2020-01-16T13:15:11Z</time>
      </trkpt>
      <trkpt lat="48.39737" lon="2.81116">
        <ele>115</ele>
        <time>2020-01-16T13:15:16Z</time>
      </trkpt>
      <trkpt lat="48.39739" lon="2.81106">
        <ele>115</ele>
        <time>2020-01-16T13:15:21Z</time>
      </trkpt>
      <trkpt lat="48.39743" lon="2.81098">
        <ele>114.80000305176</ele>
        <time>2020-01-16T13:15:26Z</time>
      </trkpt>
      <trkpt lat="48.39746" lon="2.81091">
        <ele>114.40000152588</ele>
        <time>2020-01-16T13:15:31Z</time>
      </trkpt>
      <trkpt lat="48.39749" lon="2.81084">
        <ele>114</ele>
        <time>2020-01-16T13:15:36Z</time>
      </trkpt>
      <trkpt lat="48.39752" lon="2.81077">
        <ele>113.80000305176</ele>
        <time>2020-01-16T13:15:41Z</time>
      </trkpt>
      <trkpt lat="48.39756" lon="2.81069">
        <ele>113.40000152588</ele>
        <time>2020-01-16T13:15:46Z</time>
      </trkpt>
      <trkpt lat="48.3976" lon="2.81063">
        <ele>113.40000152588</ele>
        <time>2020-01-16T13:15:51Z</time>
      </trkpt>
      <trkpt lat="48.39763" lon="2.81057">
        <ele>113.19999694824</ele>
        <time>2020-01-16T13:15:56Z</time>
      </trkpt>
      <trkpt lat="48.39767" lon="2.81049">
        <ele>113.19999694824</ele>
        <time>2020-01-16T13:16:01Z</time>
      </trkpt>
      <trkpt lat="48.3977" lon="2.81042">
        <ele>112.80000305176</ele>
        <time>2020-01-16T13:16:06Z</time>
      </trkpt>
      <trkpt lat="48.39772" lon="2.81032">
        <ele>112.59999847412</ele>
        <time>2020-01-16T13:16:11Z</time>
      </trkpt>
      <trkpt lat="48.39775" lon="2.81025">
        <ele>112.40000152588</ele>
        <time>2020-01-16T13:16:16Z</time>
      </trkpt>
      <trkpt lat="48.39778" lon="2.81019">
        <ele>112.19999694824</ele>
        <time>2020-01-16T13:16:21Z</time>
      </trkpt>
      <trkpt lat="48.39781" lon="2.81013">
        <ele>112</ele>
        <time>2020-01-16T13:16:26Z</time>
      </trkpt>
      <trkpt lat="48.39782" lon="2.81004">
        <ele>111.80000305176</ele>
        <time>2020-01-16T13:16:31Z</time>
      </trkpt>
      <trkpt lat="48.39784" lon="2.80994">
        <ele>111.80000305176</ele>
        <time>2020-01-16T13:16:36Z</time>
      </trkpt>
      <trkpt lat="48.39788" lon="2.80984">
        <ele>111.59999847412</ele>
        <time>2020-01-16T13:16:41Z</time>
      </trkpt>
      <trkpt lat="48.39792" lon="2.80978">
        <ele>111.80000305176</ele>
        <time>2020-01-16T13:16:46Z</time>
      </trkpt>
      <trkpt lat="48.39797" lon="2.80972">
        <ele>111.59999847412</ele>
        <time>2020-01-16T13:16:51Z</time>
      </trkpt>
      <trkpt lat="48.398" lon="2.80962">
        <ele>111.40000152588</ele>
        <time>2020-01-16T13:16:56Z</time>
      </trkpt>
      <trkpt lat="48.39804" lon="2.80956">
        <ele>111</ele>
        <time>2020-01-16T13:17:01Z</time>
      </trkpt>
      <trkpt lat="48.39809" lon="2.80949">
        <ele>110.80000305176</ele>
        <time>2020-01-16T13:17:06Z</time>
      </trkpt>
      <trkpt lat="48.39813" lon="2.80941">
        <ele>110.59999847412</ele>
        <time>2020-01-16T13:17:11Z</time>
      </trkpt>
      <trkpt lat="48.39816" lon="2.80934">
        <ele>110.40000152588</ele>
        <time>2020-01-16T13:17:16Z</time>
      </trkpt>
      <trkpt lat="48.39821" lon="2.80932">
        <ele>110.59999847412</ele>
        <time>2020-01-16T13:17:21Z</time>
      </trkpt>
      <trkpt lat="48.39827" lon="2.80927">
        <ele>110.40000152588</ele>
        <time>2020-01-16T13:17:26Z</time>
      </trkpt>
      <trkpt lat="48.39832" lon="2.80923">
        <ele>110.40000152588</ele>
        <time>2020-01-16T13:17:31Z</time>
      </trkpt>
      <trkpt lat="48.39835" lon="2.80919">
        <ele>110.19999694824</ele>
        <time>2020-01-16T13:17:36Z</time>
      </trkpt>
      <trkpt lat="48.3984" lon="2.80916">
        <ele>110</ele>
        <time>2020-01-16T13:17:41Z</time>
      </trkpt>
      <trkpt lat="48.39844" lon="2.80909">
        <ele>109.80000305176</ele>
        <time>2020-01-16T13:17:46Z</time>
      </trkpt>
      <trkpt lat="48.39848" lon="2.80904">
        <ele>109.59999847412</ele>
        <time>2020-01-16T13:17:51Z</time>
      </trkpt>
      <trkpt lat="48.39852" lon="2.80898">
        <ele>109</ele>
        <time>2020-01-16T13:17:56Z</time>
      </trkpt>
      <trkpt lat="48.39856" lon="2.80892">
        <ele>108.80000305176</ele>
        <time>2020-01-16T13:18:01Z</time>
      </trkpt>
      <trkpt lat="48.39859" lon="2.80887">
        <ele>108.19999694824</ele>
        <time>2020-01-16T13:18:06Z</time>
      </trkpt>
      <trkpt lat="48.39863" lon="2.80883">
        <ele>108</ele>
        <time>2020-01-16T13:18:11Z</time>
      </trkpt>
      <trkpt lat="48.39867" lon="2.80875">
        <ele>108</ele>
        <time>2020-01-16T13:18:16Z</time>
      </trkpt>
      <trkpt lat="48.39868" lon="2.80866">
        <ele>107.80000305176</ele>
        <time>2020-01-16T13:18:21Z</time>
      </trkpt>
      <trkpt lat="48.3987" lon="2.80858">
        <ele>107.59999847412</ele>
        <time>2020-01-16T13:18:26Z</time>
      </trkpt>
      <trkpt lat="48.39871" lon="2.8085">
        <ele>107.19999694824</ele>
        <time>2020-01-16T13:18:31Z</time>
      </trkpt>
      <trkpt lat="48.39872" lon="2.80842">
        <ele>106.59999847412</ele>
        <time>2020-01-16T13:18:36Z</time>
      </trkpt>
      <trkpt lat="48.39872" lon="2.80834">
        <ele>106.19999694824</ele>
        <time>2020-01-16T13:18:41Z</time>
      </trkpt>
      <trkpt lat="48.39871" lon="2.80826">
        <ele>105.80000305176</ele>
        <time>2020-01-16T13:18:46Z</time>
      </trkpt>
      <trkpt lat="48.3987" lon="2.80817">
        <ele>105.40000152588</ele>
        <time>2020-01-16T13:18:51Z</time>
      </trkpt>
      <trkpt lat="48.39868" lon="2.80808">
        <ele>105.40000152588</ele>
        <time>2020-01-16T13:18:56Z</time>
      </trkpt>
      <trkpt lat="48.39866" lon="2.808">
        <ele>105</ele>
        <time>2020-01-16T13:19:01Z</time>
      </trkpt>
      <trkpt lat="48.39865" lon="2.80792">
        <ele>104.80000305176</ele>
        <time>2020-01-16T13:19:06Z</time>
      </trkpt>
      <trkpt lat="48.39864" lon="2.80784">
        <ele>104.59999847412</ele>
        <time>2020-01-16T13:19:11Z</time>
      </trkpt>
      <trkpt lat="48.39864" lon="2.80774">
        <ele>104.19999694824</ele>
        <time>2020-01-16T13:19:16Z</time>
      </trkpt>
      <trkpt lat="48.39862" lon="2.80763">
        <ele>104</ele>
        <time>2020-01-16T13:19:21Z</time>
      </trkpt>
      <trkpt lat="48.39861" lon="2.80756">
        <ele>103.80000305176</ele>
        <time>2020-01-16T13:19:26Z</time>
      </trkpt>
      <trkpt lat="48.39858" lon="2.8075">
        <ele>103.19999694824</ele>
        <time>2020-01-16T13:19:31Z</time>
      </trkpt>
      <trkpt lat="48.39855" lon="2.80742">
        <ele>103</ele>
        <time>2020-01-16T13:19:36Z</time>
      </trkpt>
      <trkpt lat="48.39854" lon="2.80734">
        <ele>102.40000152588</ele>
        <time>2020-01-16T13:19:41Z</time>
      </trkpt>
      <trkpt lat="48.39853" lon="2.80726">
        <ele>102.19999694824</ele>
        <time>2020-01-16T13:19:46Z</time>
      </trkpt>
      <trkpt lat="48.39851" lon="2.80717">
        <ele>101.59999847412</ele>
        <time>2020-01-16T13:19:51Z</time>
      </trkpt>
      <trkpt lat="48.3985" lon="2.80707">
        <ele>101.40000152588</ele>
        <time>2020-01-16T13:19:56Z</time>
      </trkpt>
      <trkpt lat="48.39849" lon="2.80696">
        <ele>101.19999694824</ele>
        <time>2020-01-16T13:20:01Z</time>
      </trkpt>
      <trkpt lat="48.39846" lon="2.80686">
        <ele>100.80000305176</ele>
        <time>2020-01-16T13:20:06Z</time>
      </trkpt>
      <trkpt lat="48.39845" lon="2.80678">
        <ele>100.59999847412</ele>
        <time>2020-01-16T13:20:11Z</time>
      </trkpt>
      <trkpt lat="48.39845" lon="2.80671">
        <ele>100.19999694824</ele>
        <time>2020-01-16T13:20:16Z</time>
      </trkpt>
      <trkpt lat="48.39844" lon="2.80663">
        <ele>99.800003051758</ele>
        <time>2020-01-16T13:20:21Z</time>
      </trkpt>
      <trkpt lat="48.39844" lon="2.80657">
        <ele>99.400001525879</ele>
        <time>2020-01-16T13:20:26Z</time>
      </trkpt>
      <trkpt lat="48.39846" lon="2.80653">
        <ele>99.199996948242</ele>
        <time>2020-01-16T13:20:31Z</time>
      </trkpt>
      <trkpt lat="48.39847" lon="2.80644">
        <ele>99</ele>
        <time>2020-01-16T13:20:36Z</time>
      </trkpt>
      <trkpt lat="48.3985" lon="2.80634">
        <ele>98.599998474121</ele>
        <time>2020-01-16T13:20:41Z</time>
      </trkpt>
      <trkpt lat="48.39855" lon="2.80627">
        <ele>98.599998474121</ele>
        <time>2020-01-16T13:20:46Z</time>
      </trkpt>
      <trkpt lat="48.3986" lon="2.80625">
        <ele>98.400001525879</ele>
        <time>2020-01-16T13:20:51Z</time>
      </trkpt>
      <trkpt lat="48.39865" lon="2.80622">
        <ele>98.800003051758</ele>
        <time>2020-01-16T13:20:56Z</time>
      </trkpt>
      <trkpt lat="48.39871" lon="2.8062">
        <ele>99.199996948242</ele>
        <time>2020-01-16T13:21:01Z</time>
      </trkpt>
      <trkpt lat="48.39876" lon="2.80618">
        <ele>99.400001525879</ele>
        <time>2020-01-16T13:21:06Z</time>
      </trkpt>
      <trkpt lat="48.39882" lon="2.80615">
        <ele>99.599998474121</ele>
        <time>2020-01-16T13:21:11Z</time>
      </trkpt>
      <trkpt lat="48.39887" lon="2.8061">
        <ele>100</ele>
        <time>2020-01-16T13:21:16Z</time>
      </trkpt>
      <trkpt lat="48.39892" lon="2.80606">
        <ele>100</ele>
        <time>2020-01-16T13:21:21Z</time>
      </trkpt>
      <trkpt lat="48.39896" lon="2.80597">
        <ele>100</ele>
        <time>2020-01-16T13:21:26Z</time>
      </trkpt>
      <trkpt lat="48.39901" lon="2.80594">
        <ele>100.19999694824</ele>
        <time>2020-01-16T13:21:31Z</time>
      </trkpt>
      <trkpt lat="48.39907" lon="2.80592">
        <ele>100.19999694824</ele>
        <time>2020-01-16T13:21:36Z</time>
      </trkpt>
      <trkpt lat="48.39913" lon="2.80592">
        <ele>100.19999694824</ele>
        <time>2020-01-16T13:21:41Z</time>
      </trkpt>
      <trkpt lat="48.39917" lon="2.80591">
        <ele>100</ele>
        <time>2020-01-16T13:21:46Z</time>
      </trkpt>
      <trkpt lat="48.39924" lon="2.80591">
        <ele>100</ele>
        <time>2020-01-16T13:21:51Z</time>
      </trkpt>
      <trkpt lat="48.3993" lon="2.80592">
        <ele>100</ele>
        <time>2020-01-16T13:21:56Z</time>
      </trkpt>
      <trkpt lat="48.39937" lon="2.80592">
        <ele>99.800003051758</ele>
        <time>2020-01-16T13:22:01Z</time>
      </trkpt>
      <trkpt lat="48.39943" lon="2.80588">
        <ele>99.599998474121</ele>
        <time>2020-01-16T13:22:06Z</time>
      </trkpt>
      <trkpt lat="48.39948" lon="2.80585">
        <ele>99.400001525879</ele>
        <time>2020-01-16T13:22:11Z</time>
      </trkpt>
      <trkpt lat="48.39953" lon="2.80582">
        <ele>99</ele>
        <time>2020-01-16T13:22:16Z</time>
      </trkpt>
      <trkpt lat="48.39959" lon="2.80577">
        <ele>98.400001525879</ele>
        <time>2020-01-16T13:22:21Z</time>
      </trkpt>
      <trkpt lat="48.39965" lon="2.80574">
        <ele>98.400001525879</ele>
        <time>2020-01-16T13:22:26Z</time>
      </trkpt>
      <trkpt lat="48.39969" lon="2.80571">
        <ele>98.400001525879</ele>
        <time>2020-01-16T13:22:31Z</time>
      </trkpt>
      <trkpt lat="48.39974" lon="2.80566">
        <ele>98.400001525879</ele>
        <time>2020-01-16T13:22:36Z</time>
      </trkpt>
      <trkpt lat="48.39978" lon="2.80565">
        <ele>98.400001525879</ele>
        <time>2020-01-16T13:22:41Z</time>
      </trkpt>
      <trkpt lat="48.39981" lon="2.80563">
        <ele>98.400001525879</ele>
        <time>2020-01-16T13:22:46Z</time>
      </trkpt>
      <trkpt lat="48.39984" lon="2.80559">
        <ele>98.400001525879</ele>
        <time>2020-01-16T13:22:51Z</time>
      </trkpt>
      <trkpt lat="48.39988" lon="2.80554">
        <ele>97.800003051758</ele>
        <time>2020-01-16T13:22:56Z</time>
      </trkpt>
      <trkpt lat="48.39991" lon="2.8055">
        <ele>97.599998474121</ele>
        <time>2020-01-16T13:23:01Z</time>
      </trkpt>
      <trkpt lat="48.39995" lon="2.80544">
        <ele>97.199996948242</ele>
        <time>2020-01-16T13:23:06Z</time>
      </trkpt>
      <trkpt lat="48.39999" lon="2.80542">
        <ele>96.800003051758</ele>
        <time>2020-01-16T13:23:11Z</time>
      </trkpt>
      <trkpt lat="48.40003" lon="2.80538">
        <ele>96.199996948242</ele>
        <time>2020-01-16T13:23:16Z</time>
      </trkpt>
      <trkpt lat="48.40007" lon="2.80532">
        <ele>96.199996948242</ele>
        <time>2020-01-16T13:23:21Z</time>
      </trkpt>
      <trkpt lat="48.40011" lon="2.80527">
        <ele>96</ele>
        <time>2020-01-16T13:23:26Z</time>
      </trkpt>
      <trkpt lat="48.40017" lon="2.80522">
        <ele>96.199996948242</ele>
        <time>2020-01-16T13:23:31Z</time>
      </trkpt>
      <trkpt lat="48.40024" lon="2.80518">
        <ele>96</ele>
        <time>2020-01-16T13:23:36Z</time>
      </trkpt>
      <trkpt lat="48.40027" lon="2.80515">
        <ele>96</ele>
        <time>2020-01-16T13:23:41Z</time>
      </trkpt>
      <trkpt lat="48.40029" lon="2.80512">
        <ele>96</ele>
        <time>2020-01-16T13:23:46Z</time>
      </trkpt>
      <trkpt lat="48.40034" lon="2.8051">
        <ele>95.800003051758</ele>
        <time>2020-01-16T13:23:51Z</time>
      </trkpt>
      <trkpt lat="48.40037" lon="2.80508">
        <ele>95.599998474121</ele>
        <time>2020-01-16T13:23:56Z</time>
      </trkpt>
      <trkpt lat="48.40041" lon="2.80505">
        <ele>95.400001525879</ele>
        <time>2020-01-16T13:24:01Z</time>
      </trkpt>
      <trkpt lat="48.40046" lon="2.80502">
        <ele>95.199996948242</ele>
        <time>2020-01-16T13:24:06Z</time>
      </trkpt>
      <trkpt lat="48.40051" lon="2.80504">
        <ele>95</ele>
        <time>2020-01-16T13:24:11Z</time>
      </trkpt>
      <trkpt lat="48.40055" lon="2.80505">
        <ele>94.599998474121</ele>
        <time>2020-01-16T13:24:16Z</time>
      </trkpt>
      <trkpt lat="48.4006" lon="2.80509">
        <ele>94.199996948242</ele>
        <time>2020-01-16T13:24:21Z</time>
      </trkpt>
      <trkpt lat="48.40063" lon="2.80512">
        <ele>93.800003051758</ele>
        <time>2020-01-16T13:24:26Z</time>
      </trkpt>
      <trkpt lat="48.40066" lon="2.80514">
        <ele>93.800003051758</ele>
        <time>2020-01-16T13:24:31Z</time>
      </trkpt>
      <trkpt lat="48.40066" lon="2.80515">
        <ele>93.599998474121</ele>
        <time>2020-01-16T13:24:36Z</time>
      </trkpt>
      <trkpt lat="48.40071" lon="2.80515">
        <ele>93.199996948242</ele>
        <time>2020-01-16T13:24:41Z</time>
      </trkpt>
      <trkpt lat="48.40075" lon="2.80509">
        <ele>92</ele>
        <time>2020-01-16T13:24:46Z</time>
      </trkpt>
      <trkpt lat="48.40076" lon="2.80502">
        <ele>91.599998474121</ele>
        <time>2020-01-16T13:24:51Z</time>
      </trkpt>
      <trkpt lat="48.40076" lon="2.80499">
        <ele>91.199996948242</ele>
        <time>2020-01-16T13:24:56Z</time>
      </trkpt>
      <trkpt lat="48.40079" lon="2.80497">
        <ele>91</ele>
        <time>2020-01-16T13:25:01Z</time>
      </trkpt>
      <trkpt lat="48.40083" lon="2.80494">
        <ele>91.400001525879</ele>
        <time>2020-01-16T13:25:06Z</time>
      </trkpt>
      <trkpt lat="48.40086" lon="2.80494">
        <ele>92</ele>
        <time>2020-01-16T13:25:11Z</time>
      </trkpt>
      <trkpt lat="48.40091" lon="2.80491">
        <ele>92.599998474121</ele>
        <time>2020-01-16T13:25:16Z</time>
      </trkpt>
      <trkpt lat="48.40094" lon="2.80488">
        <ele>93.199996948242</ele>
        <time>2020-01-16T13:25:21Z</time>
      </trkpt>
      <trkpt lat="48.40099" lon="2.80486">
        <ele>93.199996948242</ele>
        <time>2020-01-16T13:25:26Z</time>
      </trkpt>
      <trkpt lat="48.40105" lon="2.80483">
        <ele>93.400001525879</ele>
        <time>2020-01-16T13:25:31Z</time>
      </trkpt>
      <trkpt lat="48.40113" lon="2.80482">
        <ele>94.199996948242</ele>
        <time>2020-01-16T13:25:36Z</time>
      </trkpt>
      <trkpt lat="48.4012" lon="2.80482">
        <ele>94.199996948242</ele>
        <time>2020-01-16T13:25:41Z</time>
      </trkpt>
      <trkpt lat="48.40125" lon="2.80479">
        <ele>94.199996948242</ele>
        <time>2020-01-16T13:25:46Z</time>
      </trkpt>
      <trkpt lat="48.40129" lon="2.80475">
        <ele>94.800003051758</ele>
        <time>2020-01-16T13:25:51Z</time>
      </trkpt>
      <trkpt lat="48.40133" lon="2.80472">
        <ele>95.599998474121</ele>
        <time>2020-01-16T13:25:56Z</time>
      </trkpt>
      <trkpt lat="48.40139" lon="2.80467">
        <ele>96.199996948242</ele>
        <time>2020-01-16T13:26:01Z</time>
      </trkpt>
      <trkpt lat="48.40144" lon="2.80463">
        <ele>96.599998474121</ele>
        <time>2020-01-16T13:26:06Z</time>
      </trkpt>
      <trkpt lat="48.40148" lon="2.80462">
        <ele>96.599998474121</ele>
        <time>2020-01-16T13:26:11Z</time>
      </trkpt>
      <trkpt lat="48.40155" lon="2.80461">
        <ele>96.599998474121</ele>
        <time>2020-01-16T13:26:16Z</time>
      </trkpt>
      <trkpt lat="48.40162" lon="2.80459">
        <ele>97</ele>
        <time>2020-01-16T13:26:21Z</time>
      </trkpt>
      <trkpt lat="48.40168" lon="2.80458">
        <ele>97.400001525879</ele>
        <time>2020-01-16T13:26:26Z</time>
      </trkpt>
      <trkpt lat="48.40172" lon="2.80456">
        <ele>97.599998474121</ele>
        <time>2020-01-16T13:26:31Z</time>
      </trkpt>
      <trkpt lat="48.40177" lon="2.80451">
        <ele>97.599998474121</ele>
        <time>2020-01-16T13:26:36Z</time>
      </trkpt>
      <trkpt lat="48.40182" lon="2.80449">
        <ele>97.599998474121</ele>
        <time>2020-01-16T13:26:41Z</time>
      </trkpt>
      <trkpt lat="48.40189" lon="2.80447">
        <ele>97.800003051758</ele>
        <time>2020-01-16T13:26:46Z</time>
      </trkpt>
      <trkpt lat="48.40192" lon="2.80445">
        <ele>97.800003051758</ele>
        <time>2020-01-16T13:26:51Z</time>
      </trkpt>
      <trkpt lat="48.40197" lon="2.80442">
        <ele>97.800003051758</ele>
        <time>2020-01-16T13:26:56Z</time>
      </trkpt>
      <trkpt lat="48.40202" lon="2.80441">
        <ele>98</ele>
        <time>2020-01-16T13:27:01Z</time>
      </trkpt>
      <trkpt lat="48.40209" lon="2.80443">
        <ele>98</ele>
        <time>2020-01-16T13:27:06Z</time>
      </trkpt>
      <trkpt lat="48.40213" lon="2.80444">
        <ele>98.199996948242</ele>
        <time>2020-01-16T13:27:11Z</time>
      </trkpt>
      <trkpt lat="48.40219" lon="2.80443">
        <ele>98.400001525879</ele>
        <time>2020-01-16T13:27:16Z</time>
      </trkpt>
      <trkpt lat="48.40223" lon="2.8044">
        <ele>98.800003051758</ele>
        <time>2020-01-16T13:27:21Z</time>
      </trkpt>
      <trkpt lat="48.4023" lon="2.80438">
        <ele>98.800003051758</ele>
        <time>2020-01-16T13:27:26Z</time>
      </trkpt>
      <trkpt lat="48.40235" lon="2.80436">
        <ele>98.800003051758</ele>
        <time>2020-01-16T13:27:31Z</time>
      </trkpt>
      <trkpt lat="48.40241" lon="2.80433">
        <ele>98.800003051758</ele>
        <time>2020-01-16T13:27:36Z</time>
      </trkpt>
      <trkpt lat="48.40246" lon="2.8043">
        <ele>98.800003051758</ele>
        <time>2020-01-16T13:27:41Z</time>
      </trkpt>
      <trkpt lat="48.40252" lon="2.80428">
        <ele>99</ele>
        <time>2020-01-16T13:27:46Z</time>
      </trkpt>
      <trkpt lat="48.40257" lon="2.80432">
        <ele>99</ele>
        <time>2020-01-16T13:27:51Z</time>
      </trkpt>
      <trkpt lat="48.4026" lon="2.80434">
        <ele>99.400001525879</ele>
        <time>2020-01-16T13:27:56Z</time>
      </trkpt>
      <trkpt lat="48.40262" lon="2.80435">
        <ele>99.599998474121</ele>
        <time>2020-01-16T13:28:01Z</time>
      </trkpt>
      <trkpt lat="48.40263" lon="2.80435">
        <ele>99.800003051758</ele>
        <time>2020-01-16T13:28:06Z</time>
      </trkpt>
      <trkpt lat="48.40263" lon="2.80436">
        <ele>99.800003051758</ele>
        <time>2020-01-16T13:28:11Z</time>
      </trkpt>
      <trkpt lat="48.40265" lon="2.80437">
        <ele>99.599998474121</ele>
        <time>2020-01-16T13:28:16Z</time>
      </trkpt>
      <trkpt lat="48.40267" lon="2.80437">
        <ele>99.599998474121</ele>
        <time>2020-01-16T13:28:21Z</time>
      </trkpt>
      <trkpt lat="48.40268" lon="2.80437">
        <ele>100</ele>
        <time>2020-01-16T13:28:26Z</time>
      </trkpt>
      <trkpt lat="48.40269" lon="2.80437">
        <ele>100.19999694824</ele>
        <time>2020-01-16T13:28:31Z</time>
      </trkpt>
      <trkpt lat="48.4027" lon="2.80437">
        <ele>100.19999694824</ele>
        <time>2020-01-16T13:28:36Z</time>
      </trkpt>
      <trkpt lat="48.4027" lon="2.80437">
        <ele>100.19999694824</ele>
        <time>2020-01-16T13:28:41Z</time>
      </trkpt>
      <trkpt lat="48.4027" lon="2.80437">
        <ele>100</ele>
        <time>2020-01-16T13:28:46Z</time>
      </trkpt>
      <trkpt lat="48.40269" lon="2.80438">
        <ele>99.800003051758</ele>
        <time>2020-01-16T13:28:51Z</time>
      </trkpt>
      <trkpt lat="48.40268" lon="2.80437">
        <ele>99.800003051758</ele>
        <time>2020-01-16T13:28:56Z</time>
      </trkpt>
      <trkpt lat="48.40267" lon="2.80437">
        <ele>99.800003051758</ele>
        <time>2020-01-16T13:29:01Z</time>
      </trkpt>
      <trkpt lat="48.40268" lon="2.80437">
        <ele>99.599998474121</ele>
        <time>2020-01-16T13:29:06Z</time>
      </trkpt>
      <trkpt lat="48.40267" lon="2.80437">
        <ele>99.599998474121</ele>
        <time>2020-01-16T13:29:11Z</time>
      </trkpt>
      <trkpt lat="48.40268" lon="2.80437">
        <ele>99.599998474121</ele>
        <time>2020-01-16T13:29:16Z</time>
      </trkpt>
      <trkpt lat="48.40268" lon="2.80437">
        <ele>99.599998474121</ele>
        <time>2020-01-16T13:29:21Z</time>
      </trkpt>
      <trkpt lat="48.40267" lon="2.80438">
        <ele>99.599998474121</ele>
        <time>2020-01-16T13:29:26Z</time>
      </trkpt>
      <trkpt lat="48.40267" lon="2.80437">
        <ele>99.599998474121</ele>
        <time>2020-01-16T13:29:31Z</time>
      </trkpt>
      <trkpt lat="48.40267" lon="2.80438">
        <ele>99.599998474121</ele>
        <time>2020-01-16T13:29:36Z</time>
      </trkpt>
      <trkpt lat="48.40264" lon="2.80437">
        <ele>99.599998474121</ele>
        <time>2020-01-16T13:29:41Z</time>
      </trkpt>
      <trkpt lat="48.40261" lon="2.80437">
        <ele>99.599998474121</ele>
        <time>2020-01-16T13:29:46Z</time>
      </trkpt>
      <trkpt lat="48.40259" lon="2.80436">
        <ele>99.800003051758</ele>
        <time>2020-01-16T13:29:51Z</time>
      </trkpt>
      <trkpt lat="48.40258" lon="2.80436">
        <ele>99.800003051758</ele>
        <time>2020-01-16T13:29:56Z</time>
      </trkpt>
      <trkpt lat="48.40257" lon="2.80436">
        <ele>99.800003051758</ele>
        <time>2020-01-16T13:30:01Z</time>
      </trkpt>
      <trkpt lat="48.40257" lon="2.80436">
        <ele>99.800003051758</ele>
        <time>2020-01-16T13:30:06Z</time>
      </trkpt>
      <trkpt lat="48.40258" lon="2.80436">
        <ele>99.800003051758</ele>
        <time>2020-01-16T13:30:11Z</time>
      </trkpt>
      <trkpt lat="48.40259" lon="2.80436">
        <ele>99.800003051758</ele>
        <time>2020-01-16T13:30:16Z</time>
      </trkpt>
      <trkpt lat="48.4026" lon="2.80434">
        <ele>99.800003051758</ele>
        <time>2020-01-16T13:30:21Z</time>
      </trkpt>
      <trkpt lat="48.40263" lon="2.80433">
        <ele>99.800003051758</ele>
        <time>2020-01-16T13:30:26Z</time>
      </trkpt>
      <trkpt lat="48.40264" lon="2.80433">
        <ele>99.800003051758</ele>
        <time>2020-01-16T13:30:31Z</time>
      </trkpt>
      <trkpt lat="48.40264" lon="2.80433">
        <ele>99.599998474121</ele>
        <time>2020-01-16T13:30:36Z</time>
      </trkpt>
      <trkpt lat="48.40263" lon="2.80434">
        <ele>99.599998474121</ele>
        <time>2020-01-16T13:30:41Z</time>
      </trkpt>
      <trkpt lat="48.40264" lon="2.80433">
        <ele>99.599998474121</ele>
        <time>2020-01-16T13:30:46Z</time>
      </trkpt>
      <trkpt lat="48.40265" lon="2.80433">
        <ele>99.800003051758</ele>
        <time>2020-01-16T13:30:51Z</time>
      </trkpt>
      <trkpt lat="48.40266" lon="2.80433">
        <ele>99.800003051758</ele>
        <time>2020-01-16T13:30:56Z</time>
      </trkpt>
      <trkpt lat="48.40267" lon="2.80433">
        <ele>99.800003051758</ele>
        <time>2020-01-16T13:31:01Z</time>
      </trkpt>
      <trkpt lat="48.40267" lon="2.80434">
        <ele>99.800003051758</ele>
        <time>2020-01-16T13:31:06Z</time>
      </trkpt>
      <trkpt lat="48.40266" lon="2.80433">
        <ele>99.800003051758</ele>
        <time>2020-01-16T13:31:11Z</time>
      </trkpt>
      <trkpt lat="48.40265" lon="2.80432">
        <ele>99.800003051758</ele>
        <time>2020-01-16T13:31:16Z</time>
      </trkpt>
      <trkpt lat="48.40266" lon="2.80431">
        <ele>99.800003051758</ele>
        <time>2020-01-16T13:31:21Z</time>
      </trkpt>
      <trkpt lat="48.40267" lon="2.80431">
        <ele>99.800003051758</ele>
        <time>2020-01-16T13:31:26Z</time>
      </trkpt>
      <trkpt lat="48.40267" lon="2.80432">
        <ele>99.800003051758</ele>
        <time>2020-01-16T13:31:31Z</time>
      </trkpt>
      <trkpt lat="48.40268" lon="2.80431">
        <ele>99.800003051758</ele>
        <time>2020-01-16T13:31:36Z</time>
      </trkpt>
      <trkpt lat="48.40267" lon="2.80432">
        <ele>99.800003051758</ele>
        <time>2020-01-16T13:31:41Z</time>
      </trkpt>
      <trkpt lat="48.40267" lon="2.80432">
        <ele>99.800003051758</ele>
        <time>2020-01-16T13:31:46Z</time>
      </trkpt>
      <trkpt lat="48.40267" lon="2.80433">
        <ele>99.800003051758</ele>
        <time>2020-01-16T13:31:51Z</time>
      </trkpt>
      <trkpt lat="48.40266" lon="2.80433">
        <ele>99.800003051758</ele>
        <time>2020-01-16T13:31:56Z</time>
      </trkpt>
      <trkpt lat="48.40265" lon="2.80435">
        <ele>99.800003051758</ele>
        <time>2020-01-16T13:32:01Z</time>
      </trkpt>
      <trkpt lat="48.40264" lon="2.80433">
        <ele>99.800003051758</ele>
        <time>2020-01-16T13:32:06Z</time>
      </trkpt>
      <trkpt lat="48.40265" lon="2.80435">
        <ele>99.800003051758</ele>
        <time>2020-01-16T13:32:11Z</time>
      </trkpt>
      <trkpt lat="48.40265" lon="2.80439">
        <ele>99.800003051758</ele>
        <time>2020-01-16T13:32:16Z</time>
      </trkpt>
      <trkpt lat="48.40265" lon="2.80442">
        <ele>99.800003051758</ele>
        <time>2020-01-16T13:32:21Z</time>
      </trkpt>
      <trkpt lat="48.40267" lon="2.80443">
        <ele>99.800003051758</ele>
        <time>2020-01-16T13:32:26Z</time>
      </trkpt>
      <trkpt lat="48.4027" lon="2.80443">
        <ele>101.19999694824</ele>
        <time>2020-01-16T13:32:31Z</time>
      </trkpt>
      <trkpt lat="48.40275" lon="2.80444">
        <ele>101.80000305176</ele>
        <time>2020-01-16T13:32:36Z</time>
      </trkpt>
      <trkpt lat="48.40277" lon="2.80444">
        <ele>101.59999847412</ele>
        <time>2020-01-16T13:32:41Z</time>
      </trkpt>
      <trkpt lat="48.40279" lon="2.80443">
        <ele>101.19999694824</ele>
        <time>2020-01-16T13:32:46Z</time>
      </trkpt>
      <trkpt lat="48.40281" lon="2.80442">
        <ele>101.40000152588</ele>
        <time>2020-01-16T13:32:51Z</time>
      </trkpt>
      <trkpt lat="48.40283" lon="2.80442">
        <ele>101.59999847412</ele>
        <time>2020-01-16T13:32:56Z</time>
      </trkpt>
      <trkpt lat="48.40287" lon="2.80441">
        <ele>101.80000305176</ele>
        <time>2020-01-16T13:33:01Z</time>
      </trkpt>
      <trkpt lat="48.40288" lon="2.80438">
        <ele>101.80000305176</ele>
        <time>2020-01-16T13:33:06Z</time>
      </trkpt>
      <trkpt lat="48.40294" lon="2.80434">
        <ele>101.80000305176</ele>
        <time>2020-01-16T13:33:11Z</time>
      </trkpt>
      <trkpt lat="48.40303" lon="2.8043">
        <ele>101.59999847412</ele>
        <time>2020-01-16T13:33:16Z</time>
      </trkpt>
      <trkpt lat="48.40309" lon="2.80424">
        <ele>101.40000152588</ele>
        <time>2020-01-16T13:33:21Z</time>
      </trkpt>
      <trkpt lat="48.40318" lon="2.80419">
        <ele>101.40000152588</ele>
        <time>2020-01-16T13:33:26Z</time>
      </trkpt>
      <trkpt lat="48.40326" lon="2.80416">
        <ele>101.59999847412</ele>
        <time>2020-01-16T13:33:31Z</time>
      </trkpt>
      <trkpt lat="48.40334" lon="2.80413">
        <ele>101.80000305176</ele>
        <time>2020-01-16T13:33:36Z</time>
      </trkpt>
      <trkpt lat="48.4034" lon="2.80408">
        <ele>102</ele>
        <time>2020-01-16T13:33:41Z</time>
      </trkpt>
      <trkpt lat="48.40348" lon="2.80402">
        <ele>102</ele>
        <time>2020-01-16T13:33:46Z</time>
      </trkpt>
      <trkpt lat="48.40353" lon="2.80398">
        <ele>102</ele>
        <time>2020-01-16T13:33:51Z</time>
      </trkpt>
      <trkpt lat="48.40357" lon="2.80395">
        <ele>102</ele>
        <time>2020-01-16T13:33:56Z</time>
      </trkpt>
      <trkpt lat="48.40363" lon="2.80394">
        <ele>102</ele>
        <time>2020-01-16T13:34:01Z</time>
      </trkpt>
      <trkpt lat="48.40368" lon="2.80392">
        <ele>102</ele>
        <time>2020-01-16T13:34:06Z</time>
      </trkpt>
      <trkpt lat="48.40373" lon="2.80391">
        <ele>102</ele>
        <time>2020-01-16T13:34:11Z</time>
      </trkpt>
      <trkpt lat="48.40379" lon="2.80387">
        <ele>102</ele>
        <time>2020-01-16T13:34:16Z</time>
      </trkpt>
      <trkpt lat="48.40385" lon="2.80383">
        <ele>101.59999847412</ele>
        <time>2020-01-16T13:34:21Z</time>
      </trkpt>
      <trkpt lat="48.40389" lon="2.80376">
        <ele>101.19999694824</ele>
        <time>2020-01-16T13:34:26Z</time>
      </trkpt>
      <trkpt lat="48.40393" lon="2.80368">
        <ele>100.59999847412</ele>
        <time>2020-01-16T13:34:31Z</time>
      </trkpt>
      <trkpt lat="48.40395" lon="2.80362">
        <ele>100.19999694824</ele>
        <time>2020-01-16T13:34:36Z</time>
      </trkpt>
      <trkpt lat="48.40399" lon="2.80359">
        <ele>100.19999694824</ele>
        <time>2020-01-16T13:34:41Z</time>
      </trkpt>
      <trkpt lat="48.40403" lon="2.80355">
        <ele>100</ele>
        <time>2020-01-16T13:34:46Z</time>
      </trkpt>
      <trkpt lat="48.40408" lon="2.80352">
        <ele>100</ele>
        <time>2020-01-16T13:34:51Z</time>
      </trkpt>
      <trkpt lat="48.40414" lon="2.80348">
        <ele>100</ele>
        <time>2020-01-16T13:34:56Z</time>
      </trkpt>
      <trkpt lat="48.40418" lon="2.80344">
        <ele>100.19999694824</ele>
        <time>2020-01-16T13:35:01Z</time>
      </trkpt>
      <trkpt lat="48.40422" lon="2.80342">
        <ele>100</ele>
        <time>2020-01-16T13:35:06Z</time>
      </trkpt>
      <trkpt lat="48.40427" lon="2.8034">
        <ele>100</ele>
        <time>2020-01-16T13:35:11Z</time>
      </trkpt>
      <trkpt lat="48.40432" lon="2.80337">
        <ele>99.800003051758</ele>
        <time>2020-01-16T13:35:16Z</time>
      </trkpt>
      <trkpt lat="48.40437" lon="2.80332">
        <ele>99.800003051758</ele>
        <time>2020-01-16T13:35:21Z</time>
      </trkpt>
      <trkpt lat="48.40438" lon="2.80326">
        <ele>100</ele>
        <time>2020-01-16T13:35:26Z</time>
      </trkpt>
      <trkpt lat="48.40438" lon="2.80318">
        <ele>99.599998474121</ele>
        <time>2020-01-16T13:35:31Z</time>
      </trkpt>
      <trkpt lat="48.40438" lon="2.80311">
        <ele>99.199996948242</ele>
        <time>2020-01-16T13:35:36Z</time>
      </trkpt>
      <trkpt lat="48.40442" lon="2.80306">
        <ele>99</ele>
        <time>2020-01-16T13:35:41Z</time>
      </trkpt>
      <trkpt lat="48.40445" lon="2.80301">
        <ele>99</ele>
        <time>2020-01-16T13:35:46Z</time>
      </trkpt>
      <trkpt lat="48.40453" lon="2.80297">
        <ele>99.199996948242</ele>
        <time>2020-01-16T13:35:51Z</time>
      </trkpt>
      <trkpt lat="48.40459" lon="2.80295">
        <ele>99.199996948242</ele>
        <time>2020-01-16T13:35:56Z</time>
      </trkpt>
      <trkpt lat="48.40465" lon="2.80292">
        <ele>99.199996948242</ele>
        <time>2020-01-16T13:36:01Z</time>
      </trkpt>
      <trkpt lat="48.40469" lon="2.80289">
        <ele>99.400001525879</ele>
        <time>2020-01-16T13:36:06Z</time>
      </trkpt>
      <trkpt lat="48.40473" lon="2.80285">
        <ele>99.400001525879</ele>
        <time>2020-01-16T13:36:11Z</time>
      </trkpt>
      <trkpt lat="48.40476" lon="2.80283">
        <ele>99.400001525879</ele>
        <time>2020-01-16T13:36:16Z</time>
      </trkpt>
      <trkpt lat="48.40479" lon="2.80281">
        <ele>99.199996948242</ele>
        <time>2020-01-16T13:36:21Z</time>
      </trkpt>
      <trkpt lat="48.40484" lon="2.80279">
        <ele>99.400001525879</ele>
        <time>2020-01-16T13:36:26Z</time>
      </trkpt>
      <trkpt lat="48.4049" lon="2.80277">
        <ele>99.599998474121</ele>
        <time>2020-01-16T13:36:31Z</time>
      </trkpt>
      <trkpt lat="48.40496" lon="2.80275">
        <ele>99.599998474121</ele>
        <time>2020-01-16T13:36:36Z</time>
      </trkpt>
      <trkpt lat="48.40501" lon="2.80273">
        <ele>100</ele>
        <time>2020-01-16T13:36:41Z</time>
      </trkpt>
      <trkpt lat="48.40505" lon="2.80272">
        <ele>100</ele>
        <time>2020-01-16T13:36:46Z</time>
      </trkpt>
      <trkpt lat="48.4051" lon="2.80271">
        <ele>99.800003051758</ele>
        <time>2020-01-16T13:36:51Z</time>
      </trkpt>
      <trkpt lat="48.40517" lon="2.8027">
        <ele>99.800003051758</ele>
        <time>2020-01-16T13:36:56Z</time>
      </trkpt>
      <trkpt lat="48.40524" lon="2.80268">
        <ele>99.800003051758</ele>
        <time>2020-01-16T13:37:01Z</time>
      </trkpt>
      <trkpt lat="48.40529" lon="2.80265">
        <ele>100.19999694824</ele>
        <time>2020-01-16T13:37:06Z</time>
      </trkpt>
      <trkpt lat="48.40535" lon="2.80263">
        <ele>100.19999694824</ele>
        <time>2020-01-16T13:37:11Z</time>
      </trkpt>
      <trkpt lat="48.40539" lon="2.8026">
        <ele>100.59999847412</ele>
        <time>2020-01-16T13:37:16Z</time>
      </trkpt>
      <trkpt lat="48.40545" lon="2.80256">
        <ele>100.80000305176</ele>
        <time>2020-01-16T13:37:21Z</time>
      </trkpt>
      <trkpt lat="48.4055" lon="2.80253">
        <ele>101</ele>
        <time>2020-01-16T13:37:26Z</time>
      </trkpt>
      <trkpt lat="48.40556" lon="2.80251">
        <ele>100.80000305176</ele>
        <time>2020-01-16T13:37:31Z</time>
      </trkpt>
      <trkpt lat="48.40563" lon="2.80249">
        <ele>100.80000305176</ele>
        <time>2020-01-16T13:37:36Z</time>
      </trkpt>
      <trkpt lat="48.40568" lon="2.8025">
        <ele>100.59999847412</ele>
        <time>2020-01-16T13:37:41Z</time>
      </trkpt>
      <trkpt lat="48.40573" lon="2.80251">
        <ele>100.40000152588</ele>
        <time>2020-01-16T13:37:46Z</time>
      </trkpt>
      <trkpt lat="48.40578" lon="2.80247">
        <ele>100</ele>
        <time>2020-01-16T13:37:51Z</time>
      </trkpt>
      <trkpt lat="48.40582" lon="2.80239">
        <ele>99.599998474121</ele>
        <time>2020-01-16T13:37:56Z</time>
      </trkpt>
      <trkpt lat="48.40585" lon="2.80232">
        <ele>99.599998474121</ele>
        <time>2020-01-16T13:38:01Z</time>
      </trkpt>
      <trkpt lat="48.40592" lon="2.80228">
        <ele>100</ele>
        <time>2020-01-16T13:38:06Z</time>
      </trkpt>
      <trkpt lat="48.40596" lon="2.80226">
        <ele>100.19999694824</ele>
        <time>2020-01-16T13:38:11Z</time>
      </trkpt>
      <trkpt lat="48.406" lon="2.80222">
        <ele>100.40000152588</ele>
        <time>2020-01-16T13:38:16Z</time>
      </trkpt>
      <trkpt lat="48.40603" lon="2.80219">
        <ele>100.59999847412</ele>
        <time>2020-01-16T13:38:21Z</time>
      </trkpt>
      <trkpt lat="48.40606" lon="2.80217">
        <ele>100.40000152588</ele>
        <time>2020-01-16T13:38:26Z</time>
      </trkpt>
      <trkpt lat="48.4061" lon="2.80214">
        <ele>100.40000152588</ele>
        <time>2020-01-16T13:38:31Z</time>
      </trkpt>
      <trkpt lat="48.40616" lon="2.80209">
        <ele>100.40000152588</ele>
        <time>2020-01-16T13:38:36Z</time>
      </trkpt>
      <trkpt lat="48.40622" lon="2.80205">
        <ele>100.19999694824</ele>
        <time>2020-01-16T13:38:41Z</time>
      </trkpt>
      <trkpt lat="48.40626" lon="2.802">
        <ele>100.19999694824</ele>
        <time>2020-01-16T13:38:46Z</time>
      </trkpt>
      <trkpt lat="48.40631" lon="2.80196">
        <ele>100.19999694824</ele>
        <time>2020-01-16T13:38:51Z</time>
      </trkpt>
      <trkpt lat="48.40636" lon="2.80194">
        <ele>100.19999694824</ele>
        <time>2020-01-16T13:38:56Z</time>
      </trkpt>
      <trkpt lat="48.40643" lon="2.80195">
        <ele>100.19999694824</ele>
        <time>2020-01-16T13:39:01Z</time>
      </trkpt>
      <trkpt lat="48.40649" lon="2.80196">
        <ele>100.40000152588</ele>
        <time>2020-01-16T13:39:06Z</time>
      </trkpt>
      <trkpt lat="48.40652" lon="2.80202">
        <ele>100.59999847412</ele>
        <time>2020-01-16T13:39:11Z</time>
      </trkpt>
      <trkpt lat="48.40658" lon="2.80204">
        <ele>100.80000305176</ele>
        <time>2020-01-16T13:39:16Z</time>
      </trkpt>
      <trkpt lat="48.40665" lon="2.80206">
        <ele>101</ele>
        <time>2020-01-16T13:39:21Z</time>
      </trkpt>
      <trkpt lat="48.40671" lon="2.80208">
        <ele>101.19999694824</ele>
        <time>2020-01-16T13:39:26Z</time>
      </trkpt>
      <trkpt lat="48.40675" lon="2.80211">
        <ele>101.19999694824</ele>
        <time>2020-01-16T13:39:31Z</time>
      </trkpt>
      <trkpt lat="48.40679" lon="2.80214">
        <ele>101.59999847412</ele>
        <time>2020-01-16T13:39:36Z</time>
      </trkpt>
      <trkpt lat="48.40684" lon="2.80217">
        <ele>102</ele>
        <time>2020-01-16T13:39:41Z</time>
      </trkpt>
      <trkpt lat="48.40688" lon="2.80223">
        <ele>102.59999847412</ele>
        <time>2020-01-16T13:39:46Z</time>
      </trkpt>
      <trkpt lat="48.40689" lon="2.80229">
        <ele>102.80000305176</ele>
        <time>2020-01-16T13:39:51Z</time>
      </trkpt>
      <trkpt lat="48.40692" lon="2.80235">
        <ele>103.19999694824</ele>
        <time>2020-01-16T13:39:56Z</time>
      </trkpt>
      <trkpt lat="48.40693" lon="2.80244">
        <ele>103.59999847412</ele>
        <time>2020-01-16T13:40:01Z</time>
      </trkpt>
      <trkpt lat="48.40697" lon="2.8025">
        <ele>104</ele>
        <time>2020-01-16T13:40:06Z</time>
      </trkpt>
      <trkpt lat="48.40697" lon="2.80257">
        <ele>104.80000305176</ele>
        <time>2020-01-16T13:40:11Z</time>
      </trkpt>
      <trkpt lat="48.407" lon="2.80261">
        <ele>105.19999694824</ele>
        <time>2020-01-16T13:40:16Z</time>
      </trkpt>
      <trkpt lat="48.40705" lon="2.80266">
        <ele>105.59999847412</ele>
        <time>2020-01-16T13:40:21Z</time>
      </trkpt>
      <trkpt lat="48.40709" lon="2.80274">
        <ele>105.80000305176</ele>
        <time>2020-01-16T13:40:26Z</time>
      </trkpt>
      <trkpt lat="48.40712" lon="2.80281">
        <ele>106.19999694824</ele>
        <time>2020-01-16T13:40:31Z</time>
      </trkpt>
      <trkpt lat="48.40712" lon="2.80289">
        <ele>106.19999694824</ele>
        <time>2020-01-16T13:40:36Z</time>
      </trkpt>
      <trkpt lat="48.40712" lon="2.80295">
        <ele>106.40000152588</ele>
        <time>2020-01-16T13:40:41Z</time>
      </trkpt>
      <trkpt lat="48.40715" lon="2.80297">
        <ele>107.19999694824</ele>
        <time>2020-01-16T13:40:46Z</time>
      </trkpt>
      <trkpt lat="48.40718" lon="2.80298">
        <ele>107.40000152588</ele>
        <time>2020-01-16T13:40:51Z</time>
      </trkpt>
      <trkpt lat="48.40724" lon="2.80295">
        <ele>107.80000305176</ele>
        <time>2020-01-16T13:40:56Z</time>
      </trkpt>
      <trkpt lat="48.40729" lon="2.80291">
        <ele>107.80000305176</ele>
        <time>2020-01-16T13:41:01Z</time>
      </trkpt>
      <trkpt lat="48.40733" lon="2.80289">
        <ele>108.19999694824</ele>
        <time>2020-01-16T13:41:06Z</time>
      </trkpt>
      <trkpt lat="48.40736" lon="2.80286">
        <ele>108.40000152588</ele>
        <time>2020-01-16T13:41:11Z</time>
      </trkpt>
      <trkpt lat="48.40739" lon="2.80282">
        <ele>108.59999847412</ele>
        <time>2020-01-16T13:41:16Z</time>
      </trkpt>
      <trkpt lat="48.40745" lon="2.80279">
        <ele>108.80000305176</ele>
        <time>2020-01-16T13:41:21Z</time>
      </trkpt>
      <trkpt lat="48.4075" lon="2.80274">
        <ele>109.19999694824</ele>
        <time>2020-01-16T13:41:26Z</time>
      </trkpt>
      <trkpt lat="48.40754" lon="2.80269">
        <ele>109.19999694824</ele>
        <time>2020-01-16T13:41:31Z</time>
      </trkpt>
      <trkpt lat="48.4076" lon="2.80265">
        <ele>109.40000152588</ele>
        <time>2020-01-16T13:41:36Z</time>
      </trkpt>
      <trkpt lat="48.40767" lon="2.80262">
        <ele>109.40000152588</ele>
        <time>2020-01-16T13:41:41Z</time>
      </trkpt>
      <trkpt lat="48.40773" lon="2.80258">
        <ele>109.40000152588</ele>
        <time>2020-01-16T13:41:46Z</time>
      </trkpt>
      <trkpt lat="48.4078" lon="2.80254">
        <ele>109.59999847412</ele>
        <time>2020-01-16T13:41:51Z</time>
      </trkpt>
      <trkpt lat="48.40785" lon="2.80252">
        <ele>109.80000305176</ele>
        <time>2020-01-16T13:41:56Z</time>
      </trkpt>
      <trkpt lat="48.4079" lon="2.80249">
        <ele>109.80000305176</ele>
        <time>2020-01-16T13:42:01Z</time>
      </trkpt>
      <trkpt lat="48.40794" lon="2.80246">
        <ele>109.59999847412</ele>
        <time>2020-01-16T13:42:06Z</time>
      </trkpt>
      <trkpt lat="48.40799" lon="2.80244">
        <ele>110</ele>
        <time>2020-01-16T13:42:11Z</time>
      </trkpt>
      <trkpt lat="48.40805" lon="2.80243">
        <ele>110.19999694824</ele>
        <time>2020-01-16T13:42:16Z</time>
      </trkpt>
      <trkpt lat="48.4081" lon="2.80242">
        <ele>110.59999847412</ele>
        <time>2020-01-16T13:42:21Z</time>
      </trkpt>
      <trkpt lat="48.40815" lon="2.80238">
        <ele>110.80000305176</ele>
        <time>2020-01-16T13:42:26Z</time>
      </trkpt>
      <trkpt lat="48.40822" lon="2.80232">
        <ele>111</ele>
        <time>2020-01-16T13:42:31Z</time>
      </trkpt>
      <trkpt lat="48.40825" lon="2.8023">
        <ele>111</ele>
        <time>2020-01-16T13:42:36Z</time>
      </trkpt>
      <trkpt lat="48.40829" lon="2.80229">
        <ele>111.19999694824</ele>
        <time>2020-01-16T13:42:41Z</time>
      </trkpt>
      <trkpt lat="48.40834" lon="2.80224">
        <ele>111.19999694824</ele>
        <time>2020-01-16T13:42:46Z</time>
      </trkpt>
      <trkpt lat="48.40839" lon="2.8022">
        <ele>111.19999694824</ele>
        <time>2020-01-16T13:42:51Z</time>
      </trkpt>
      <trkpt lat="48.40847" lon="2.80214">
        <ele>111.40000152588</ele>
        <time>2020-01-16T13:42:56Z</time>
      </trkpt>
      <trkpt lat="48.40855" lon="2.80208">
        <ele>111.40000152588</ele>
        <time>2020-01-16T13:43:01Z</time>
      </trkpt>
      <trkpt lat="48.40858" lon="2.802">
        <ele>111.40000152588</ele>
        <time>2020-01-16T13:43:06Z</time>
      </trkpt>
      <trkpt lat="48.40862" lon="2.80196">
        <ele>111.19999694824</ele>
        <time>2020-01-16T13:43:11Z</time>
      </trkpt>
      <trkpt lat="48.40866" lon="2.80193">
        <ele>111.19999694824</ele>
        <time>2020-01-16T13:43:16Z</time>
      </trkpt>
      <trkpt lat="48.4087" lon="2.80188">
        <ele>111.19999694824</ele>
        <time>2020-01-16T13:43:21Z</time>
      </trkpt>
      <trkpt lat="48.40876" lon="2.80182">
        <ele>111</ele>
        <time>2020-01-16T13:43:26Z</time>
      </trkpt>
      <trkpt lat="48.40881" lon="2.80175">
        <ele>111</ele>
        <time>2020-01-16T13:43:31Z</time>
      </trkpt>
      <trkpt lat="48.40884" lon="2.80165">
        <ele>110.40000152588</ele>
        <time>2020-01-16T13:43:36Z</time>
      </trkpt>
      <trkpt lat="48.40886" lon="2.80156">
        <ele>110.19999694824</ele>
        <time>2020-01-16T13:43:41Z</time>
      </trkpt>
      <trkpt lat="48.40888" lon="2.80148">
        <ele>110</ele>
        <time>2020-01-16T13:43:46Z</time>
      </trkpt>
      <trkpt lat="48.40889" lon="2.80139">
        <ele>109.80000305176</ele>
        <time>2020-01-16T13:43:51Z</time>
      </trkpt>
      <trkpt lat="48.40892" lon="2.80129">
        <ele>109.59999847412</ele>
        <time>2020-01-16T13:43:56Z</time>
      </trkpt>
      <trkpt lat="48.40897" lon="2.80121">
        <ele>109.80000305176</ele>
        <time>2020-01-16T13:44:01Z</time>
      </trkpt>
      <trkpt lat="48.409" lon="2.80114">
        <ele>109.80000305176</ele>
        <time>2020-01-16T13:44:06Z</time>
      </trkpt>
      <trkpt lat="48.40903" lon="2.80109">
        <ele>109.80000305176</ele>
        <time>2020-01-16T13:44:11Z</time>
      </trkpt>
      <trkpt lat="48.40908" lon="2.80104">
        <ele>109.59999847412</ele>
        <time>2020-01-16T13:44:16Z</time>
      </trkpt>
      <trkpt lat="48.40911" lon="2.80099">
        <ele>109.40000152588</ele>
        <time>2020-01-16T13:44:21Z</time>
      </trkpt>
      <trkpt lat="48.40914" lon="2.80095">
        <ele>109</ele>
        <time>2020-01-16T13:44:26Z</time>
      </trkpt>
      <trkpt lat="48.40918" lon="2.80091">
        <ele>108.59999847412</ele>
        <time>2020-01-16T13:44:31Z</time>
      </trkpt>
      <trkpt lat="48.40923" lon="2.80086">
        <ele>108.19999694824</ele>
        <time>2020-01-16T13:44:36Z</time>
      </trkpt>
      <trkpt lat="48.40928" lon="2.80082">
        <ele>108.19999694824</ele>
        <time>2020-01-16T13:44:41Z</time>
      </trkpt>
      <trkpt lat="48.40935" lon="2.80077">
        <ele>107.80000305176</ele>
        <time>2020-01-16T13:44:46Z</time>
      </trkpt>
      <trkpt lat="48.40944" lon="2.80071">
        <ele>107.19999694824</ele>
        <time>2020-01-16T13:44:51Z</time>
      </trkpt>
      <trkpt lat="48.40952" lon="2.80066">
        <ele>106.80000305176</ele>
        <time>2020-01-16T13:44:56Z</time>
      </trkpt>
      <trkpt lat="48.40958" lon="2.80062">
        <ele>106.19999694824</ele>
        <time>2020-01-16T13:45:01Z</time>
      </trkpt>
      <trkpt lat="48.40961" lon="2.80057">
        <ele>106</ele>
        <time>2020-01-16T13:45:06Z</time>
      </trkpt>
      <trkpt lat="48.40964" lon="2.80054">
        <ele>105.80000305176</ele>
        <time>2020-01-16T13:45:11Z</time>
      </trkpt>
      <trkpt lat="48.40972" lon="2.80052">
        <ele>105.80000305176</ele>
        <time>2020-01-16T13:45:16Z</time>
      </trkpt>
      <trkpt lat="48.40976" lon="2.80049">
        <ele>105.19999694824</ele>
        <time>2020-01-16T13:45:21Z</time>
      </trkpt>
      <trkpt lat="48.40981" lon="2.80045">
        <ele>105</ele>
        <time>2020-01-16T13:45:26Z</time>
      </trkpt>
      <trkpt lat="48.40986" lon="2.80039">
        <ele>104.80000305176</ele>
        <time>2020-01-16T13:45:31Z</time>
      </trkpt>
      <trkpt lat="48.4099" lon="2.80034">
        <ele>104.59999847412</ele>
        <time>2020-01-16T13:45:36Z</time>
      </trkpt>
      <trkpt lat="48.40994" lon="2.8003">
        <ele>104.40000152588</ele>
        <time>2020-01-16T13:45:41Z</time>
      </trkpt>
      <trkpt lat="48.41" lon="2.80026">
        <ele>104</ele>
        <time>2020-01-16T13:45:46Z</time>
      </trkpt>
      <trkpt lat="48.41001" lon="2.80018">
        <ele>103.80000305176</ele>
        <time>2020-01-16T13:45:51Z</time>
      </trkpt>
      <trkpt lat="48.41003" lon="2.8001">
        <ele>103.59999847412</ele>
        <time>2020-01-16T13:45:56Z</time>
      </trkpt>
      <trkpt lat="48.41005" lon="2.80004">
        <ele>103.59999847412</ele>
        <time>2020-01-16T13:46:01Z</time>
      </trkpt>
      <trkpt lat="48.41007" lon="2.79997">
        <ele>103.40000152588</ele>
        <time>2020-01-16T13:46:06Z</time>
      </trkpt>
      <trkpt lat="48.41014" lon="2.7999">
        <ele>103.19999694824</ele>
        <time>2020-01-16T13:46:11Z</time>
      </trkpt>
      <trkpt lat="48.41017" lon="2.79981">
        <ele>102.80000305176</ele>
        <time>2020-01-16T13:46:16Z</time>
      </trkpt>
      <trkpt lat="48.41018" lon="2.7997">
        <ele>102.59999847412</ele>
        <time>2020-01-16T13:46:21Z</time>
      </trkpt>
      <trkpt lat="48.41018" lon="2.79963">
        <ele>102.19999694824</ele>
        <time>2020-01-16T13:46:26Z</time>
      </trkpt>
      <trkpt lat="48.41022" lon="2.79958">
        <ele>102</ele>
        <time>2020-01-16T13:46:31Z</time>
      </trkpt>
      <trkpt lat="48.41025" lon="2.79951">
        <ele>102</ele>
        <time>2020-01-16T13:46:36Z</time>
      </trkpt>
      <trkpt lat="48.41028" lon="2.79945">
        <ele>102</ele>
        <time>2020-01-16T13:46:41Z</time>
      </trkpt>
      <trkpt lat="48.41031" lon="2.79938">
        <ele>102</ele>
        <time>2020-01-16T13:46:46Z</time>
      </trkpt>
      <trkpt lat="48.41038" lon="2.79933">
        <ele>102</ele>
        <time>2020-01-16T13:46:51Z</time>
      </trkpt>
      <trkpt lat="48.41044" lon="2.79929">
        <ele>101.80000305176</ele>
        <time>2020-01-16T13:46:56Z</time>
      </trkpt>
      <trkpt lat="48.41048" lon="2.79924">
        <ele>101.80000305176</ele>
        <time>2020-01-16T13:47:01Z</time>
      </trkpt>
      <trkpt lat="48.4105" lon="2.79918">
        <ele>102</ele>
        <time>2020-01-16T13:47:06Z</time>
      </trkpt>
      <trkpt lat="48.41053" lon="2.79914">
        <ele>102</ele>
        <time>2020-01-16T13:47:11Z</time>
      </trkpt>
      <trkpt lat="48.41051" lon="2.79909">
        <ele>102</ele>
        <time>2020-01-16T13:47:16Z</time>
      </trkpt>
      <trkpt lat="48.4105" lon="2.79908">
        <ele>102.19999694824</ele>
        <time>2020-01-16T13:47:21Z</time>
      </trkpt>
      <trkpt lat="48.4105" lon="2.79908">
        <ele>102.19999694824</ele>
        <time>2020-01-16T13:47:26Z</time>
      </trkpt>
      <trkpt lat="48.41051" lon="2.79907">
        <ele>102</ele>
        <time>2020-01-16T13:47:31Z</time>
      </trkpt>
      <trkpt lat="48.41055" lon="2.79906">
        <ele>102</ele>
        <time>2020-01-16T13:47:36Z</time>
      </trkpt>
      <trkpt lat="48.41061" lon="2.79907">
        <ele>102</ele>
        <time>2020-01-16T13:47:41Z</time>
      </trkpt>
      <trkpt lat="48.41065" lon="2.79909">
        <ele>101.80000305176</ele>
        <time>2020-01-16T13:47:46Z</time>
      </trkpt>
      <trkpt lat="48.41066" lon="2.79908">
        <ele>101.80000305176</ele>
        <time>2020-01-16T13:47:51Z</time>
      </trkpt>
      <trkpt lat="48.41064" lon="2.79908">
        <ele>101.80000305176</ele>
        <time>2020-01-16T13:47:56Z</time>
      </trkpt>
      <trkpt lat="48.41063" lon="2.79907">
        <ele>101.80000305176</ele>
        <time>2020-01-16T13:48:01Z</time>
      </trkpt>
      <trkpt lat="48.41063" lon="2.79907">
        <ele>101.80000305176</ele>
        <time>2020-01-16T13:48:06Z</time>
      </trkpt>
      <trkpt lat="48.41064" lon="2.79909">
        <ele>101.80000305176</ele>
        <time>2020-01-16T13:48:11Z</time>
      </trkpt>
      <trkpt lat="48.41066" lon="2.79912">
        <ele>101.80000305176</ele>
        <time>2020-01-16T13:48:16Z</time>
      </trkpt>
      <trkpt lat="48.41061" lon="2.7991">
        <ele>101.80000305176</ele>
        <time>2020-01-16T13:48:21Z</time>
      </trkpt>
      <trkpt lat="48.41061" lon="2.7991">
        <ele>101.80000305176</ele>
        <time>2020-01-16T13:48:26Z</time>
      </trkpt>
      <trkpt lat="48.41061" lon="2.79909">
        <ele>101.80000305176</ele>
        <time>2020-01-16T13:48:31Z</time>
      </trkpt>
      <trkpt lat="48.41062" lon="2.79908">
        <ele>101.80000305176</ele>
        <time>2020-01-16T13:48:36Z</time>
      </trkpt>
      <trkpt lat="48.4106" lon="2.79906">
        <ele>101.80000305176</ele>
        <time>2020-01-16T13:48:41Z</time>
      </trkpt>
      <trkpt lat="48.41061" lon="2.79906">
        <ele>101.80000305176</ele>
        <time>2020-01-16T13:48:46Z</time>
      </trkpt>
      <trkpt lat="48.41062" lon="2.79905">
        <ele>101.80000305176</ele>
        <time>2020-01-16T13:48:51Z</time>
      </trkpt>
      <trkpt lat="48.41064" lon="2.79906">
        <ele>101.80000305176</ele>
        <time>2020-01-16T13:48:56Z</time>
      </trkpt>
      <trkpt lat="48.41064" lon="2.79906">
        <ele>101.80000305176</ele>
        <time>2020-01-16T13:49:01Z</time>
      </trkpt>
      <trkpt lat="48.41064" lon="2.79905">
        <ele>101.80000305176</ele>
        <time>2020-01-16T13:49:06Z</time>
      </trkpt>
      <trkpt lat="48.41065" lon="2.79905">
        <ele>101.80000305176</ele>
        <time>2020-01-16T13:49:11Z</time>
      </trkpt>
      <trkpt lat="48.41066" lon="2.79905">
        <ele>101.80000305176</ele>
        <time>2020-01-16T13:49:16Z</time>
      </trkpt>
      <trkpt lat="48.41064" lon="2.79904">
        <ele>101.80000305176</ele>
        <time>2020-01-16T13:49:21Z</time>
      </trkpt>
      <trkpt lat="48.41065" lon="2.79906">
        <ele>101.80000305176</ele>
        <time>2020-01-16T13:49:26Z</time>
      </trkpt>
      <trkpt lat="48.41066" lon="2.79906">
        <ele>101.80000305176</ele>
        <time>2020-01-16T13:49:31Z</time>
      </trkpt>
      <trkpt lat="48.41067" lon="2.79906">
        <ele>101.80000305176</ele>
        <time>2020-01-16T13:49:36Z</time>
      </trkpt>
      <trkpt lat="48.41068" lon="2.79905">
        <ele>101.80000305176</ele>
        <time>2020-01-16T13:49:41Z</time>
      </trkpt>
      <trkpt lat="48.41067" lon="2.79905">
        <ele>101.80000305176</ele>
        <time>2020-01-16T13:49:46Z</time>
      </trkpt>
      <trkpt lat="48.41068" lon="2.79907">
        <ele>101.80000305176</ele>
        <time>2020-01-16T13:49:51Z</time>
      </trkpt>
      <trkpt lat="48.41069" lon="2.79908">
        <ele>101.80000305176</ele>
        <time>2020-01-16T13:49:56Z</time>
      </trkpt>
      <trkpt lat="48.41068" lon="2.79908">
        <ele>101.80000305176</ele>
        <time>2020-01-16T13:50:01Z</time>
      </trkpt>
      <trkpt lat="48.41066" lon="2.79909">
        <ele>101.80000305176</ele>
        <time>2020-01-16T13:50:06Z</time>
      </trkpt>
      <trkpt lat="48.41064" lon="2.79908">
        <ele>102.40000152588</ele>
        <time>2020-01-16T13:50:11Z</time>
      </trkpt>
      <trkpt lat="48.41065" lon="2.79907">
        <ele>102.40000152588</ele>
        <time>2020-01-16T13:50:16Z</time>
      </trkpt>
      <trkpt lat="48.41064" lon="2.79907">
        <ele>102.40000152588</ele>
        <time>2020-01-16T13:50:21Z</time>
      </trkpt>
      <trkpt lat="48.41065" lon="2.7991">
        <ele>102.59999847412</ele>
        <time>2020-01-16T13:50:26Z</time>
      </trkpt>
      <trkpt lat="48.41067" lon="2.79912">
        <ele>102.59999847412</ele>
        <time>2020-01-16T13:50:31Z</time>
      </trkpt>
      <trkpt lat="48.41069" lon="2.79913">
        <ele>102.59999847412</ele>
        <time>2020-01-16T13:50:36Z</time>
      </trkpt>
      <trkpt lat="48.41072" lon="2.79915">
        <ele>103</ele>
        <time>2020-01-16T13:50:41Z</time>
      </trkpt>
      <trkpt lat="48.41074" lon="2.79919">
        <ele>103.19999694824</ele>
        <time>2020-01-16T13:50:46Z</time>
      </trkpt>
      <trkpt lat="48.41078" lon="2.79924">
        <ele>103.59999847412</ele>
        <time>2020-01-16T13:50:51Z</time>
      </trkpt>
      <trkpt lat="48.41083" lon="2.79931">
        <ele>104</ele>
        <time>2020-01-16T13:50:56Z</time>
      </trkpt>
      <trkpt lat="48.41087" lon="2.79936">
        <ele>104.19999694824</ele>
        <time>2020-01-16T13:51:01Z</time>
      </trkpt>
      <trkpt lat="48.4109" lon="2.79939">
        <ele>104.40000152588</ele>
        <time>2020-01-16T13:51:06Z</time>
      </trkpt>
      <trkpt lat="48.41092" lon="2.79939">
        <ele>104.80000305176</ele>
        <time>2020-01-16T13:51:11Z</time>
      </trkpt>
      <trkpt lat="48.41097" lon="2.79941">
        <ele>105</ele>
        <time>2020-01-16T13:51:16Z</time>
      </trkpt>
      <trkpt lat="48.41101" lon="2.79942">
        <ele>105.19999694824</ele>
        <time>2020-01-16T13:51:21Z</time>
      </trkpt>
      <trkpt lat="48.41104" lon="2.79943">
        <ele>105.40000152588</ele>
        <time>2020-01-16T13:51:26Z</time>
      </trkpt>
      <trkpt lat="48.41108" lon="2.79944">
        <ele>105.59999847412</ele>
        <time>2020-01-16T13:51:31Z</time>
      </trkpt>
      <trkpt lat="48.41109" lon="2.79946">
        <ele>106</ele>
        <time>2020-01-16T13:51:36Z</time>
      </trkpt>
      <trkpt lat="48.41114" lon="2.79949">
        <ele>106.19999694824</ele>
        <time>2020-01-16T13:51:41Z</time>
      </trkpt>
      <trkpt lat="48.4112" lon="2.7995">
        <ele>106.40000152588</ele>
        <time>2020-01-16T13:51:46Z</time>
      </trkpt>
      <trkpt lat="48.41124" lon="2.7995">
        <ele>106.80000305176</ele>
        <time>2020-01-16T13:51:51Z</time>
      </trkpt>
      <trkpt lat="48.4113" lon="2.79954">
        <ele>106.80000305176</ele>
        <time>2020-01-16T13:51:56Z</time>
      </trkpt>
      <trkpt lat="48.41136" lon="2.79958">
        <ele>107.19999694824</ele>
        <time>2020-01-16T13:52:01Z</time>
      </trkpt>
      <trkpt lat="48.41143" lon="2.79962">
        <ele>107.19999694824</ele>
        <time>2020-01-16T13:52:06Z</time>
      </trkpt>
      <trkpt lat="48.41146" lon="2.79968">
        <ele>107.80000305176</ele>
        <time>2020-01-16T13:52:11Z</time>
      </trkpt>
      <trkpt lat="48.41149" lon="2.7997">
        <ele>107.80000305176</ele>
        <time>2020-01-16T13:52:16Z</time>
      </trkpt>
      <trkpt lat="48.41152" lon="2.79974">
        <ele>108</ele>
        <time>2020-01-16T13:52:21Z</time>
      </trkpt>
      <trkpt lat="48.41155" lon="2.79976">
        <ele>108</ele>
        <time>2020-01-16T13:52:26Z</time>
      </trkpt>
      <trkpt lat="48.41159" lon="2.79978">
        <ele>108.19999694824</ele>
        <time>2020-01-16T13:52:31Z</time>
      </trkpt>
      <trkpt lat="48.41165" lon="2.79981">
        <ele>108.40000152588</ele>
        <time>2020-01-16T13:52:36Z</time>
      </trkpt>
      <trkpt lat="48.41167" lon="2.79985">
        <ele>108.40000152588</ele>
        <time>2020-01-16T13:52:41Z</time>
      </trkpt>
      <trkpt lat="48.4117" lon="2.79989">
        <ele>108.59999847412</ele>
        <time>2020-01-16T13:52:46Z</time>
      </trkpt>
      <trkpt lat="48.41174" lon="2.79991">
        <ele>109</ele>
        <time>2020-01-16T13:52:51Z</time>
      </trkpt>
      <trkpt lat="48.41179" lon="2.79996">
        <ele>109</ele>
        <time>2020-01-16T13:52:56Z</time>
      </trkpt>
      <trkpt lat="48.41183" lon="2.8">
        <ele>109.19999694824</ele>
        <time>2020-01-16T13:53:01Z</time>
      </trkpt>
      <trkpt lat="48.41187" lon="2.80005">
        <ele>109.40000152588</ele>
        <time>2020-01-16T13:53:06Z</time>
      </trkpt>
      <trkpt lat="48.41193" lon="2.8001">
        <ele>109.80000305176</ele>
        <time>2020-01-16T13:53:11Z</time>
      </trkpt>
      <trkpt lat="48.41197" lon="2.80016">
        <ele>110</ele>
        <time>2020-01-16T13:53:16Z</time>
      </trkpt>
      <trkpt lat="48.41198" lon="2.80022">
        <ele>110</ele>
        <time>2020-01-16T13:53:21Z</time>
      </trkpt>
      <trkpt lat="48.41197" lon="2.8003">
        <ele>110.40000152588</ele>
        <time>2020-01-16T13:53:26Z</time>
      </trkpt>
      <trkpt lat="48.41193" lon="2.80036">
        <ele>110.80000305176</ele>
        <time>2020-01-16T13:53:31Z</time>
      </trkpt>
      <trkpt lat="48.4119" lon="2.8004">
        <ele>111</ele>
        <time>2020-01-16T13:53:36Z</time>
      </trkpt>
      <trkpt lat="48.41186" lon="2.80046">
        <ele>111.19999694824</ele>
        <time>2020-01-16T13:53:41Z</time>
      </trkpt>
      <trkpt lat="48.41183" lon="2.80052">
        <ele>111.40000152588</ele>
        <time>2020-01-16T13:53:46Z</time>
      </trkpt>
      <trkpt lat="48.4118" lon="2.80059">
        <ele>111.59999847412</ele>
        <time>2020-01-16T13:53:51Z</time>
      </trkpt>
      <trkpt lat="48.41179" lon="2.80064">
        <ele>112</ele>
        <time>2020-01-16T13:53:56Z</time>
      </trkpt>
      <trkpt lat="48.41178" lon="2.8007">
        <ele>112</ele>
        <time>2020-01-16T13:54:01Z</time>
      </trkpt>
      <trkpt lat="48.41177" lon="2.80076">
        <ele>112.40000152588</ele>
        <time>2020-01-16T13:54:06Z</time>
      </trkpt>
      <trkpt lat="48.41174" lon="2.80082">
        <ele>112.80000305176</ele>
        <time>2020-01-16T13:54:11Z</time>
      </trkpt>
      <trkpt lat="48.41172" lon="2.80085">
        <ele>112.80000305176</ele>
        <time>2020-01-16T13:54:16Z</time>
      </trkpt>
      <trkpt lat="48.41166" lon="2.80092">
        <ele>112.59999847412</ele>
        <time>2020-01-16T13:54:21Z</time>
      </trkpt>
      <trkpt lat="48.41161" lon="2.80096">
        <ele>112.59999847412</ele>
        <time>2020-01-16T13:54:26Z</time>
      </trkpt>
      <trkpt lat="48.41158" lon="2.801">
        <ele>112.59999847412</ele>
        <time>2020-01-16T13:54:31Z</time>
      </trkpt>
      <trkpt lat="48.41154" lon="2.80103">
        <ele>112.80000305176</ele>
        <time>2020-01-16T13:54:36Z</time>
      </trkpt>
      <trkpt lat="48.41152" lon="2.80111">
        <ele>113</ele>
        <time>2020-01-16T13:54:41Z</time>
      </trkpt>
      <trkpt lat="48.41147" lon="2.80118">
        <ele>113</ele>
        <time>2020-01-16T13:54:46Z</time>
      </trkpt>
      <trkpt lat="48.41144" lon="2.80123">
        <ele>113</ele>
        <time>2020-01-16T13:54:51Z</time>
      </trkpt>
      <trkpt lat="48.4114" lon="2.80128">
        <ele>112.80000305176</ele>
        <time>2020-01-16T13:54:56Z</time>
      </trkpt>
      <trkpt lat="48.41138" lon="2.80136">
        <ele>112.80000305176</ele>
        <time>2020-01-16T13:55:01Z</time>
      </trkpt>
      <trkpt lat="48.41134" lon="2.80143">
        <ele>112.80000305176</ele>
        <time>2020-01-16T13:55:06Z</time>
      </trkpt>
      <trkpt lat="48.41134" lon="2.80148">
        <ele>112.59999847412</ele>
        <time>2020-01-16T13:55:11Z</time>
      </trkpt>
      <trkpt lat="48.41133" lon="2.80153">
        <ele>112.80000305176</ele>
        <time>2020-01-16T13:55:16Z</time>
      </trkpt>
      <trkpt lat="48.41132" lon="2.8016">
        <ele>113</ele>
        <time>2020-01-16T13:55:21Z</time>
      </trkpt>
      <trkpt lat="48.4113" lon="2.80166">
        <ele>112.80000305176</ele>
        <time>2020-01-16T13:55:26Z</time>
      </trkpt>
      <trkpt lat="48.41128" lon="2.80173">
        <ele>112.80000305176</ele>
        <time>2020-01-16T13:55:31Z</time>
      </trkpt>
      <trkpt lat="48.41125" lon="2.80177">
        <ele>112.59999847412</ele>
        <time>2020-01-16T13:55:36Z</time>
      </trkpt>
      <trkpt lat="48.41123" lon="2.80183">
        <ele>112.59999847412</ele>
        <time>2020-01-16T13:55:41Z</time>
      </trkpt>
      <trkpt lat="48.4112" lon="2.80188">
        <ele>112.80000305176</ele>
        <time>2020-01-16T13:55:46Z</time>
      </trkpt>
      <trkpt lat="48.41117" lon="2.80194">
        <ele>112.80000305176</ele>
        <time>2020-01-16T13:55:51Z</time>
      </trkpt>
      <trkpt lat="48.41115" lon="2.80202">
        <ele>113</ele>
        <time>2020-01-16T13:55:56Z</time>
      </trkpt>
      <trkpt lat="48.41112" lon="2.80209">
        <ele>113</ele>
        <time>2020-01-16T13:56:01Z</time>
      </trkpt>
      <trkpt lat="48.41109" lon="2.80217">
        <ele>113</ele>
        <time>2020-01-16T13:56:06Z</time>
      </trkpt>
      <trkpt lat="48.41103" lon="2.80223">
        <ele>112.59999847412</ele>
        <time>2020-01-16T13:56:11Z</time>
      </trkpt>
      <trkpt lat="48.41098" lon="2.80231">
        <ele>112.59999847412</ele>
        <time>2020-01-16T13:56:16Z</time>
      </trkpt>
      <trkpt lat="48.41099" lon="2.80238">
        <ele>112.59999847412</ele>
        <time>2020-01-16T13:56:21Z</time>
      </trkpt>
      <trkpt lat="48.41099" lon="2.80246">
        <ele>112.80000305176</ele>
        <time>2020-01-16T13:56:26Z</time>
      </trkpt>
      <trkpt lat="48.41097" lon="2.80254">
        <ele>113</ele>
        <time>2020-01-16T13:56:31Z</time>
      </trkpt>
      <trkpt lat="48.41093" lon="2.80261">
        <ele>113.19999694824</ele>
        <time>2020-01-16T13:56:36Z</time>
      </trkpt>
      <trkpt lat="48.41089" lon="2.80269">
        <ele>113.40000152588</ele>
        <time>2020-01-16T13:56:41Z</time>
      </trkpt>
      <trkpt lat="48.41084" lon="2.80276">
        <ele>113.40000152588</ele>
        <time>2020-01-16T13:56:46Z</time>
      </trkpt>
      <trkpt lat="48.41083" lon="2.80284">
        <ele>113.19999694824</ele>
        <time>2020-01-16T13:56:51Z</time>
      </trkpt>
      <trkpt lat="48.41079" lon="2.80292">
        <ele>113</ele>
        <time>2020-01-16T13:56:56Z</time>
      </trkpt>
      <trkpt lat="48.41076" lon="2.80298">
        <ele>113.19999694824</ele>
        <time>2020-01-16T13:57:01Z</time>
      </trkpt>
      <trkpt lat="48.41078" lon="2.80306">
        <ele>113.19999694824</ele>
        <time>2020-01-16T13:57:06Z</time>
      </trkpt>
      <trkpt lat="48.41078" lon="2.80312">
        <ele>113.19999694824</ele>
        <time>2020-01-16T13:57:11Z</time>
      </trkpt>
      <trkpt lat="48.41076" lon="2.8032">
        <ele>113.19999694824</ele>
        <time>2020-01-16T13:57:16Z</time>
      </trkpt>
      <trkpt lat="48.41075" lon="2.80326">
        <ele>113.19999694824</ele>
        <time>2020-01-16T13:57:21Z</time>
      </trkpt>
      <trkpt lat="48.41073" lon="2.80333">
        <ele>113.19999694824</ele>
        <time>2020-01-16T13:57:26Z</time>
      </trkpt>
      <trkpt lat="48.41069" lon="2.80339">
        <ele>113</ele>
        <time>2020-01-16T13:57:31Z</time>
      </trkpt>
      <trkpt lat="48.41065" lon="2.80344">
        <ele>113</ele>
        <time>2020-01-16T13:57:36Z</time>
      </trkpt>
      <trkpt lat="48.41061" lon="2.80348">
        <ele>113.19999694824</ele>
        <time>2020-01-16T13:57:41Z</time>
      </trkpt>
      <trkpt lat="48.41059" lon="2.80353">
        <ele>113.19999694824</ele>
        <time>2020-01-16T13:57:46Z</time>
      </trkpt>
      <trkpt lat="48.41055" lon="2.80361">
        <ele>113</ele>
        <time>2020-01-16T13:57:51Z</time>
      </trkpt>
      <trkpt lat="48.41051" lon="2.80367">
        <ele>113</ele>
        <time>2020-01-16T13:57:56Z</time>
      </trkpt>
      <trkpt lat="48.41046" lon="2.8037">
        <ele>113</ele>
        <time>2020-01-16T13:58:01Z</time>
      </trkpt>
      <trkpt lat="48.41042" lon="2.80377">
        <ele>113</ele>
        <time>2020-01-16T13:58:06Z</time>
      </trkpt>
      <trkpt lat="48.41037" lon="2.80384">
        <ele>113</ele>
        <time>2020-01-16T13:58:11Z</time>
      </trkpt>
      <trkpt lat="48.41036" lon="2.80389">
        <ele>113</ele>
        <time>2020-01-16T13:58:16Z</time>
      </trkpt>
      <trkpt lat="48.41033" lon="2.80394">
        <ele>112.80000305176</ele>
        <time>2020-01-16T13:58:21Z</time>
      </trkpt>
      <trkpt lat="48.41032" lon="2.80403">
        <ele>113.19999694824</ele>
        <time>2020-01-16T13:58:26Z</time>
      </trkpt>
      <trkpt lat="48.41031" lon="2.80411">
        <ele>113.40000152588</ele>
        <time>2020-01-16T13:58:31Z</time>
      </trkpt>
      <trkpt lat="48.4103" lon="2.80418">
        <ele>113.40000152588</ele>
        <time>2020-01-16T13:58:36Z</time>
      </trkpt>
      <trkpt lat="48.4103" lon="2.80427">
        <ele>113.40000152588</ele>
        <time>2020-01-16T13:58:41Z</time>
      </trkpt>
      <trkpt lat="48.41029" lon="2.80436">
        <ele>113.40000152588</ele>
        <time>2020-01-16T13:58:46Z</time>
      </trkpt>
      <trkpt lat="48.41029" lon="2.80443">
        <ele>113.59999847412</ele>
        <time>2020-01-16T13:58:51Z</time>
      </trkpt>
      <trkpt lat="48.41027" lon="2.80448">
        <ele>113.80000305176</ele>
        <time>2020-01-16T13:58:56Z</time>
      </trkpt>
      <trkpt lat="48.41025" lon="2.80453">
        <ele>113.80000305176</ele>
        <time>2020-01-16T13:59:01Z</time>
      </trkpt>
      <trkpt lat="48.41023" lon="2.80458">
        <ele>113.80000305176</ele>
        <time>2020-01-16T13:59:06Z</time>
      </trkpt>
      <trkpt lat="48.4102" lon="2.8046">
        <ele>113.80000305176</ele>
        <time>2020-01-16T13:59:11Z</time>
      </trkpt>
      <trkpt lat="48.41018" lon="2.80461">
        <ele>113.80000305176</ele>
        <time>2020-01-16T13:59:16Z</time>
      </trkpt>
      <trkpt lat="48.41017" lon="2.80464">
        <ele>113.80000305176</ele>
        <time>2020-01-16T13:59:21Z</time>
      </trkpt>
      <trkpt lat="48.41016" lon="2.80466">
        <ele>114.19999694824</ele>
        <time>2020-01-16T13:59:26Z</time>
      </trkpt>
      <trkpt lat="48.41015" lon="2.80469">
        <ele>114.59999847412</ele>
        <time>2020-01-16T13:59:31Z</time>
      </trkpt>
      <trkpt lat="48.41014" lon="2.80471">
        <ele>115</ele>
        <time>2020-01-16T13:59:36Z</time>
      </trkpt>
      <trkpt lat="48.41007" lon="2.80478">
        <ele>114.59999847412</ele>
        <time>2020-01-16T13:59:41Z</time>
      </trkpt>
      <trkpt lat="48.41" lon="2.80485">
        <ele>114.59999847412</ele>
        <time>2020-01-16T13:59:46Z</time>
      </trkpt>
      <trkpt lat="48.40996" lon="2.80491">
        <ele>114.59999847412</ele>
        <time>2020-01-16T13:59:51Z</time>
      </trkpt>
      <trkpt lat="48.40995" lon="2.80502">
        <ele>115</ele>
        <time>2020-01-16T13:59:56Z</time>
      </trkpt>
      <trkpt lat="48.40992" lon="2.80511">
        <ele>115.19999694824</ele>
        <time>2020-01-16T14:00:01Z</time>
      </trkpt>
      <trkpt lat="48.40991" lon="2.80518">
        <ele>115</ele>
        <time>2020-01-16T14:00:06Z</time>
      </trkpt>
      <trkpt lat="48.40992" lon="2.80525">
        <ele>114.80000305176</ele>
        <time>2020-01-16T14:00:11Z</time>
      </trkpt>
      <trkpt lat="48.40992" lon="2.80532">
        <ele>114.59999847412</ele>
        <time>2020-01-16T14:00:16Z</time>
      </trkpt>
      <trkpt lat="48.40996" lon="2.80538">
        <ele>114.59999847412</ele>
        <time>2020-01-16T14:00:21Z</time>
      </trkpt>
      <trkpt lat="48.41001" lon="2.80543">
        <ele>114.59999847412</ele>
        <time>2020-01-16T14:00:26Z</time>
      </trkpt>
      <trkpt lat="48.41005" lon="2.80548">
        <ele>114.59999847412</ele>
        <time>2020-01-16T14:00:31Z</time>
      </trkpt>
      <trkpt lat="48.41006" lon="2.80555">
        <ele>114.59999847412</ele>
        <time>2020-01-16T14:00:36Z</time>
      </trkpt>
      <trkpt lat="48.41006" lon="2.80563">
        <ele>114.80000305176</ele>
        <time>2020-01-16T14:00:41Z</time>
      </trkpt>
      <trkpt lat="48.41004" lon="2.80573">
        <ele>115</ele>
        <time>2020-01-16T14:00:46Z</time>
      </trkpt>
      <trkpt lat="48.41003" lon="2.80581">
        <ele>114.80000305176</ele>
        <time>2020-01-16T14:00:51Z</time>
      </trkpt>
      <trkpt lat="48.41001" lon="2.80589">
        <ele>114.80000305176</ele>
        <time>2020-01-16T14:00:56Z</time>
      </trkpt>
      <trkpt lat="48.40998" lon="2.80599">
        <ele>114.80000305176</ele>
        <time>2020-01-16T14:01:01Z</time>
      </trkpt>
      <trkpt lat="48.40996" lon="2.80605">
        <ele>114.80000305176</ele>
        <time>2020-01-16T14:01:06Z</time>
      </trkpt>
      <trkpt lat="48.40993" lon="2.80612">
        <ele>114.80000305176</ele>
        <time>2020-01-16T14:01:11Z</time>
      </trkpt>
      <trkpt lat="48.40989" lon="2.8062">
        <ele>115</ele>
        <time>2020-01-16T14:01:16Z</time>
      </trkpt>
      <trkpt lat="48.40986" lon="2.80626">
        <ele>114.80000305176</ele>
        <time>2020-01-16T14:01:21Z</time>
      </trkpt>
      <trkpt lat="48.40985" lon="2.80632">
        <ele>114.59999847412</ele>
        <time>2020-01-16T14:01:26Z</time>
      </trkpt>
      <trkpt lat="48.40983" lon="2.8064">
        <ele>114.80000305176</ele>
        <time>2020-01-16T14:01:31Z</time>
      </trkpt>
      <trkpt lat="48.40983" lon="2.80646">
        <ele>114.80000305176</ele>
        <time>2020-01-16T14:01:36Z</time>
      </trkpt>
      <trkpt lat="48.4098" lon="2.80652">
        <ele>114.80000305176</ele>
        <time>2020-01-16T14:01:41Z</time>
      </trkpt>
      <trkpt lat="48.40976" lon="2.80657">
        <ele>115</ele>
        <time>2020-01-16T14:01:46Z</time>
      </trkpt>
      <trkpt lat="48.40971" lon="2.80661">
        <ele>115</ele>
        <time>2020-01-16T14:01:51Z</time>
      </trkpt>
      <trkpt lat="48.40967" lon="2.80664">
        <ele>115.19999694824</ele>
        <time>2020-01-16T14:01:56Z</time>
      </trkpt>
      <trkpt lat="48.40964" lon="2.80669">
        <ele>115.40000152588</ele>
        <time>2020-01-16T14:02:01Z</time>
      </trkpt>
      <trkpt lat="48.4096" lon="2.80676">
        <ele>115.40000152588</ele>
        <time>2020-01-16T14:02:06Z</time>
      </trkpt>
      <trkpt lat="48.40957" lon="2.8068">
        <ele>115</ele>
        <time>2020-01-16T14:02:11Z</time>
      </trkpt>
      <trkpt lat="48.40951" lon="2.80684">
        <ele>115</ele>
        <time>2020-01-16T14:02:16Z</time>
      </trkpt>
      <trkpt lat="48.40948" lon="2.8069">
        <ele>115.19999694824</ele>
        <time>2020-01-16T14:02:21Z</time>
      </trkpt>
      <trkpt lat="48.40944" lon="2.80695">
        <ele>115.40000152588</ele>
        <time>2020-01-16T14:02:26Z</time>
      </trkpt>
      <trkpt lat="48.40942" lon="2.80702">
        <ele>115.59999847412</ele>
        <time>2020-01-16T14:02:31Z</time>
      </trkpt>
      <trkpt lat="48.40934" lon="2.80708">
        <ele>115.80000305176</ele>
        <time>2020-01-16T14:02:36Z</time>
      </trkpt>
      <trkpt lat="48.40929" lon="2.80712">
        <ele>115.80000305176</ele>
        <time>2020-01-16T14:02:41Z</time>
      </trkpt>
      <trkpt lat="48.40925" lon="2.80717">
        <ele>116</ele>
        <time>2020-01-16T14:02:46Z</time>
      </trkpt>
      <trkpt lat="48.4092" lon="2.80721">
        <ele>116.19999694824</ele>
        <time>2020-01-16T14:02:51Z</time>
      </trkpt>
      <trkpt lat="48.40913" lon="2.80723">
        <ele>116.19999694824</ele>
        <time>2020-01-16T14:02:56Z</time>
      </trkpt>
      <trkpt lat="48.40908" lon="2.80724">
        <ele>115.80000305176</ele>
        <time>2020-01-16T14:03:01Z</time>
      </trkpt>
      <trkpt lat="48.40904" lon="2.80725">
        <ele>115.59999847412</ele>
        <time>2020-01-16T14:03:06Z</time>
      </trkpt>
      <trkpt lat="48.409" lon="2.80726">
        <ele>115.40000152588</ele>
        <time>2020-01-16T14:03:11Z</time>
      </trkpt>
      <trkpt lat="48.40896" lon="2.8073">
        <ele>115.19999694824</ele>
        <time>2020-01-16T14:03:16Z</time>
      </trkpt>
      <trkpt lat="48.40894" lon="2.80732">
        <ele>115.80000305176</ele>
        <time>2020-01-16T14:03:21Z</time>
      </trkpt>
      <trkpt lat="48.4089" lon="2.80732">
        <ele>115.80000305176</ele>
        <time>2020-01-16T14:03:26Z</time>
      </trkpt>
      <trkpt lat="48.40885" lon="2.80731">
        <ele>115.80000305176</ele>
        <time>2020-01-16T14:03:31Z</time>
      </trkpt>
      <trkpt lat="48.40879" lon="2.8073">
        <ele>115.80000305176</ele>
        <time>2020-01-16T14:03:36Z</time>
      </trkpt>
      <trkpt lat="48.40875" lon="2.80727">
        <ele>116.19999694824</ele>
        <time>2020-01-16T14:03:41Z</time>
      </trkpt>
      <trkpt lat="48.40871" lon="2.80721">
        <ele>116.19999694824</ele>
        <time>2020-01-16T14:03:46Z</time>
      </trkpt>
      <trkpt lat="48.40867" lon="2.80717">
        <ele>116.19999694824</ele>
        <time>2020-01-16T14:03:51Z</time>
      </trkpt>
      <trkpt lat="48.40864" lon="2.80712">
        <ele>116.19999694824</ele>
        <time>2020-01-16T14:03:56Z</time>
      </trkpt>
      <trkpt lat="48.40863" lon="2.80707">
        <ele>116.19999694824</ele>
        <time>2020-01-16T14:04:01Z</time>
      </trkpt>
      <trkpt lat="48.4086" lon="2.80703">
        <ele>116</ele>
        <time>2020-01-16T14:04:06Z</time>
      </trkpt>
      <trkpt lat="48.40856" lon="2.80699">
        <ele>115.80000305176</ele>
        <time>2020-01-16T14:04:11Z</time>
      </trkpt>
      <trkpt lat="48.4085" lon="2.80691">
        <ele>115.80000305176</ele>
        <time>2020-01-16T14:04:16Z</time>
      </trkpt>
      <trkpt lat="48.40846" lon="2.80683">
        <ele>115.80000305176</ele>
        <time>2020-01-16T14:04:21Z</time>
      </trkpt>
      <trkpt lat="48.40842" lon="2.80673">
        <ele>116</ele>
        <time>2020-01-16T14:04:26Z</time>
      </trkpt>
      <trkpt lat="48.4084" lon="2.80665">
        <ele>116.19999694824</ele>
        <time>2020-01-16T14:04:31Z</time>
      </trkpt>
      <trkpt lat="48.40838" lon="2.80659">
        <ele>116.19999694824</ele>
        <time>2020-01-16T14:04:36Z</time>
      </trkpt>
      <trkpt lat="48.40836" lon="2.80652">
        <ele>116</ele>
        <time>2020-01-16T14:04:41Z</time>
      </trkpt>
      <trkpt lat="48.40834" lon="2.80645">
        <ele>115.80000305176</ele>
        <time>2020-01-16T14:04:46Z</time>
      </trkpt>
      <trkpt lat="48.40832" lon="2.80637">
        <ele>115.80000305176</ele>
        <time>2020-01-16T14:04:51Z</time>
      </trkpt>
      <trkpt lat="48.40831" lon="2.80632">
        <ele>115.80000305176</ele>
        <time>2020-01-16T14:04:56Z</time>
      </trkpt>
      <trkpt lat="48.4083" lon="2.80625">
        <ele>115.59999847412</ele>
        <time>2020-01-16T14:05:01Z</time>
      </trkpt>
      <trkpt lat="48.40828" lon="2.80618">
        <ele>115.59999847412</ele>
        <time>2020-01-16T14:05:06Z</time>
      </trkpt>
      <trkpt lat="48.40827" lon="2.80612">
        <ele>115.40000152588</ele>
        <time>2020-01-16T14:05:11Z</time>
      </trkpt>
      <trkpt lat="48.40824" lon="2.80606">
        <ele>115.80000305176</ele>
        <time>2020-01-16T14:05:16Z</time>
      </trkpt>
      <trkpt lat="48.4082" lon="2.806">
        <ele>115.80000305176</ele>
        <time>2020-01-16T14:05:21Z</time>
      </trkpt>
      <trkpt lat="48.40816" lon="2.80594">
        <ele>115.40000152588</ele>
        <time>2020-01-16T14:05:26Z</time>
      </trkpt>
      <trkpt lat="48.40811" lon="2.80587">
        <ele>115.40000152588</ele>
        <time>2020-01-16T14:05:31Z</time>
      </trkpt>
      <trkpt lat="48.40807" lon="2.80581">
        <ele>116.19999694824</ele>
        <time>2020-01-16T14:05:36Z</time>
      </trkpt>
      <trkpt lat="48.40801" lon="2.80578">
        <ele>115.80000305176</ele>
        <time>2020-01-16T14:05:41Z</time>
      </trkpt>
      <trkpt lat="48.40794" lon="2.80575">
        <ele>115.59999847412</ele>
        <time>2020-01-16T14:05:46Z</time>
      </trkpt>
      <trkpt lat="48.40787" lon="2.80572">
        <ele>115.59999847412</ele>
        <time>2020-01-16T14:05:51Z</time>
      </trkpt>
      <trkpt lat="48.40781" lon="2.8057">
        <ele>115.80000305176</ele>
        <time>2020-01-16T14:05:56Z</time>
      </trkpt>
      <trkpt lat="48.40777" lon="2.80565">
        <ele>115.80000305176</ele>
        <time>2020-01-16T14:06:01Z</time>
      </trkpt>
      <trkpt lat="48.40773" lon="2.80559">
        <ele>115.40000152588</ele>
        <time>2020-01-16T14:06:06Z</time>
      </trkpt>
      <trkpt lat="48.40769" lon="2.80556">
        <ele>115.80000305176</ele>
        <time>2020-01-16T14:06:11Z</time>
      </trkpt>
      <trkpt lat="48.40768" lon="2.80556">
        <ele>115.59999847412</ele>
        <time>2020-01-16T14:06:16Z</time>
      </trkpt>
      <trkpt lat="48.40765" lon="2.8055">
        <ele>115.80000305176</ele>
        <time>2020-01-16T14:06:21Z</time>
      </trkpt>
      <trkpt lat="48.40762" lon="2.80542">
        <ele>115.40000152588</ele>
        <time>2020-01-16T14:06:26Z</time>
      </trkpt>
      <trkpt lat="48.40759" lon="2.80535">
        <ele>115.19999694824</ele>
        <time>2020-01-16T14:06:31Z</time>
      </trkpt>
      <trkpt lat="48.40757" lon="2.80527">
        <ele>115.19999694824</ele>
        <time>2020-01-16T14:06:36Z</time>
      </trkpt>
      <trkpt lat="48.40757" lon="2.8052">
        <ele>115.19999694824</ele>
        <time>2020-01-16T14:06:41Z</time>
      </trkpt>
      <trkpt lat="48.40757" lon="2.80512">
        <ele>115.19999694824</ele>
        <time>2020-01-16T14:06:46Z</time>
      </trkpt>
      <trkpt lat="48.40756" lon="2.80504">
        <ele>115.19999694824</ele>
        <time>2020-01-16T14:06:51Z</time>
      </trkpt>
      <trkpt lat="48.40754" lon="2.80496">
        <ele>115.40000152588</ele>
        <time>2020-01-16T14:06:56Z</time>
      </trkpt>
      <trkpt lat="48.40753" lon="2.80488">
        <ele>115.40000152588</ele>
        <time>2020-01-16T14:07:01Z</time>
      </trkpt>
      <trkpt lat="48.40752" lon="2.8048">
        <ele>115.19999694824</ele>
        <time>2020-01-16T14:07:06Z</time>
      </trkpt>
      <trkpt lat="48.40752" lon="2.80472">
        <ele>114.80000305176</ele>
        <time>2020-01-16T14:07:11Z</time>
      </trkpt>
      <trkpt lat="48.4075" lon="2.80465">
        <ele>114.59999847412</ele>
        <time>2020-01-16T14:07:16Z</time>
      </trkpt>
      <trkpt lat="48.40749" lon="2.80456">
        <ele>114.59999847412</ele>
        <time>2020-01-16T14:07:21Z</time>
      </trkpt>
      <trkpt lat="48.40749" lon="2.80447">
        <ele>114.19999694824</ele>
        <time>2020-01-16T14:07:26Z</time>
      </trkpt>
      <trkpt lat="48.40749" lon="2.8044">
        <ele>113.80000305176</ele>
        <time>2020-01-16T14:07:31Z</time>
      </trkpt>
      <trkpt lat="48.40747" lon="2.80432">
        <ele>113.59999847412</ele>
        <time>2020-01-16T14:07:36Z</time>
      </trkpt>
      <trkpt lat="48.40747" lon="2.80425">
        <ele>113.40000152588</ele>
        <time>2020-01-16T14:07:41Z</time>
      </trkpt>
      <trkpt lat="48.40745" lon="2.80417">
        <ele>113</ele>
        <time>2020-01-16T14:07:46Z</time>
      </trkpt>
      <trkpt lat="48.40745" lon="2.8041">
        <ele>112.80000305176</ele>
        <time>2020-01-16T14:07:51Z</time>
      </trkpt>
      <trkpt lat="48.40744" lon="2.80402">
        <ele>112.59999847412</ele>
        <time>2020-01-16T14:07:56Z</time>
      </trkpt>
      <trkpt lat="48.4074" lon="2.80391">
        <ele>112.19999694824</ele>
        <time>2020-01-16T14:08:01Z</time>
      </trkpt>
      <trkpt lat="48.40737" lon="2.80383">
        <ele>111.80000305176</ele>
        <time>2020-01-16T14:08:06Z</time>
      </trkpt>
      <trkpt lat="48.40734" lon="2.80374">
        <ele>111.40000152588</ele>
        <time>2020-01-16T14:08:11Z</time>
      </trkpt>
      <trkpt lat="48.4073" lon="2.80366">
        <ele>111.19999694824</ele>
        <time>2020-01-16T14:08:16Z</time>
      </trkpt>
      <trkpt lat="48.4073" lon="2.80358">
        <ele>111</ele>
        <time>2020-01-16T14:08:21Z</time>
      </trkpt>
      <trkpt lat="48.40729" lon="2.80351">
        <ele>110.59999847412</ele>
        <time>2020-01-16T14:08:26Z</time>
      </trkpt>
      <trkpt lat="48.40727" lon="2.80346">
        <ele>110.40000152588</ele>
        <time>2020-01-16T14:08:31Z</time>
      </trkpt>
      <trkpt lat="48.40724" lon="2.80339">
        <ele>110</ele>
        <time>2020-01-16T14:08:36Z</time>
      </trkpt>
      <trkpt lat="48.40722" lon="2.80332">
        <ele>109.80000305176</ele>
        <time>2020-01-16T14:08:41Z</time>
      </trkpt>
      <trkpt lat="48.4072" lon="2.80323">
        <ele>109.40000152588</ele>
        <time>2020-01-16T14:08:46Z</time>
      </trkpt>
      <trkpt lat="48.40718" lon="2.80315">
        <ele>109.19999694824</ele>
        <time>2020-01-16T14:08:51Z</time>
      </trkpt>
      <trkpt lat="48.4071" lon="2.8031">
        <ele>109</ele>
        <time>2020-01-16T14:08:56Z</time>
      </trkpt>
      <trkpt lat="48.40705" lon="2.80312">
        <ele>109</ele>
        <time>2020-01-16T14:09:01Z</time>
      </trkpt>
      <trkpt lat="48.407" lon="2.80316">
        <ele>109</ele>
        <time>2020-01-16T14:09:06Z</time>
      </trkpt>
      <trkpt lat="48.40695" lon="2.80319">
        <ele>109</ele>
        <time>2020-01-16T14:09:11Z</time>
      </trkpt>
      <trkpt lat="48.40689" lon="2.80323">
        <ele>109.19999694824</ele>
        <time>2020-01-16T14:09:16Z</time>
      </trkpt>
      <trkpt lat="48.40684" lon="2.80328">
        <ele>109.19999694824</ele>
        <time>2020-01-16T14:09:21Z</time>
      </trkpt>
      <trkpt lat="48.40678" lon="2.80331">
        <ele>109.19999694824</ele>
        <time>2020-01-16T14:09:26Z</time>
      </trkpt>
      <trkpt lat="48.40673" lon="2.80335">
        <ele>109</ele>
        <time>2020-01-16T14:09:31Z</time>
      </trkpt>
      <trkpt lat="48.40666" lon="2.80339">
        <ele>109.19999694824</ele>
        <time>2020-01-16T14:09:37Z</time>
      </trkpt>
      <trkpt lat="48.40661" lon="2.80342">
        <ele>109.40000152588</ele>
        <time>2020-01-16T14:09:42Z</time>
      </trkpt>
      <trkpt lat="48.40656" lon="2.80346">
        <ele>109.40000152588</ele>
        <time>2020-01-16T14:09:47Z</time>
      </trkpt>
      <trkpt lat="48.40651" lon="2.80346">
        <ele>109.40000152588</ele>
        <time>2020-01-16T14:09:52Z</time>
      </trkpt>
      <trkpt lat="48.40647" lon="2.80349">
        <ele>109.19999694824</ele>
        <time>2020-01-16T14:09:57Z</time>
      </trkpt>
      <trkpt lat="48.40643" lon="2.80349">
        <ele>109</ele>
        <time>2020-01-16T14:10:02Z</time>
      </trkpt>
      <trkpt lat="48.40638" lon="2.80352">
        <ele>109.19999694824</ele>
        <time>2020-01-16T14:10:07Z</time>
      </trkpt>
      <trkpt lat="48.40633" lon="2.80354">
        <ele>109.19999694824</ele>
        <time>2020-01-16T14:10:12Z</time>
      </trkpt>
      <trkpt lat="48.40628" lon="2.80356">
        <ele>109.40000152588</ele>
        <time>2020-01-16T14:10:17Z</time>
      </trkpt>
      <trkpt lat="48.40622" lon="2.80359">
        <ele>109</ele>
        <time>2020-01-16T14:10:22Z</time>
      </trkpt>
      <trkpt lat="48.40616" lon="2.80365">
        <ele>108.80000305176</ele>
        <time>2020-01-16T14:10:27Z</time>
      </trkpt>
      <trkpt lat="48.4061" lon="2.80369">
        <ele>109.40000152588</ele>
        <time>2020-01-16T14:10:32Z</time>
      </trkpt>
      <trkpt lat="48.40601" lon="2.80372">
        <ele>109.80000305176</ele>
        <time>2020-01-16T14:10:37Z</time>
      </trkpt>
      <trkpt lat="48.40593" lon="2.80375">
        <ele>110</ele>
        <time>2020-01-16T14:10:42Z</time>
      </trkpt>
      <trkpt lat="48.40588" lon="2.80377">
        <ele>110</ele>
        <time>2020-01-16T14:10:47Z</time>
      </trkpt>
      <trkpt lat="48.40581" lon="2.80379">
        <ele>110.19999694824</ele>
        <time>2020-01-16T14:10:52Z</time>
      </trkpt>
      <trkpt lat="48.40576" lon="2.80383">
        <ele>110.19999694824</ele>
        <time>2020-01-16T14:10:57Z</time>
      </trkpt>
      <trkpt lat="48.4057" lon="2.80384">
        <ele>110.19999694824</ele>
        <time>2020-01-16T14:11:02Z</time>
      </trkpt>
      <trkpt lat="48.40566" lon="2.80386">
        <ele>109.59999847412</ele>
        <time>2020-01-16T14:11:07Z</time>
      </trkpt>
      <trkpt lat="48.40562" lon="2.80392">
        <ele>110</ele>
        <time>2020-01-16T14:11:12Z</time>
      </trkpt>
      <trkpt lat="48.40557" lon="2.80393">
        <ele>110.19999694824</ele>
        <time>2020-01-16T14:11:17Z</time>
      </trkpt>
      <trkpt lat="48.40554" lon="2.80393">
        <ele>110</ele>
        <time>2020-01-16T14:11:22Z</time>
      </trkpt>
      <trkpt lat="48.40549" lon="2.80396">
        <ele>109.80000305176</ele>
        <time>2020-01-16T14:11:27Z</time>
      </trkpt>
      <trkpt lat="48.40542" lon="2.804">
        <ele>109.40000152588</ele>
        <time>2020-01-16T14:11:32Z</time>
      </trkpt>
      <trkpt lat="48.40537" lon="2.80405">
        <ele>109.19999694824</ele>
        <time>2020-01-16T14:11:37Z</time>
      </trkpt>
      <trkpt lat="48.40533" lon="2.80409">
        <ele>109.40000152588</ele>
        <time>2020-01-16T14:11:42Z</time>
      </trkpt>
      <trkpt lat="48.40528" lon="2.80415">
        <ele>109.40000152588</ele>
        <time>2020-01-16T14:11:47Z</time>
      </trkpt>
      <trkpt lat="48.40523" lon="2.80419">
        <ele>109.40000152588</ele>
        <time>2020-01-16T14:11:52Z</time>
      </trkpt>
      <trkpt lat="48.4052" lon="2.80425">
        <ele>109.59999847412</ele>
        <time>2020-01-16T14:11:57Z</time>
      </trkpt>
      <trkpt lat="48.40515" lon="2.8043">
        <ele>109.40000152588</ele>
        <time>2020-01-16T14:12:02Z</time>
      </trkpt>
      <trkpt lat="48.40511" lon="2.80433">
        <ele>109.40000152588</ele>
        <time>2020-01-16T14:12:07Z</time>
      </trkpt>
      <trkpt lat="48.40507" lon="2.80438">
        <ele>109.19999694824</ele>
        <time>2020-01-16T14:12:12Z</time>
      </trkpt>
      <trkpt lat="48.40504" lon="2.80444">
        <ele>109.19999694824</ele>
        <time>2020-01-16T14:12:17Z</time>
      </trkpt>
      <trkpt lat="48.405" lon="2.80453">
        <ele>109.19999694824</ele>
        <time>2020-01-16T14:12:22Z</time>
      </trkpt>
      <trkpt lat="48.40496" lon="2.80458">
        <ele>109.19999694824</ele>
        <time>2020-01-16T14:12:27Z</time>
      </trkpt>
      <trkpt lat="48.40492" lon="2.80463">
        <ele>109.40000152588</ele>
        <time>2020-01-16T14:12:32Z</time>
      </trkpt>
      <trkpt lat="48.40487" lon="2.80468">
        <ele>109.59999847412</ele>
        <time>2020-01-16T14:12:37Z</time>
      </trkpt>
      <trkpt lat="48.40483" lon="2.80471">
        <ele>109.40000152588</ele>
        <time>2020-01-16T14:12:42Z</time>
      </trkpt>
      <trkpt lat="48.40478" lon="2.80477">
        <ele>109.40000152588</ele>
        <time>2020-01-16T14:12:47Z</time>
      </trkpt>
      <trkpt lat="48.40473" lon="2.80483">
        <ele>109.59999847412</ele>
        <time>2020-01-16T14:12:52Z</time>
      </trkpt>
      <trkpt lat="48.40469" lon="2.80487">
        <ele>109.59999847412</ele>
        <time>2020-01-16T14:12:57Z</time>
      </trkpt>
      <trkpt lat="48.40464" lon="2.80489">
        <ele>109.80000305176</ele>
        <time>2020-01-16T14:13:02Z</time>
      </trkpt>
      <trkpt lat="48.40459" lon="2.80496">
        <ele>110</ele>
        <time>2020-01-16T14:13:07Z</time>
      </trkpt>
      <trkpt lat="48.40456" lon="2.805">
        <ele>110</ele>
        <time>2020-01-16T14:13:12Z</time>
      </trkpt>
      <trkpt lat="48.4045" lon="2.80504">
        <ele>110.19999694824</ele>
        <time>2020-01-16T14:13:17Z</time>
      </trkpt>
      <trkpt lat="48.40446" lon="2.80508">
        <ele>110.19999694824</ele>
        <time>2020-01-16T14:13:22Z</time>
      </trkpt>
      <trkpt lat="48.4044" lon="2.80513">
        <ele>110</ele>
        <time>2020-01-16T14:13:27Z</time>
      </trkpt>
      <trkpt lat="48.40434" lon="2.80517">
        <ele>109.80000305176</ele>
        <time>2020-01-16T14:13:32Z</time>
      </trkpt>
      <trkpt lat="48.40428" lon="2.8052">
        <ele>110</ele>
        <time>2020-01-16T14:13:37Z</time>
      </trkpt>
      <trkpt lat="48.40421" lon="2.80523">
        <ele>110.19999694824</ele>
        <time>2020-01-16T14:13:42Z</time>
      </trkpt>
      <trkpt lat="48.40416" lon="2.80529">
        <ele>110.40000152588</ele>
        <time>2020-01-16T14:13:47Z</time>
      </trkpt>
      <trkpt lat="48.40411" lon="2.80532">
        <ele>110.19999694824</ele>
        <time>2020-01-16T14:13:52Z</time>
      </trkpt>
      <trkpt lat="48.40405" lon="2.80533">
        <ele>110.40000152588</ele>
        <time>2020-01-16T14:13:57Z</time>
      </trkpt>
      <trkpt lat="48.40402" lon="2.80538">
        <ele>110.59999847412</ele>
        <time>2020-01-16T14:14:02Z</time>
      </trkpt>
      <trkpt lat="48.40399" lon="2.80542">
        <ele>110.59999847412</ele>
        <time>2020-01-16T14:14:07Z</time>
      </trkpt>
      <trkpt lat="48.40394" lon="2.80546">
        <ele>110.40000152588</ele>
        <time>2020-01-16T14:14:12Z</time>
      </trkpt>
      <trkpt lat="48.40389" lon="2.80548">
        <ele>110.40000152588</ele>
        <time>2020-01-16T14:14:17Z</time>
      </trkpt>
      <trkpt lat="48.40385" lon="2.80551">
        <ele>110.40000152588</ele>
        <time>2020-01-16T14:14:22Z</time>
      </trkpt>
      <trkpt lat="48.4038" lon="2.80553">
        <ele>110.40000152588</ele>
        <time>2020-01-16T14:14:27Z</time>
      </trkpt>
      <trkpt lat="48.40375" lon="2.80556">
        <ele>110.40000152588</ele>
        <time>2020-01-16T14:14:32Z</time>
      </trkpt>
      <trkpt lat="48.4037" lon="2.80559">
        <ele>110.40000152588</ele>
        <time>2020-01-16T14:14:37Z</time>
      </trkpt>
      <trkpt lat="48.40366" lon="2.80562">
        <ele>110.40000152588</ele>
        <time>2020-01-16T14:14:42Z</time>
      </trkpt>
      <trkpt lat="48.40362" lon="2.80565">
        <ele>110.40000152588</ele>
        <time>2020-01-16T14:14:47Z</time>
      </trkpt>
      <trkpt lat="48.40358" lon="2.80567">
        <ele>110.19999694824</ele>
        <time>2020-01-16T14:14:52Z</time>
      </trkpt>
      <trkpt lat="48.40353" lon="2.8057">
        <ele>110.19999694824</ele>
        <time>2020-01-16T14:14:57Z</time>
      </trkpt>
      <trkpt lat="48.40348" lon="2.80575">
        <ele>110.40000152588</ele>
        <time>2020-01-16T14:15:02Z</time>
      </trkpt>
      <trkpt lat="48.40343" lon="2.8058">
        <ele>110.40000152588</ele>
        <time>2020-01-16T14:15:07Z</time>
      </trkpt>
      <trkpt lat="48.40337" lon="2.80583">
        <ele>110.19999694824</ele>
        <time>2020-01-16T14:15:12Z</time>
      </trkpt>
      <trkpt lat="48.4033" lon="2.80587">
        <ele>110.19999694824</ele>
        <time>2020-01-16T14:15:17Z</time>
      </trkpt>
      <trkpt lat="48.40324" lon="2.80589">
        <ele>110.40000152588</ele>
        <time>2020-01-16T14:15:22Z</time>
      </trkpt>
      <trkpt lat="48.40317" lon="2.8059">
        <ele>110</ele>
        <time>2020-01-16T14:15:27Z</time>
      </trkpt>
      <trkpt lat="48.40313" lon="2.80593">
        <ele>110</ele>
        <time>2020-01-16T14:15:32Z</time>
      </trkpt>
      <trkpt lat="48.4031" lon="2.80593">
        <ele>110.19999694824</ele>
        <time>2020-01-16T14:15:37Z</time>
      </trkpt>
      <trkpt lat="48.40306" lon="2.80595">
        <ele>110.40000152588</ele>
        <time>2020-01-16T14:15:42Z</time>
      </trkpt>
      <trkpt lat="48.40301" lon="2.80599">
        <ele>110</ele>
        <time>2020-01-16T14:15:47Z</time>
      </trkpt>
      <trkpt lat="48.40295" lon="2.80602">
        <ele>110</ele>
        <time>2020-01-16T14:15:52Z</time>
      </trkpt>
      <trkpt lat="48.40289" lon="2.80606">
        <ele>110</ele>
        <time>2020-01-16T14:15:57Z</time>
      </trkpt>
      <trkpt lat="48.40284" lon="2.80609">
        <ele>109.80000305176</ele>
        <time>2020-01-16T14:16:02Z</time>
      </trkpt>
      <trkpt lat="48.40281" lon="2.80611">
        <ele>109.59999847412</ele>
        <time>2020-01-16T14:16:07Z</time>
      </trkpt>
      <trkpt lat="48.40275" lon="2.80612">
        <ele>109.59999847412</ele>
        <time>2020-01-16T14:16:12Z</time>
      </trkpt>
      <trkpt lat="48.40268" lon="2.80608">
        <ele>109.40000152588</ele>
        <time>2020-01-16T14:16:17Z</time>
      </trkpt>
      <trkpt lat="48.40263" lon="2.80611">
        <ele>109.40000152588</ele>
        <time>2020-01-16T14:16:22Z</time>
      </trkpt>
      <trkpt lat="48.40257" lon="2.80614">
        <ele>109.19999694824</ele>
        <time>2020-01-16T14:16:27Z</time>
      </trkpt>
      <trkpt lat="48.4025" lon="2.80617">
        <ele>109</ele>
        <time>2020-01-16T14:16:32Z</time>
      </trkpt>
      <trkpt lat="48.40243" lon="2.80616">
        <ele>109</ele>
        <time>2020-01-16T14:16:37Z</time>
      </trkpt>
      <trkpt lat="48.40237" lon="2.80613">
        <ele>108.59999847412</ele>
        <time>2020-01-16T14:16:42Z</time>
      </trkpt>
      <trkpt lat="48.40232" lon="2.80611">
        <ele>108.19999694824</ele>
        <time>2020-01-16T14:16:47Z</time>
      </trkpt>
      <trkpt lat="48.40227" lon="2.80608">
        <ele>107.80000305176</ele>
        <time>2020-01-16T14:16:52Z</time>
      </trkpt>
      <trkpt lat="48.4022" lon="2.80604">
        <ele>107.19999694824</ele>
        <time>2020-01-16T14:16:57Z</time>
      </trkpt>
      <trkpt lat="48.40214" lon="2.80602">
        <ele>107</ele>
        <time>2020-01-16T14:17:02Z</time>
      </trkpt>
      <trkpt lat="48.40209" lon="2.806">
        <ele>106.59999847412</ele>
        <time>2020-01-16T14:17:07Z</time>
      </trkpt>
      <trkpt lat="48.40204" lon="2.80599">
        <ele>106</ele>
        <time>2020-01-16T14:17:12Z</time>
      </trkpt>
      <trkpt lat="48.402" lon="2.80601">
        <ele>105.80000305176</ele>
        <time>2020-01-16T14:17:17Z</time>
      </trkpt>
      <trkpt lat="48.40197" lon="2.80601">
        <ele>105.19999694824</ele>
        <time>2020-01-16T14:17:22Z</time>
      </trkpt>
      <trkpt lat="48.40191" lon="2.80604">
        <ele>105</ele>
        <time>2020-01-16T14:17:27Z</time>
      </trkpt>
      <trkpt lat="48.40185" lon="2.80605">
        <ele>104.59999847412</ele>
        <time>2020-01-16T14:17:32Z</time>
      </trkpt>
      <trkpt lat="48.40179" lon="2.80604">
        <ele>104.19999694824</ele>
        <time>2020-01-16T14:17:37Z</time>
      </trkpt>
      <trkpt lat="48.40173" lon="2.80606">
        <ele>103.40000152588</ele>
        <time>2020-01-16T14:17:42Z</time>
      </trkpt>
      <trkpt lat="48.40168" lon="2.80608">
        <ele>103</ele>
        <time>2020-01-16T14:17:47Z</time>
      </trkpt>
      <trkpt lat="48.40158" lon="2.80612">
        <ele>102.19999694824</ele>
        <time>2020-01-16T14:17:52Z</time>
      </trkpt>
      <trkpt lat="48.40151" lon="2.80613">
        <ele>102</ele>
        <time>2020-01-16T14:17:57Z</time>
      </trkpt>
      <trkpt lat="48.40145" lon="2.80616">
        <ele>101.59999847412</ele>
        <time>2020-01-16T14:18:02Z</time>
      </trkpt>
      <trkpt lat="48.40141" lon="2.80618">
        <ele>101.59999847412</ele>
        <time>2020-01-16T14:18:07Z</time>
      </trkpt>
      <trkpt lat="48.40137" lon="2.80619">
        <ele>101.19999694824</ele>
        <time>2020-01-16T14:18:12Z</time>
      </trkpt>
      <trkpt lat="48.40131" lon="2.8062">
        <ele>101</ele>
        <time>2020-01-16T14:18:17Z</time>
      </trkpt>
      <trkpt lat="48.40125" lon="2.80621">
        <ele>100.80000305176</ele>
        <time>2020-01-16T14:18:22Z</time>
      </trkpt>
      <trkpt lat="48.4012" lon="2.80623">
        <ele>100.59999847412</ele>
        <time>2020-01-16T14:18:27Z</time>
      </trkpt>
      <trkpt lat="48.40114" lon="2.80623">
        <ele>100.40000152588</ele>
        <time>2020-01-16T14:18:32Z</time>
      </trkpt>
      <trkpt lat="48.40108" lon="2.80625">
        <ele>100.19999694824</ele>
        <time>2020-01-16T14:18:37Z</time>
      </trkpt>
      <trkpt lat="48.40103" lon="2.80622">
        <ele>100.19999694824</ele>
        <time>2020-01-16T14:18:42Z</time>
      </trkpt>
      <trkpt lat="48.40098" lon="2.80625">
        <ele>100.59999847412</ele>
        <time>2020-01-16T14:18:47Z</time>
      </trkpt>
      <trkpt lat="48.40094" lon="2.80626">
        <ele>101.19999694824</ele>
        <time>2020-01-16T14:18:52Z</time>
      </trkpt>
      <trkpt lat="48.40087" lon="2.80628">
        <ele>101.80000305176</ele>
        <time>2020-01-16T14:18:57Z</time>
      </trkpt>
      <trkpt lat="48.40081" lon="2.80631">
        <ele>101.80000305176</ele>
        <time>2020-01-16T14:19:02Z</time>
      </trkpt>
      <trkpt lat="48.40074" lon="2.80633">
        <ele>101.80000305176</ele>
        <time>2020-01-16T14:19:07Z</time>
      </trkpt>
      <trkpt lat="48.40068" lon="2.80634">
        <ele>101.80000305176</ele>
        <time>2020-01-16T14:19:12Z</time>
      </trkpt>
      <trkpt lat="48.40063" lon="2.80636">
        <ele>102</ele>
        <time>2020-01-16T14:19:17Z</time>
      </trkpt>
      <trkpt lat="48.40058" lon="2.80637">
        <ele>102.80000305176</ele>
        <time>2020-01-16T14:19:22Z</time>
      </trkpt>
      <trkpt lat="48.40052" lon="2.80641">
        <ele>103.19999694824</ele>
        <time>2020-01-16T14:19:27Z</time>
      </trkpt>
      <trkpt lat="48.40046" lon="2.80641">
        <ele>103.40000152588</ele>
        <time>2020-01-16T14:19:32Z</time>
      </trkpt>
      <trkpt lat="48.40041" lon="2.80642">
        <ele>103.59999847412</ele>
        <time>2020-01-16T14:19:37Z</time>
      </trkpt>
      <trkpt lat="48.40035" lon="2.80643">
        <ele>104</ele>
        <time>2020-01-16T14:19:42Z</time>
      </trkpt>
      <trkpt lat="48.40028" lon="2.80645">
        <ele>104.19999694824</ele>
        <time>2020-01-16T14:19:47Z</time>
      </trkpt>
      <trkpt lat="48.40021" lon="2.80647">
        <ele>104.59999847412</ele>
        <time>2020-01-16T14:19:52Z</time>
      </trkpt>
      <trkpt lat="48.40016" lon="2.8065">
        <ele>104.80000305176</ele>
        <time>2020-01-16T14:19:57Z</time>
      </trkpt>
      <trkpt lat="48.40011" lon="2.80651">
        <ele>105</ele>
        <time>2020-01-16T14:20:02Z</time>
      </trkpt>
      <trkpt lat="48.40006" lon="2.80654">
        <ele>105.19999694824</ele>
        <time>2020-01-16T14:20:07Z</time>
      </trkpt>
      <trkpt lat="48.39999" lon="2.80659">
        <ele>105.19999694824</ele>
        <time>2020-01-16T14:20:12Z</time>
      </trkpt>
      <trkpt lat="48.39996" lon="2.80663">
        <ele>105.59999847412</ele>
        <time>2020-01-16T14:20:17Z</time>
      </trkpt>
      <trkpt lat="48.39991" lon="2.80667">
        <ele>105.80000305176</ele>
        <time>2020-01-16T14:20:22Z</time>
      </trkpt>
      <trkpt lat="48.39986" lon="2.80676">
        <ele>106.19999694824</ele>
        <time>2020-01-16T14:20:27Z</time>
      </trkpt>
      <trkpt lat="48.39982" lon="2.80681">
        <ele>106.40000152588</ele>
        <time>2020-01-16T14:20:32Z</time>
      </trkpt>
      <trkpt lat="48.3998" lon="2.80687">
        <ele>106.80000305176</ele>
        <time>2020-01-16T14:20:37Z</time>
      </trkpt>
      <trkpt lat="48.39977" lon="2.80692">
        <ele>107.19999694824</ele>
        <time>2020-01-16T14:20:42Z</time>
      </trkpt>
      <trkpt lat="48.39972" lon="2.807">
        <ele>107.40000152588</ele>
        <time>2020-01-16T14:20:47Z</time>
      </trkpt>
      <trkpt lat="48.39968" lon="2.80706">
        <ele>107.40000152588</ele>
        <time>2020-01-16T14:20:52Z</time>
      </trkpt>
      <trkpt lat="48.39964" lon="2.80712">
        <ele>107.59999847412</ele>
        <time>2020-01-16T14:20:57Z</time>
      </trkpt>
      <trkpt lat="48.39959" lon="2.80719">
        <ele>108</ele>
        <time>2020-01-16T14:21:02Z</time>
      </trkpt>
      <trkpt lat="48.39955" lon="2.80723">
        <ele>108.19999694824</ele>
        <time>2020-01-16T14:21:07Z</time>
      </trkpt>
      <trkpt lat="48.39951" lon="2.80726">
        <ele>108.40000152588</ele>
        <time>2020-01-16T14:21:12Z</time>
      </trkpt>
      <trkpt lat="48.39946" lon="2.80732">
        <ele>108.40000152588</ele>
        <time>2020-01-16T14:21:17Z</time>
      </trkpt>
      <trkpt lat="48.39942" lon="2.80738">
        <ele>108.40000152588</ele>
        <time>2020-01-16T14:21:22Z</time>
      </trkpt>
      <trkpt lat="48.3994" lon="2.80744">
        <ele>108.59999847412</ele>
        <time>2020-01-16T14:21:27Z</time>
      </trkpt>
      <trkpt lat="48.39935" lon="2.80748">
        <ele>109.19999694824</ele>
        <time>2020-01-16T14:21:32Z</time>
      </trkpt>
      <trkpt lat="48.39931" lon="2.80753">
        <ele>109.40000152588</ele>
        <time>2020-01-16T14:21:37Z</time>
      </trkpt>
      <trkpt lat="48.39927" lon="2.8076">
        <ele>109.40000152588</ele>
        <time>2020-01-16T14:21:42Z</time>
      </trkpt>
      <trkpt lat="48.39924" lon="2.80767">
        <ele>109.40000152588</ele>
        <time>2020-01-16T14:21:47Z</time>
      </trkpt>
      <trkpt lat="48.39919" lon="2.80773">
        <ele>109.40000152588</ele>
        <time>2020-01-16T14:21:52Z</time>
      </trkpt>
      <trkpt lat="48.39915" lon="2.8078">
        <ele>109.59999847412</ele>
        <time>2020-01-16T14:21:57Z</time>
      </trkpt>
      <trkpt lat="48.3991" lon="2.80788">
        <ele>109.59999847412</ele>
        <time>2020-01-16T14:22:02Z</time>
      </trkpt>
      <trkpt lat="48.39909" lon="2.80795">
        <ele>109.59999847412</ele>
        <time>2020-01-16T14:22:07Z</time>
      </trkpt>
      <trkpt lat="48.39907" lon="2.80802">
        <ele>110</ele>
        <time>2020-01-16T14:22:12Z</time>
      </trkpt>
      <trkpt lat="48.39904" lon="2.80809">
        <ele>109.80000305176</ele>
        <time>2020-01-16T14:22:17Z</time>
      </trkpt>
      <trkpt lat="48.39902" lon="2.80816">
        <ele>109.80000305176</ele>
        <time>2020-01-16T14:22:22Z</time>
      </trkpt>
      <trkpt lat="48.39897" lon="2.80825">
        <ele>109.80000305176</ele>
        <time>2020-01-16T14:22:27Z</time>
      </trkpt>
      <trkpt lat="48.39892" lon="2.80831">
        <ele>109.80000305176</ele>
        <time>2020-01-16T14:22:32Z</time>
      </trkpt>
      <trkpt lat="48.39888" lon="2.80837">
        <ele>109.80000305176</ele>
        <time>2020-01-16T14:22:37Z</time>
      </trkpt>
      <trkpt lat="48.39884" lon="2.80843">
        <ele>109.80000305176</ele>
        <time>2020-01-16T14:22:42Z</time>
      </trkpt>
      <trkpt lat="48.39882" lon="2.8085">
        <ele>109.80000305176</ele>
        <time>2020-01-16T14:22:47Z</time>
      </trkpt>
      <trkpt lat="48.39881" lon="2.80853">
        <ele>109.80000305176</ele>
        <time>2020-01-16T14:22:52Z</time>
      </trkpt>
      <trkpt lat="48.39881" lon="2.80854">
        <ele>110</ele>
        <time>2020-01-16T14:22:57Z</time>
      </trkpt>
      <trkpt lat="48.39879" lon="2.80858">
        <ele>109.80000305176</ele>
        <time>2020-01-16T14:23:02Z</time>
      </trkpt>
      <trkpt lat="48.39876" lon="2.80863">
        <ele>109.80000305176</ele>
        <time>2020-01-16T14:23:07Z</time>
      </trkpt>
      <trkpt lat="48.39871" lon="2.8087">
        <ele>110</ele>
        <time>2020-01-16T14:23:12Z</time>
      </trkpt>
      <trkpt lat="48.39869" lon="2.80879">
        <ele>110</ele>
        <time>2020-01-16T14:23:17Z</time>
      </trkpt>
      <trkpt lat="48.39869" lon="2.80883">
        <ele>110.40000152588</ele>
        <time>2020-01-16T14:23:22Z</time>
      </trkpt>
      <trkpt lat="48.39869" lon="2.80884">
        <ele>110.59999847412</ele>
        <time>2020-01-16T14:23:27Z</time>
      </trkpt>
      <trkpt lat="48.39869" lon="2.80885">
        <ele>110.59999847412</ele>
        <time>2020-01-16T14:23:32Z</time>
      </trkpt>
      <trkpt lat="48.39868" lon="2.80886">
        <ele>110.80000305176</ele>
        <time>2020-01-16T14:23:37Z</time>
      </trkpt>
      <trkpt lat="48.39868" lon="2.80885">
        <ele>110.80000305176</ele>
        <time>2020-01-16T14:23:42Z</time>
      </trkpt>
      <trkpt lat="48.39868" lon="2.80885">
        <ele>110.80000305176</ele>
        <time>2020-01-16T14:23:47Z</time>
      </trkpt>
      <trkpt lat="48.39869" lon="2.80884">
        <ele>110.80000305176</ele>
        <time>2020-01-16T14:23:52Z</time>
      </trkpt>
      <trkpt lat="48.39869" lon="2.80885">
        <ele>110.80000305176</ele>
        <time>2020-01-16T14:23:57Z</time>
      </trkpt>
      <trkpt lat="48.39869" lon="2.80885">
        <ele>110.59999847412</ele>
        <time>2020-01-16T14:24:02Z</time>
      </trkpt>
      <trkpt lat="48.39869" lon="2.80885">
        <ele>110.59999847412</ele>
        <time>2020-01-16T14:24:07Z</time>
      </trkpt>
      <trkpt lat="48.3987" lon="2.80885">
        <ele>110.80000305176</ele>
        <time>2020-01-16T14:24:12Z</time>
      </trkpt>
      <trkpt lat="48.3987" lon="2.80883">
        <ele>110.80000305176</ele>
        <time>2020-01-16T14:24:17Z</time>
      </trkpt>
      <trkpt lat="48.39871" lon="2.80881">
        <ele>110.80000305176</ele>
        <time>2020-01-16T14:24:22Z</time>
      </trkpt>
      <trkpt lat="48.39872" lon="2.80879">
        <ele>110.59999847412</ele>
        <time>2020-01-16T14:24:27Z</time>
      </trkpt>
      <trkpt lat="48.39872" lon="2.80879">
        <ele>110.40000152588</ele>
        <time>2020-01-16T14:24:32Z</time>
      </trkpt>
      <trkpt lat="48.39872" lon="2.80879">
        <ele>110.59999847412</ele>
        <time>2020-01-16T14:24:37Z</time>
      </trkpt>
      <trkpt lat="48.39873" lon="2.80878">
        <ele>110.80000305176</ele>
        <time>2020-01-16T14:24:42Z</time>
      </trkpt>
      <trkpt lat="48.39872" lon="2.80878">
        <ele>110.80000305176</ele>
        <time>2020-01-16T14:24:47Z</time>
      </trkpt>
      <trkpt lat="48.39872" lon="2.80878">
        <ele>110.80000305176</ele>
        <time>2020-01-16T14:24:52Z</time>
      </trkpt>
      <trkpt lat="48.39871" lon="2.80878">
        <ele>111</ele>
        <time>2020-01-16T14:24:57Z</time>
      </trkpt>
      <trkpt lat="48.3987" lon="2.80878">
        <ele>111</ele>
        <time>2020-01-16T14:25:02Z</time>
      </trkpt>
      <trkpt lat="48.39872" lon="2.80874">
        <ele>110.80000305176</ele>
        <time>2020-01-16T14:25:07Z</time>
      </trkpt>
      <trkpt lat="48.39872" lon="2.80872">
        <ele>110.59999847412</ele>
        <time>2020-01-16T14:25:12Z</time>
      </trkpt>
      <trkpt lat="48.39872" lon="2.80873">
        <ele>110.40000152588</ele>
        <time>2020-01-16T14:25:17Z</time>
      </trkpt>
      <trkpt lat="48.39873" lon="2.80873">
        <ele>110.40000152588</ele>
        <time>2020-01-16T14:25:22Z</time>
      </trkpt>
      <trkpt lat="48.39873" lon="2.80873">
        <ele>110.59999847412</ele>
        <time>2020-01-16T14:25:27Z</time>
      </trkpt>
      <trkpt lat="48.39873" lon="2.80873">
        <ele>110.80000305176</ele>
        <time>2020-01-16T14:25:32Z</time>
      </trkpt>
      <trkpt lat="48.39873" lon="2.80874">
        <ele>110.80000305176</ele>
        <time>2020-01-16T14:25:37Z</time>
      </trkpt>
      <trkpt lat="48.39872" lon="2.80875">
        <ele>110.80000305176</ele>
        <time>2020-01-16T14:25:42Z</time>
      </trkpt>
      <trkpt lat="48.39871" lon="2.80876">
        <ele>111</ele>
        <time>2020-01-16T14:25:47Z</time>
      </trkpt>
      <trkpt lat="48.39871" lon="2.80876">
        <ele>111.19999694824</ele>
        <time>2020-01-16T14:25:52Z</time>
      </trkpt>
      <trkpt lat="48.3987" lon="2.80876">
        <ele>111.19999694824</ele>
        <time>2020-01-16T14:25:57Z</time>
      </trkpt>
      <trkpt lat="48.3987" lon="2.80877">
        <ele>111.19999694824</ele>
        <time>2020-01-16T14:26:02Z</time>
      </trkpt>
      <trkpt lat="48.3987" lon="2.80877">
        <ele>111.19999694824</ele>
        <time>2020-01-16T14:26:07Z</time>
      </trkpt>
      <trkpt lat="48.39871" lon="2.80877">
        <ele>111.19999694824</ele>
        <time>2020-01-16T14:26:12Z</time>
      </trkpt>
      <trkpt lat="48.3987" lon="2.80879">
        <ele>111.19999694824</ele>
        <time>2020-01-16T14:26:17Z</time>
      </trkpt>
      <trkpt lat="48.39871" lon="2.8088">
        <ele>111.19999694824</ele>
        <time>2020-01-16T14:26:22Z</time>
      </trkpt>
      <trkpt lat="48.39872" lon="2.80881">
        <ele>111.19999694824</ele>
        <time>2020-01-16T14:26:27Z</time>
      </trkpt>
      <trkpt lat="48.39872" lon="2.80881">
        <ele>111.19999694824</ele>
        <time>2020-01-16T14:26:32Z</time>
      </trkpt>
      <trkpt lat="48.39872" lon="2.80882">
        <ele>111.19999694824</ele>
        <time>2020-01-16T14:26:37Z</time>
      </trkpt>
      <trkpt lat="48.39872" lon="2.80882">
        <ele>111.19999694824</ele>
        <time>2020-01-16T14:26:42Z</time>
      </trkpt>
      <trkpt lat="48.39871" lon="2.80882">
        <ele>111.19999694824</ele>
        <time>2020-01-16T14:26:47Z</time>
      </trkpt>
      <trkpt lat="48.39871" lon="2.80883">
        <ele>110.80000305176</ele>
        <time>2020-01-16T14:26:52Z</time>
      </trkpt>
      <trkpt lat="48.39871" lon="2.80883">
        <ele>110.59999847412</ele>
        <time>2020-01-16T14:26:57Z</time>
      </trkpt>
      <trkpt lat="48.39871" lon="2.80883">
        <ele>110.80000305176</ele>
        <time>2020-01-16T14:27:02Z</time>
      </trkpt>
      <trkpt lat="48.39871" lon="2.80884">
        <ele>110.80000305176</ele>
        <time>2020-01-16T14:27:07Z</time>
      </trkpt>
      <trkpt lat="48.39871" lon="2.80884">
        <ele>110.80000305176</ele>
        <time>2020-01-16T14:27:12Z</time>
      </trkpt>
      <trkpt lat="48.39871" lon="2.80884">
        <ele>110.80000305176</ele>
        <time>2020-01-16T14:27:17Z</time>
      </trkpt>
      <trkpt lat="48.39871" lon="2.80884">
        <ele>110.80000305176</ele>
        <time>2020-01-16T14:27:22Z</time>
      </trkpt>
      <trkpt lat="48.39871" lon="2.80883">
        <ele>110.80000305176</ele>
        <time>2020-01-16T14:27:27Z</time>
      </trkpt>
      <trkpt lat="48.39872" lon="2.80882">
        <ele>110.80000305176</ele>
        <time>2020-01-16T14:27:32Z</time>
      </trkpt>
      <trkpt lat="48.39873" lon="2.80882">
        <ele>110.80000305176</ele>
        <time>2020-01-16T14:27:37Z</time>
      </trkpt>
      <trkpt lat="48.39876" lon="2.80881">
        <ele>110.80000305176</ele>
        <time>2020-01-16T14:27:42Z</time>
      </trkpt>
      <trkpt lat="48.39877" lon="2.80881">
        <ele>110.80000305176</ele>
        <time>2020-01-16T14:27:47Z</time>
      </trkpt>
      <trkpt lat="48.39876" lon="2.80881">
        <ele>110.80000305176</ele>
        <time>2020-01-16T14:27:52Z</time>
      </trkpt>
      <trkpt lat="48.39877" lon="2.80881">
        <ele>110.80000305176</ele>
        <time>2020-01-16T14:27:57Z</time>
      </trkpt>
      <trkpt lat="48.39876" lon="2.80882">
        <ele>110.80000305176</ele>
        <time>2020-01-16T14:28:02Z</time>
      </trkpt>
      <trkpt lat="48.39875" lon="2.80881">
        <ele>110.80000305176</ele>
        <time>2020-01-16T14:28:07Z</time>
      </trkpt>
      <trkpt lat="48.39876" lon="2.8088">
        <ele>110.80000305176</ele>
        <time>2020-01-16T14:28:12Z</time>
      </trkpt>
      <trkpt lat="48.39874" lon="2.80881">
        <ele>110.80000305176</ele>
        <time>2020-01-16T14:28:17Z</time>
      </trkpt>
      <trkpt lat="48.39874" lon="2.80882">
        <ele>110.80000305176</ele>
        <time>2020-01-16T14:28:22Z</time>
      </trkpt>
      <trkpt lat="48.39873" lon="2.80881">
        <ele>110.80000305176</ele>
        <time>2020-01-16T14:28:27Z</time>
      </trkpt>
      <trkpt lat="48.39874" lon="2.80881">
        <ele>110.80000305176</ele>
        <time>2020-01-16T14:28:32Z</time>
      </trkpt>
      <trkpt lat="48.39875" lon="2.80881">
        <ele>110.80000305176</ele>
        <time>2020-01-16T14:28:37Z</time>
      </trkpt>
      <trkpt lat="48.39876" lon="2.8088">
        <ele>110.80000305176</ele>
        <time>2020-01-16T14:28:42Z</time>
      </trkpt>
      <trkpt lat="48.39874" lon="2.80881">
        <ele>110.80000305176</ele>
        <time>2020-01-16T14:28:47Z</time>
      </trkpt>
      <trkpt lat="48.39873" lon="2.80882">
        <ele>110.80000305176</ele>
        <time>2020-01-16T14:28:52Z</time>
      </trkpt>
      <trkpt lat="48.39872" lon="2.80882">
        <ele>110.80000305176</ele>
        <time>2020-01-16T14:28:57Z</time>
      </trkpt>
      <trkpt lat="48.39871" lon="2.80881">
        <ele>110.80000305176</ele>
        <time>2020-01-16T14:29:02Z</time>
      </trkpt>
      <trkpt lat="48.39869" lon="2.8088">
        <ele>110.80000305176</ele>
        <time>2020-01-16T14:29:07Z</time>
      </trkpt>
      <trkpt lat="48.3987" lon="2.80879">
        <ele>110.80000305176</ele>
        <time>2020-01-16T14:29:12Z</time>
      </trkpt>
      <trkpt lat="48.3987" lon="2.80881">
        <ele>110.80000305176</ele>
        <time>2020-01-16T14:29:17Z</time>
      </trkpt>
      <trkpt lat="48.39869" lon="2.80881">
        <ele>110.80000305176</ele>
        <time>2020-01-16T14:29:22Z</time>
      </trkpt>
      <trkpt lat="48.39868" lon="2.80882">
        <ele>110.80000305176</ele>
        <time>2020-01-16T14:29:27Z</time>
      </trkpt>
      <trkpt lat="48.39867" lon="2.80883">
        <ele>110.80000305176</ele>
        <time>2020-01-16T14:29:32Z</time>
      </trkpt>
      <trkpt lat="48.39867" lon="2.80884">
        <ele>110.80000305176</ele>
        <time>2020-01-16T14:29:37Z</time>
      </trkpt>
      <trkpt lat="48.39866" lon="2.80883">
        <ele>110.80000305176</ele>
        <time>2020-01-16T14:29:42Z</time>
      </trkpt>
      <trkpt lat="48.39865" lon="2.80883">
        <ele>110.80000305176</ele>
        <time>2020-01-16T14:29:47Z</time>
      </trkpt>
      <trkpt lat="48.39865" lon="2.80883">
        <ele>110.80000305176</ele>
        <time>2020-01-16T14:29:52Z</time>
      </trkpt>
      <trkpt lat="48.39866" lon="2.80883">
        <ele>110.80000305176</ele>
        <time>2020-01-16T14:29:57Z</time>
      </trkpt>
      <trkpt lat="48.39867" lon="2.80884">
        <ele>110.80000305176</ele>
        <time>2020-01-16T14:30:02Z</time>
      </trkpt>
      <trkpt lat="48.39866" lon="2.80884">
        <ele>110.80000305176</ele>
        <time>2020-01-16T14:30:07Z</time>
      </trkpt>
      <trkpt lat="48.39866" lon="2.80882">
        <ele>110.80000305176</ele>
        <time>2020-01-16T14:30:12Z</time>
      </trkpt>
      <trkpt lat="48.39866" lon="2.80881">
        <ele>110.80000305176</ele>
        <time>2020-01-16T14:30:17Z</time>
      </trkpt>
      <trkpt lat="48.39867" lon="2.80881">
        <ele>110.80000305176</ele>
        <time>2020-01-16T14:30:22Z</time>
      </trkpt>
      <trkpt lat="48.39867" lon="2.80882">
        <ele>110.80000305176</ele>
        <time>2020-01-16T14:30:27Z</time>
      </trkpt>
      <trkpt lat="48.39868" lon="2.80883">
        <ele>110.80000305176</ele>
        <time>2020-01-16T14:30:32Z</time>
      </trkpt>
      <trkpt lat="48.39869" lon="2.80883">
        <ele>110.80000305176</ele>
        <time>2020-01-16T14:30:37Z</time>
      </trkpt>
      <trkpt lat="48.3987" lon="2.80883">
        <ele>110.80000305176</ele>
        <time>2020-01-16T14:30:42Z</time>
      </trkpt>
      <trkpt lat="48.3987" lon="2.80883">
        <ele>110.80000305176</ele>
        <time>2020-01-16T14:30:47Z</time>
      </trkpt>
      <trkpt lat="48.3987" lon="2.80882">
        <ele>110.80000305176</ele>
        <time>2020-01-16T14:30:52Z</time>
      </trkpt>
      <trkpt lat="48.39868" lon="2.80882">
        <ele>110.80000305176</ele>
        <time>2020-01-16T14:30:57Z</time>
      </trkpt>
      <trkpt lat="48.3987" lon="2.80882">
        <ele>110.80000305176</ele>
        <time>2020-01-16T14:31:02Z</time>
      </trkpt>
      <trkpt lat="48.39869" lon="2.80882">
        <ele>110.80000305176</ele>
        <time>2020-01-16T14:31:07Z</time>
      </trkpt>
      <trkpt lat="48.39867" lon="2.80882">
        <ele>110.80000305176</ele>
        <time>2020-01-16T14:31:12Z</time>
      </trkpt>
      <trkpt lat="48.39867" lon="2.80881">
        <ele>110.80000305176</ele>
        <time>2020-01-16T14:31:17Z</time>
      </trkpt>
      <trkpt lat="48.39866" lon="2.80881">
        <ele>110.80000305176</ele>
        <time>2020-01-16T14:31:22Z</time>
      </trkpt>
      <trkpt lat="48.39866" lon="2.80881">
        <ele>110.80000305176</ele>
        <time>2020-01-16T14:31:27Z</time>
      </trkpt>
      <trkpt lat="48.39868" lon="2.8088">
        <ele>110.80000305176</ele>
        <time>2020-01-16T14:31:32Z</time>
      </trkpt>
      <trkpt lat="48.39867" lon="2.80878">
        <ele>110.80000305176</ele>
        <time>2020-01-16T14:31:37Z</time>
      </trkpt>
      <trkpt lat="48.39865" lon="2.80876">
        <ele>110.80000305176</ele>
        <time>2020-01-16T14:31:42Z</time>
      </trkpt>
      <trkpt lat="48.39866" lon="2.80877">
        <ele>110.80000305176</ele>
        <time>2020-01-16T14:31:47Z</time>
      </trkpt>
      <trkpt lat="48.39867" lon="2.80877">
        <ele>110.80000305176</ele>
        <time>2020-01-16T14:31:52Z</time>
      </trkpt>
      <trkpt lat="48.39866" lon="2.80875">
        <ele>110.80000305176</ele>
        <time>2020-01-16T14:31:57Z</time>
      </trkpt>
      <trkpt lat="48.39867" lon="2.80876">
        <ele>110.80000305176</ele>
        <time>2020-01-16T14:32:02Z</time>
      </trkpt>
      <trkpt lat="48.39867" lon="2.80878">
        <ele>110.80000305176</ele>
        <time>2020-01-16T14:32:07Z</time>
      </trkpt>
      <trkpt lat="48.39868" lon="2.80879">
        <ele>110.80000305176</ele>
        <time>2020-01-16T14:32:12Z</time>
      </trkpt>
      <trkpt lat="48.39867" lon="2.8088">
        <ele>110.80000305176</ele>
        <time>2020-01-16T14:32:17Z</time>
      </trkpt>
      <trkpt lat="48.39868" lon="2.80881">
        <ele>110.80000305176</ele>
        <time>2020-01-16T14:32:22Z</time>
      </trkpt>
      <trkpt lat="48.39866" lon="2.80881">
        <ele>110.80000305176</ele>
        <time>2020-01-16T14:32:27Z</time>
      </trkpt>
      <trkpt lat="48.39867" lon="2.80881">
        <ele>110.80000305176</ele>
        <time>2020-01-16T14:32:32Z</time>
      </trkpt>
      <trkpt lat="48.39868" lon="2.80881">
        <ele>111</ele>
        <time>2020-01-16T14:32:37Z</time>
      </trkpt>
      <trkpt lat="48.39868" lon="2.80881">
        <ele>111</ele>
        <time>2020-01-16T14:32:42Z</time>
      </trkpt>
      <trkpt lat="48.39868" lon="2.80881">
        <ele>111</ele>
        <time>2020-01-16T14:32:47Z</time>
      </trkpt>
      <trkpt lat="48.39868" lon="2.8088">
        <ele>111</ele>
        <time>2020-01-16T14:32:52Z</time>
      </trkpt>
      <trkpt lat="48.39867" lon="2.80881">
        <ele>111.19999694824</ele>
        <time>2020-01-16T14:32:57Z</time>
      </trkpt>
      <trkpt lat="48.39869" lon="2.80879">
        <ele>111.19999694824</ele>
        <time>2020-01-16T14:33:02Z</time>
      </trkpt>
      <trkpt lat="48.39869" lon="2.80879">
        <ele>111.19999694824</ele>
        <time>2020-01-16T14:33:07Z</time>
      </trkpt>
      <trkpt lat="48.3987" lon="2.80878">
        <ele>111</ele>
        <time>2020-01-16T14:33:12Z</time>
      </trkpt>
      <trkpt lat="48.39871" lon="2.80879">
        <ele>111</ele>
        <time>2020-01-16T14:33:17Z</time>
      </trkpt>
      <trkpt lat="48.39871" lon="2.80882">
        <ele>111</ele>
        <time>2020-01-16T14:33:22Z</time>
      </trkpt>
      <trkpt lat="48.39871" lon="2.80885">
        <ele>111</ele>
        <time>2020-01-16T14:33:27Z</time>
      </trkpt>
      <trkpt lat="48.39872" lon="2.80886">
        <ele>110.80000305176</ele>
        <time>2020-01-16T14:33:32Z</time>
      </trkpt>
      <trkpt lat="48.39871" lon="2.80887">
        <ele>110.80000305176</ele>
        <time>2020-01-16T14:33:37Z</time>
      </trkpt>
      <trkpt lat="48.3987" lon="2.80886">
        <ele>110.80000305176</ele>
        <time>2020-01-16T14:33:42Z</time>
      </trkpt>
      <trkpt lat="48.39869" lon="2.80885">
        <ele>110.80000305176</ele>
        <time>2020-01-16T14:33:47Z</time>
      </trkpt>
      <trkpt lat="48.39869" lon="2.80884">
        <ele>110.80000305176</ele>
        <time>2020-01-16T14:33:52Z</time>
      </trkpt>
      <trkpt lat="48.39868" lon="2.80884">
        <ele>110.80000305176</ele>
        <time>2020-01-16T14:33:57Z</time>
      </trkpt>
      <trkpt lat="48.39868" lon="2.80884">
        <ele>110.80000305176</ele>
        <time>2020-01-16T14:34:02Z</time>
      </trkpt>
      <trkpt lat="48.39868" lon="2.80883">
        <ele>110.80000305176</ele>
        <time>2020-01-16T14:34:07Z</time>
      </trkpt>
      <trkpt lat="48.39868" lon="2.80882">
        <ele>110.80000305176</ele>
        <time>2020-01-16T14:34:12Z</time>
      </trkpt>
      <trkpt lat="48.39867" lon="2.80882">
        <ele>110.80000305176</ele>
        <time>2020-01-16T14:34:17Z</time>
      </trkpt>
      <trkpt lat="48.39868" lon="2.80882">
        <ele>110.80000305176</ele>
        <time>2020-01-16T14:34:22Z</time>
      </trkpt>
      <trkpt lat="48.3987" lon="2.80882">
        <ele>110.80000305176</ele>
        <time>2020-01-16T14:34:27Z</time>
      </trkpt>
      <trkpt lat="48.39869" lon="2.80881">
        <ele>110.80000305176</ele>
        <time>2020-01-16T14:34:32Z</time>
      </trkpt>
      <trkpt lat="48.39868" lon="2.8088">
        <ele>110.80000305176</ele>
        <time>2020-01-16T14:34:37Z</time>
      </trkpt>
      <trkpt lat="48.39869" lon="2.80881">
        <ele>110.80000305176</ele>
        <time>2020-01-16T14:34:42Z</time>
      </trkpt>
      <trkpt lat="48.39868" lon="2.80881">
        <ele>110.80000305176</ele>
        <time>2020-01-16T14:34:47Z</time>
      </trkpt>
      <trkpt lat="48.39867" lon="2.80883">
        <ele>110.80000305176</ele>
        <time>2020-01-16T14:34:52Z</time>
      </trkpt>
      <trkpt lat="48.39867" lon="2.80885">
        <ele>110.80000305176</ele>
        <time>2020-01-16T14:34:57Z</time>
      </trkpt>
      <trkpt lat="48.39867" lon="2.80885">
        <ele>110.80000305176</ele>
        <time>2020-01-16T14:35:02Z</time>
      </trkpt>
      <trkpt lat="48.39867" lon="2.80886">
        <ele>110.80000305176</ele>
        <time>2020-01-16T14:35:07Z</time>
      </trkpt>
      <trkpt lat="48.39867" lon="2.80886">
        <ele>110.80000305176</ele>
        <time>2020-01-16T14:35:12Z</time>
      </trkpt>
      <trkpt lat="48.39868" lon="2.80885">
        <ele>110.80000305176</ele>
        <time>2020-01-16T14:35:17Z</time>
      </trkpt>
      <trkpt lat="48.3987" lon="2.80883">
        <ele>110.80000305176</ele>
        <time>2020-01-16T14:35:22Z</time>
      </trkpt>
      <trkpt lat="48.39871" lon="2.80883">
        <ele>110.80000305176</ele>
        <time>2020-01-16T14:35:27Z</time>
      </trkpt>
      <trkpt lat="48.39872" lon="2.80882">
        <ele>110.80000305176</ele>
        <time>2020-01-16T14:35:32Z</time>
      </trkpt>
      <trkpt lat="48.39874" lon="2.80882">
        <ele>110.80000305176</ele>
        <time>2020-01-16T14:35:37Z</time>
      </trkpt>
      <trkpt lat="48.39875" lon="2.80881">
        <ele>110.80000305176</ele>
        <time>2020-01-16T14:35:42Z</time>
      </trkpt>
      <trkpt lat="48.39875" lon="2.8088">
        <ele>110.80000305176</ele>
        <time>2020-01-16T14:35:47Z</time>
      </trkpt>
      <trkpt lat="48.39876" lon="2.8088">
        <ele>110.80000305176</ele>
        <time>2020-01-16T14:35:52Z</time>
      </trkpt>
      <trkpt lat="48.39878" lon="2.80878">
        <ele>110.80000305176</ele>
        <time>2020-01-16T14:35:57Z</time>
      </trkpt>
      <trkpt lat="48.39878" lon="2.80879">
        <ele>110.80000305176</ele>
        <time>2020-01-16T14:36:02Z</time>
      </trkpt>
      <trkpt lat="48.39877" lon="2.8088">
        <ele>110.80000305176</ele>
        <time>2020-01-16T14:36:07Z</time>
      </trkpt>
      <trkpt lat="48.39875" lon="2.80881">
        <ele>110.80000305176</ele>
        <time>2020-01-16T14:36:12Z</time>
      </trkpt>
      <trkpt lat="48.39873" lon="2.80882">
        <ele>110.80000305176</ele>
        <time>2020-01-16T14:36:17Z</time>
      </trkpt>
      <trkpt lat="48.39873" lon="2.80881">
        <ele>110.80000305176</ele>
        <time>2020-01-16T14:36:22Z</time>
      </trkpt>
      <trkpt lat="48.39873" lon="2.80879">
        <ele>111</ele>
        <time>2020-01-16T14:36:27Z</time>
      </trkpt>
      <trkpt lat="48.39873" lon="2.80878">
        <ele>111</ele>
        <time>2020-01-16T14:36:32Z</time>
      </trkpt>
      <trkpt lat="48.39873" lon="2.80876">
        <ele>110.80000305176</ele>
        <time>2020-01-16T14:36:37Z</time>
      </trkpt>
      <trkpt lat="48.39872" lon="2.80875">
        <ele>110.59999847412</ele>
        <time>2020-01-16T14:36:42Z</time>
      </trkpt>
      <trkpt lat="48.39872" lon="2.80878">
        <ele>110.80000305176</ele>
        <time>2020-01-16T14:36:47Z</time>
      </trkpt>
      <trkpt lat="48.39873" lon="2.80879">
        <ele>110.80000305176</ele>
        <time>2020-01-16T14:36:52Z</time>
      </trkpt>
      <trkpt lat="48.39873" lon="2.8088">
        <ele>111</ele>
        <time>2020-01-16T14:36:57Z</time>
      </trkpt>
      <trkpt lat="48.39873" lon="2.8088">
        <ele>110.80000305176</ele>
        <time>2020-01-16T14:37:02Z</time>
      </trkpt>
      <trkpt lat="48.39873" lon="2.80879">
        <ele>110.80000305176</ele>
        <time>2020-01-16T14:37:07Z</time>
      </trkpt>
      <trkpt lat="48.39874" lon="2.80879">
        <ele>111</ele>
        <time>2020-01-16T14:37:12Z</time>
      </trkpt>
      <trkpt lat="48.39873" lon="2.8088">
        <ele>111</ele>
        <time>2020-01-16T14:37:17Z</time>
      </trkpt>
      <trkpt lat="48.39872" lon="2.80878">
        <ele>111</ele>
        <time>2020-01-16T14:37:22Z</time>
      </trkpt>
      <trkpt lat="48.39872" lon="2.80876">
        <ele>111</ele>
        <time>2020-01-16T14:37:27Z</time>
      </trkpt>
      <trkpt lat="48.3987" lon="2.80878">
        <ele>111</ele>
        <time>2020-01-16T14:37:32Z</time>
      </trkpt>
      <trkpt lat="48.3987" lon="2.80879">
        <ele>111</ele>
        <time>2020-01-16T14:37:37Z</time>
      </trkpt>
      <trkpt lat="48.39871" lon="2.8088">
        <ele>111</ele>
        <time>2020-01-16T14:37:42Z</time>
      </trkpt>
      <trkpt lat="48.39872" lon="2.80881">
        <ele>111</ele>
        <time>2020-01-16T14:37:47Z</time>
      </trkpt>
      <trkpt lat="48.39872" lon="2.80883">
        <ele>111</ele>
        <time>2020-01-16T14:37:52Z</time>
      </trkpt>
      <trkpt lat="48.3987" lon="2.80882">
        <ele>111</ele>
        <time>2020-01-16T14:37:57Z</time>
      </trkpt>
      <trkpt lat="48.39869" lon="2.80881">
        <ele>111</ele>
        <time>2020-01-16T14:38:02Z</time>
      </trkpt>
      <trkpt lat="48.39869" lon="2.80881">
        <ele>111</ele>
        <time>2020-01-16T14:38:07Z</time>
      </trkpt>
      <trkpt lat="48.39866" lon="2.80885">
        <ele>111</ele>
        <time>2020-01-16T14:38:12Z</time>
      </trkpt>
      <trkpt lat="48.39864" lon="2.80893">
        <ele>111</ele>
        <time>2020-01-16T14:38:17Z</time>
      </trkpt>
      <trkpt lat="48.39863" lon="2.80899">
        <ele>111.40000152588</ele>
        <time>2020-01-16T14:38:22Z</time>
      </trkpt>
      <trkpt lat="48.39864" lon="2.80908">
        <ele>111.59999847412</ele>
        <time>2020-01-16T14:38:27Z</time>
      </trkpt>
      <trkpt lat="48.39865" lon="2.80919">
        <ele>112</ele>
        <time>2020-01-16T14:38:32Z</time>
      </trkpt>
      <trkpt lat="48.39866" lon="2.80926">
        <ele>112</ele>
        <time>2020-01-16T14:38:37Z</time>
      </trkpt>
      <trkpt lat="48.39866" lon="2.80933">
        <ele>112.19999694824</ele>
        <time>2020-01-16T14:38:42Z</time>
      </trkpt>
      <trkpt lat="48.39866" lon="2.8094">
        <ele>112.40000152588</ele>
        <time>2020-01-16T14:38:47Z</time>
      </trkpt>
      <trkpt lat="48.39868" lon="2.80947">
        <ele>112.80000305176</ele>
        <time>2020-01-16T14:38:52Z</time>
      </trkpt>
      <trkpt lat="48.39869" lon="2.80955">
        <ele>112.80000305176</ele>
        <time>2020-01-16T14:38:57Z</time>
      </trkpt>
      <trkpt lat="48.39871" lon="2.80964">
        <ele>113</ele>
        <time>2020-01-16T14:39:02Z</time>
      </trkpt>
      <trkpt lat="48.39872" lon="2.80972">
        <ele>113</ele>
        <time>2020-01-16T14:39:07Z</time>
      </trkpt>
      <trkpt lat="48.39874" lon="2.8098">
        <ele>113.59999847412</ele>
        <time>2020-01-16T14:39:12Z</time>
      </trkpt>
      <trkpt lat="48.39875" lon="2.80989">
        <ele>113.80000305176</ele>
        <time>2020-01-16T14:39:17Z</time>
      </trkpt>
      <trkpt lat="48.39877" lon="2.80996">
        <ele>114.19999694824</ele>
        <time>2020-01-16T14:39:22Z</time>
      </trkpt>
      <trkpt lat="48.39878" lon="2.81002">
        <ele>114.40000152588</ele>
        <time>2020-01-16T14:39:27Z</time>
      </trkpt>
      <trkpt lat="48.39879" lon="2.81009">
        <ele>114.40000152588</ele>
        <time>2020-01-16T14:39:32Z</time>
      </trkpt>
      <trkpt lat="48.39879" lon="2.8102">
        <ele>114.59999847412</ele>
        <time>2020-01-16T14:39:37Z</time>
      </trkpt>
      <trkpt lat="48.39878" lon="2.81029">
        <ele>115</ele>
        <time>2020-01-16T14:39:42Z</time>
      </trkpt>
      <trkpt lat="48.39878" lon="2.81038">
        <ele>115.19999694824</ele>
        <time>2020-01-16T14:39:47Z</time>
      </trkpt>
      <trkpt lat="48.39878" lon="2.81045">
        <ele>115.19999694824</ele>
        <time>2020-01-16T14:39:52Z</time>
      </trkpt>
      <trkpt lat="48.39878" lon="2.81054">
        <ele>115.40000152588</ele>
        <time>2020-01-16T14:39:57Z</time>
      </trkpt>
      <trkpt lat="48.39879" lon="2.81063">
        <ele>116</ele>
        <time>2020-01-16T14:40:02Z</time>
      </trkpt>
      <trkpt lat="48.39882" lon="2.81071">
        <ele>116</ele>
        <time>2020-01-16T14:40:07Z</time>
      </trkpt>
      <trkpt lat="48.39881" lon="2.81079">
        <ele>116.19999694824</ele>
        <time>2020-01-16T14:40:12Z</time>
      </trkpt>
      <trkpt lat="48.39881" lon="2.81089">
        <ele>116.40000152588</ele>
        <time>2020-01-16T14:40:17Z</time>
      </trkpt>
      <trkpt lat="48.39881" lon="2.81096">
        <ele>116.59999847412</ele>
        <time>2020-01-16T14:40:22Z</time>
      </trkpt>
      <trkpt lat="48.39882" lon="2.81103">
        <ele>116.59999847412</ele>
        <time>2020-01-16T14:40:27Z</time>
      </trkpt>
      <trkpt lat="48.39884" lon="2.8111">
        <ele>116.80000305176</ele>
        <time>2020-01-16T14:40:32Z</time>
      </trkpt>
      <trkpt lat="48.39886" lon="2.81116">
        <ele>117.19999694824</ele>
        <time>2020-01-16T14:40:37Z</time>
      </trkpt>
      <trkpt lat="48.39888" lon="2.81125">
        <ele>117.19999694824</ele>
        <time>2020-01-16T14:40:42Z</time>
      </trkpt>
      <trkpt lat="48.39888" lon="2.81132">
        <ele>117.40000152588</ele>
        <time>2020-01-16T14:40:47Z</time>
      </trkpt>
      <trkpt lat="48.39888" lon="2.81141">
        <ele>117.59999847412</ele>
        <time>2020-01-16T14:40:52Z</time>
      </trkpt>
      <trkpt lat="48.39891" lon="2.8115">
        <ele>117.80000305176</ele>
        <time>2020-01-16T14:40:57Z</time>
      </trkpt>
      <trkpt lat="48.39891" lon="2.81157">
        <ele>117.80000305176</ele>
        <time>2020-01-16T14:41:02Z</time>
      </trkpt>
      <trkpt lat="48.39892" lon="2.81165">
        <ele>118</ele>
        <time>2020-01-16T14:41:07Z</time>
      </trkpt>
      <trkpt lat="48.39893" lon="2.81171">
        <ele>118.40000152588</ele>
        <time>2020-01-16T14:41:12Z</time>
      </trkpt>
      <trkpt lat="48.39893" lon="2.81179">
        <ele>118.40000152588</ele>
        <time>2020-01-16T14:41:17Z</time>
      </trkpt>
      <trkpt lat="48.39892" lon="2.81187">
        <ele>118.59999847412</ele>
        <time>2020-01-16T14:41:22Z</time>
      </trkpt>
      <trkpt lat="48.39891" lon="2.81196">
        <ele>118.80000305176</ele>
        <time>2020-01-16T14:41:27Z</time>
      </trkpt>
      <trkpt lat="48.3989" lon="2.81204">
        <ele>119</ele>
        <time>2020-01-16T14:41:32Z</time>
      </trkpt>
      <trkpt lat="48.3989" lon="2.81212">
        <ele>119.40000152588</ele>
        <time>2020-01-16T14:41:37Z</time>
      </trkpt>
      <trkpt lat="48.39892" lon="2.81223">
        <ele>119.59999847412</ele>
        <time>2020-01-16T14:41:42Z</time>
      </trkpt>
      <trkpt lat="48.3989" lon="2.81234">
        <ele>120</ele>
        <time>2020-01-16T14:41:47Z</time>
      </trkpt>
      <trkpt lat="48.39894" lon="2.81243">
        <ele>120</ele>
        <time>2020-01-16T14:41:52Z</time>
      </trkpt>
      <trkpt lat="48.39896" lon="2.81252">
        <ele>120.40000152588</ele>
        <time>2020-01-16T14:41:57Z</time>
      </trkpt>
      <trkpt lat="48.39898" lon="2.8126">
        <ele>120.19999694824</ele>
        <time>2020-01-16T14:42:02Z</time>
      </trkpt>
      <trkpt lat="48.39897" lon="2.81269">
        <ele>120.40000152588</ele>
        <time>2020-01-16T14:42:07Z</time>
      </trkpt>
      <trkpt lat="48.39897" lon="2.81281">
        <ele>120.40000152588</ele>
        <time>2020-01-16T14:42:12Z</time>
      </trkpt>
      <trkpt lat="48.39899" lon="2.8129">
        <ele>120.59999847412</ele>
        <time>2020-01-16T14:42:17Z</time>
      </trkpt>
      <trkpt lat="48.39898" lon="2.81298">
        <ele>121</ele>
        <time>2020-01-16T14:42:22Z</time>
      </trkpt>
      <trkpt lat="48.39898" lon="2.81309">
        <ele>121</ele>
        <time>2020-01-16T14:42:27Z</time>
      </trkpt>
      <trkpt lat="48.39899" lon="2.81317">
        <ele>121.40000152588</ele>
        <time>2020-01-16T14:42:32Z</time>
      </trkpt>
      <trkpt lat="48.39899" lon="2.81324">
        <ele>121.80000305176</ele>
        <time>2020-01-16T14:42:37Z</time>
      </trkpt>
      <trkpt lat="48.39899" lon="2.81333">
        <ele>122</ele>
        <time>2020-01-16T14:42:42Z</time>
      </trkpt>
      <trkpt lat="48.399" lon="2.81342">
        <ele>122.19999694824</ele>
        <time>2020-01-16T14:42:47Z</time>
      </trkpt>
      <trkpt lat="48.39902" lon="2.81351">
        <ele>122.19999694824</ele>
        <time>2020-01-16T14:42:52Z</time>
      </trkpt>
      <trkpt lat="48.39903" lon="2.81358">
        <ele>122.40000152588</ele>
        <time>2020-01-16T14:42:57Z</time>
      </trkpt>
      <trkpt lat="48.39904" lon="2.81366">
        <ele>122.59999847412</ele>
        <time>2020-01-16T14:43:02Z</time>
      </trkpt>
      <trkpt lat="48.39903" lon="2.81372">
        <ele>122.80000305176</ele>
        <time>2020-01-16T14:43:07Z</time>
      </trkpt>
      <trkpt lat="48.39903" lon="2.81381">
        <ele>123</ele>
        <time>2020-01-16T14:43:12Z</time>
      </trkpt>
      <trkpt lat="48.39904" lon="2.81387">
        <ele>123.19999694824</ele>
        <time>2020-01-16T14:43:17Z</time>
      </trkpt>
      <trkpt lat="48.39905" lon="2.81395">
        <ele>123.19999694824</ele>
        <time>2020-01-16T14:43:22Z</time>
      </trkpt>
      <trkpt lat="48.39905" lon="2.81403">
        <ele>123.19999694824</ele>
        <time>2020-01-16T14:43:27Z</time>
      </trkpt>
      <trkpt lat="48.39906" lon="2.81413">
        <ele>123.19999694824</ele>
        <time>2020-01-16T14:43:32Z</time>
      </trkpt>
      <trkpt lat="48.39905" lon="2.81421">
        <ele>123.40000152588</ele>
        <time>2020-01-16T14:43:37Z</time>
      </trkpt>
      <trkpt lat="48.39905" lon="2.81431">
        <ele>123.59999847412</ele>
        <time>2020-01-16T14:43:42Z</time>
      </trkpt>
      <trkpt lat="48.39906" lon="2.81439">
        <ele>123.80000305176</ele>
        <time>2020-01-16T14:43:47Z</time>
      </trkpt>
      <trkpt lat="48.39908" lon="2.81448">
        <ele>123.80000305176</ele>
        <time>2020-01-16T14:43:52Z</time>
      </trkpt>
      <trkpt lat="48.39908" lon="2.81457">
        <ele>124</ele>
        <time>2020-01-16T14:43:57Z</time>
      </trkpt>
      <trkpt lat="48.3991" lon="2.81466">
        <ele>124.19999694824</ele>
        <time>2020-01-16T14:44:02Z</time>
      </trkpt>
      <trkpt lat="48.3991" lon="2.81475">
        <ele>124.19999694824</ele>
        <time>2020-01-16T14:44:07Z</time>
      </trkpt>
      <trkpt lat="48.3991" lon="2.81483">
        <ele>124.40000152588</ele>
        <time>2020-01-16T14:44:12Z</time>
      </trkpt>
      <trkpt lat="48.3991" lon="2.81492">
        <ele>124.80000305176</ele>
        <time>2020-01-16T14:44:17Z</time>
      </trkpt>
      <trkpt lat="48.39909" lon="2.81502">
        <ele>125.19999694824</ele>
        <time>2020-01-16T14:44:22Z</time>
      </trkpt>
      <trkpt lat="48.3991" lon="2.8151">
        <ele>125.19999694824</ele>
        <time>2020-01-16T14:44:27Z</time>
      </trkpt>
      <trkpt lat="48.39912" lon="2.81518">
        <ele>125.19999694824</ele>
        <time>2020-01-16T14:44:32Z</time>
      </trkpt>
      <trkpt lat="48.39913" lon="2.81524">
        <ele>125.40000152588</ele>
        <time>2020-01-16T14:44:37Z</time>
      </trkpt>
      <trkpt lat="48.39913" lon="2.81533">
        <ele>125.40000152588</ele>
        <time>2020-01-16T14:44:42Z</time>
      </trkpt>
      <trkpt lat="48.39914" lon="2.8154">
        <ele>125.40000152588</ele>
        <time>2020-01-16T14:44:47Z</time>
      </trkpt>
      <trkpt lat="48.39912" lon="2.8155">
        <ele>125.40000152588</ele>
        <time>2020-01-16T14:44:52Z</time>
      </trkpt>
      <trkpt lat="48.39912" lon="2.81556">
        <ele>125.59999847412</ele>
        <time>2020-01-16T14:44:57Z</time>
      </trkpt>
      <trkpt lat="48.39912" lon="2.81563">
        <ele>125.59999847412</ele>
        <time>2020-01-16T14:45:02Z</time>
      </trkpt>
      <trkpt lat="48.39913" lon="2.81571">
        <ele>126</ele>
        <time>2020-01-16T14:45:07Z</time>
      </trkpt>
      <trkpt lat="48.39914" lon="2.81581">
        <ele>126</ele>
        <time>2020-01-16T14:45:12Z</time>
      </trkpt>
      <trkpt lat="48.39914" lon="2.81589">
        <ele>126</ele>
        <time>2020-01-16T14:45:17Z</time>
      </trkpt>
      <trkpt lat="48.39916" lon="2.81598">
        <ele>126.19999694824</ele>
        <time>2020-01-16T14:45:22Z</time>
      </trkpt>
      <trkpt lat="48.39918" lon="2.81606">
        <ele>126.40000152588</ele>
        <time>2020-01-16T14:45:27Z</time>
      </trkpt>
      <trkpt lat="48.39916" lon="2.81616">
        <ele>126.19999694824</ele>
        <time>2020-01-16T14:45:32Z</time>
      </trkpt>
      <trkpt lat="48.39915" lon="2.81625">
        <ele>126</ele>
        <time>2020-01-16T14:45:37Z</time>
      </trkpt>
      <trkpt lat="48.39916" lon="2.81635">
        <ele>126.40000152588</ele>
        <time>2020-01-16T14:45:42Z</time>
      </trkpt>
      <trkpt lat="48.39917" lon="2.81645">
        <ele>126.40000152588</ele>
        <time>2020-01-16T14:45:47Z</time>
      </trkpt>
      <trkpt lat="48.39917" lon="2.81655">
        <ele>126.59999847412</ele>
        <time>2020-01-16T14:45:52Z</time>
      </trkpt>
      <trkpt lat="48.39918" lon="2.81662">
        <ele>126.19999694824</ele>
        <time>2020-01-16T14:45:57Z</time>
      </trkpt>
      <trkpt lat="48.3992" lon="2.81669">
        <ele>126.80000305176</ele>
        <time>2020-01-16T14:46:02Z</time>
      </trkpt>
      <trkpt lat="48.3992" lon="2.81677">
        <ele>126.59999847412</ele>
        <time>2020-01-16T14:46:07Z</time>
      </trkpt>
      <trkpt lat="48.3992" lon="2.81685">
        <ele>126.40000152588</ele>
        <time>2020-01-16T14:46:12Z</time>
      </trkpt>
      <trkpt lat="48.39922" lon="2.81694">
        <ele>126.40000152588</ele>
        <time>2020-01-16T14:46:17Z</time>
      </trkpt>
      <trkpt lat="48.39922" lon="2.81702">
        <ele>126.19999694824</ele>
        <time>2020-01-16T14:46:22Z</time>
      </trkpt>
      <trkpt lat="48.39919" lon="2.81712">
        <ele>126.19999694824</ele>
        <time>2020-01-16T14:46:27Z</time>
      </trkpt>
      <trkpt lat="48.39919" lon="2.81721">
        <ele>126.19999694824</ele>
        <time>2020-01-16T14:46:32Z</time>
      </trkpt>
      <trkpt lat="48.3992" lon="2.81729">
        <ele>126.19999694824</ele>
        <time>2020-01-16T14:46:37Z</time>
      </trkpt>
      <trkpt lat="48.3992" lon="2.81741">
        <ele>126.19999694824</ele>
        <time>2020-01-16T14:46:42Z</time>
      </trkpt>
      <trkpt lat="48.39922" lon="2.81749">
        <ele>126.19999694824</ele>
        <time>2020-01-16T14:46:47Z</time>
      </trkpt>
      <trkpt lat="48.39923" lon="2.81757">
        <ele>125.80000305176</ele>
        <time>2020-01-16T14:46:52Z</time>
      </trkpt>
      <trkpt lat="48.39923" lon="2.81766">
        <ele>126</ele>
        <time>2020-01-16T14:46:57Z</time>
      </trkpt>
      <trkpt lat="48.39924" lon="2.81776">
        <ele>125.80000305176</ele>
        <time>2020-01-16T14:47:02Z</time>
      </trkpt>
      <trkpt lat="48.39926" lon="2.81785">
        <ele>125.80000305176</ele>
        <time>2020-01-16T14:47:07Z</time>
      </trkpt>
      <trkpt lat="48.39926" lon="2.81795">
        <ele>125.80000305176</ele>
        <time>2020-01-16T14:47:12Z</time>
      </trkpt>
      <trkpt lat="48.39926" lon="2.81803">
        <ele>125.80000305176</ele>
        <time>2020-01-16T14:47:17Z</time>
      </trkpt>
      <trkpt lat="48.39927" lon="2.8181">
        <ele>126</ele>
        <time>2020-01-16T14:47:22Z</time>
      </trkpt>
      <trkpt lat="48.39927" lon="2.8182">
        <ele>125.59999847412</ele>
        <time>2020-01-16T14:47:27Z</time>
      </trkpt>
      <trkpt lat="48.39928" lon="2.81829">
        <ele>125.59999847412</ele>
        <time>2020-01-16T14:47:32Z</time>
      </trkpt>
      <trkpt lat="48.39928" lon="2.8184">
        <ele>125.59999847412</ele>
        <time>2020-01-16T14:47:37Z</time>
      </trkpt>
      <trkpt lat="48.39927" lon="2.81846">
        <ele>126</ele>
        <time>2020-01-16T14:47:42Z</time>
      </trkpt>
      <trkpt lat="48.39927" lon="2.81855">
        <ele>126.19999694824</ele>
        <time>2020-01-16T14:47:47Z</time>
      </trkpt>
      <trkpt lat="48.39927" lon="2.81863">
        <ele>126</ele>
        <time>2020-01-16T14:47:52Z</time>
      </trkpt>
      <trkpt lat="48.39929" lon="2.81869">
        <ele>125.59999847412</ele>
        <time>2020-01-16T14:47:57Z</time>
      </trkpt>
      <trkpt lat="48.3993" lon="2.81877">
        <ele>125.59999847412</ele>
        <time>2020-01-16T14:48:02Z</time>
      </trkpt>
      <trkpt lat="48.3993" lon="2.81886">
        <ele>125.40000152588</ele>
        <time>2020-01-16T14:48:07Z</time>
      </trkpt>
      <trkpt lat="48.39932" lon="2.81895">
        <ele>125.40000152588</ele>
        <time>2020-01-16T14:48:12Z</time>
      </trkpt>
      <trkpt lat="48.39933" lon="2.81901">
        <ele>125.40000152588</ele>
        <time>2020-01-16T14:48:17Z</time>
      </trkpt>
      <trkpt lat="48.39933" lon="2.8191">
        <ele>125.59999847412</ele>
        <time>2020-01-16T14:48:22Z</time>
      </trkpt>
      <trkpt lat="48.39933" lon="2.81918">
        <ele>125.40000152588</ele>
        <time>2020-01-16T14:48:27Z</time>
      </trkpt>
      <trkpt lat="48.39933" lon="2.81927">
        <ele>125.40000152588</ele>
        <time>2020-01-16T14:48:32Z</time>
      </trkpt>
      <trkpt lat="48.39933" lon="2.81934">
        <ele>125</ele>
        <time>2020-01-16T14:48:37Z</time>
      </trkpt>
      <trkpt lat="48.39934" lon="2.81943">
        <ele>125</ele>
        <time>2020-01-16T14:48:42Z</time>
      </trkpt>
      <trkpt lat="48.39934" lon="2.81952">
        <ele>125</ele>
        <time>2020-01-16T14:48:47Z</time>
      </trkpt>
      <trkpt lat="48.39935" lon="2.81961">
        <ele>124.80000305176</ele>
        <time>2020-01-16T14:48:52Z</time>
      </trkpt>
      <trkpt lat="48.39935" lon="2.81968">
        <ele>124.80000305176</ele>
        <time>2020-01-16T14:48:57Z</time>
      </trkpt>
      <trkpt lat="48.39935" lon="2.81977">
        <ele>124.80000305176</ele>
        <time>2020-01-16T14:49:02Z</time>
      </trkpt>
      <trkpt lat="48.39935" lon="2.81987">
        <ele>124.59999847412</ele>
        <time>2020-01-16T14:49:07Z</time>
      </trkpt>
      <trkpt lat="48.39936" lon="2.81995">
        <ele>124.59999847412</ele>
        <time>2020-01-16T14:49:12Z</time>
      </trkpt>
      <trkpt lat="48.39937" lon="2.82004">
        <ele>124.59999847412</ele>
        <time>2020-01-16T14:49:17Z</time>
      </trkpt>
      <trkpt lat="48.39939" lon="2.82012">
        <ele>124.59999847412</ele>
        <time>2020-01-16T14:49:22Z</time>
      </trkpt>
      <trkpt lat="48.39939" lon="2.82019">
        <ele>124.59999847412</ele>
        <time>2020-01-16T14:49:27Z</time>
      </trkpt>
      <trkpt lat="48.3994" lon="2.82027">
        <ele>124.59999847412</ele>
        <time>2020-01-16T14:49:32Z</time>
      </trkpt>
      <trkpt lat="48.39942" lon="2.82034">
        <ele>124.40000152588</ele>
        <time>2020-01-16T14:49:37Z</time>
      </trkpt>
      <trkpt lat="48.39943" lon="2.82044">
        <ele>124.19999694824</ele>
        <time>2020-01-16T14:49:42Z</time>
      </trkpt>
      <trkpt lat="48.39942" lon="2.82051">
        <ele>124.19999694824</ele>
        <time>2020-01-16T14:49:47Z</time>
      </trkpt>
      <trkpt lat="48.39942" lon="2.8206">
        <ele>123.80000305176</ele>
        <time>2020-01-16T14:49:52Z</time>
      </trkpt>
      <trkpt lat="48.39941" lon="2.8207">
        <ele>123.59999847412</ele>
        <time>2020-01-16T14:49:57Z</time>
      </trkpt>
      <trkpt lat="48.39939" lon="2.82078">
        <ele>123.59999847412</ele>
        <time>2020-01-16T14:50:02Z</time>
      </trkpt>
      <trkpt lat="48.39938" lon="2.82083">
        <ele>123</ele>
        <time>2020-01-16T14:50:07Z</time>
      </trkpt>
      <trkpt lat="48.39939" lon="2.82091">
        <ele>122.80000305176</ele>
        <time>2020-01-16T14:50:12Z</time>
      </trkpt>
      <trkpt lat="48.39938" lon="2.82099">
        <ele>122.80000305176</ele>
        <time>2020-01-16T14:50:17Z</time>
      </trkpt>
      <trkpt lat="48.3994" lon="2.82108">
        <ele>122.80000305176</ele>
        <time>2020-01-16T14:50:22Z</time>
      </trkpt>
      <trkpt lat="48.39939" lon="2.82117">
        <ele>122.40000152588</ele>
        <time>2020-01-16T14:50:27Z</time>
      </trkpt>
      <trkpt lat="48.39939" lon="2.82126">
        <ele>122.19999694824</ele>
        <time>2020-01-16T14:50:32Z</time>
      </trkpt>
      <trkpt lat="48.3994" lon="2.82138">
        <ele>121.59999847412</ele>
        <time>2020-01-16T14:50:37Z</time>
      </trkpt>
      <trkpt lat="48.3994" lon="2.82146">
        <ele>121.40000152588</ele>
        <time>2020-01-16T14:50:42Z</time>
      </trkpt>
      <trkpt lat="48.3994" lon="2.82153">
        <ele>121</ele>
        <time>2020-01-16T14:50:47Z</time>
      </trkpt>
      <trkpt lat="48.3994" lon="2.82162">
        <ele>120.80000305176</ele>
        <time>2020-01-16T14:50:52Z</time>
      </trkpt>
      <trkpt lat="48.39943" lon="2.82169">
        <ele>120.80000305176</ele>
        <time>2020-01-16T14:50:57Z</time>
      </trkpt>
      <trkpt lat="48.39945" lon="2.82177">
        <ele>120.40000152588</ele>
        <time>2020-01-16T14:51:02Z</time>
      </trkpt>
      <trkpt lat="48.39944" lon="2.82186">
        <ele>120.40000152588</ele>
        <time>2020-01-16T14:51:07Z</time>
      </trkpt>
      <trkpt lat="48.39943" lon="2.82194">
        <ele>120</ele>
        <time>2020-01-16T14:51:12Z</time>
      </trkpt>
      <trkpt lat="48.39942" lon="2.82205">
        <ele>119.59999847412</ele>
        <time>2020-01-16T14:51:17Z</time>
      </trkpt>
      <trkpt lat="48.39942" lon="2.82213">
        <ele>119.40000152588</ele>
        <time>2020-01-16T14:51:22Z</time>
      </trkpt>
      <trkpt lat="48.39942" lon="2.8222">
        <ele>119</ele>
        <time>2020-01-16T14:51:27Z</time>
      </trkpt>
      <trkpt lat="48.39939" lon="2.82229">
        <ele>118.80000305176</ele>
        <time>2020-01-16T14:51:32Z</time>
      </trkpt>
      <trkpt lat="48.39939" lon="2.82234">
        <ele>118.40000152588</ele>
        <time>2020-01-16T14:51:37Z</time>
      </trkpt>
      <trkpt lat="48.39939" lon="2.8224">
        <ele>118.40000152588</ele>
        <time>2020-01-16T14:51:42Z</time>
      </trkpt>
      <trkpt lat="48.39937" lon="2.82248">
        <ele>118.19999694824</ele>
        <time>2020-01-16T14:51:47Z</time>
      </trkpt>
      <trkpt lat="48.39938" lon="2.82255">
        <ele>118</ele>
        <time>2020-01-16T14:51:52Z</time>
      </trkpt>
      <trkpt lat="48.39938" lon="2.82262">
        <ele>117.80000305176</ele>
        <time>2020-01-16T14:51:57Z</time>
      </trkpt>
      <trkpt lat="48.3994" lon="2.8227">
        <ele>117.59999847412</ele>
        <time>2020-01-16T14:52:02Z</time>
      </trkpt>
      <trkpt lat="48.39941" lon="2.82277">
        <ele>117.40000152588</ele>
        <time>2020-01-16T14:52:07Z</time>
      </trkpt>
      <trkpt lat="48.39943" lon="2.82285">
        <ele>117</ele>
        <time>2020-01-16T14:52:12Z</time>
      </trkpt>
      <trkpt lat="48.39943" lon="2.82296">
        <ele>117</ele>
        <time>2020-01-16T14:52:17Z</time>
      </trkpt>
      <trkpt lat="48.39943" lon="2.82304">
        <ele>116.80000305176</ele>
        <time>2020-01-16T14:52:22Z</time>
      </trkpt>
      <trkpt lat="48.39942" lon="2.82318">
        <ele>116.80000305176</ele>
        <time>2020-01-16T14:52:27Z</time>
      </trkpt>
      <trkpt lat="48.3994" lon="2.82328">
        <ele>116.80000305176</ele>
        <time>2020-01-16T14:52:32Z</time>
      </trkpt>
      <trkpt lat="48.39942" lon="2.82335">
        <ele>116.59999847412</ele>
        <time>2020-01-16T14:52:37Z</time>
      </trkpt>
      <trkpt lat="48.39943" lon="2.82343">
        <ele>116.40000152588</ele>
        <time>2020-01-16T14:52:42Z</time>
      </trkpt>
      <trkpt lat="48.39944" lon="2.82348">
        <ele>116.40000152588</ele>
        <time>2020-01-16T14:52:47Z</time>
      </trkpt>
      <trkpt lat="48.39945" lon="2.82355">
        <ele>116</ele>
        <time>2020-01-16T14:52:52Z</time>
      </trkpt>
      <trkpt lat="48.39944" lon="2.82364">
        <ele>115.80000305176</ele>
        <time>2020-01-16T14:52:57Z</time>
      </trkpt>
      <trkpt lat="48.39943" lon="2.82372">
        <ele>115.59999847412</ele>
        <time>2020-01-16T14:53:02Z</time>
      </trkpt>
      <trkpt lat="48.3994" lon="2.82385">
        <ele>115.40000152588</ele>
        <time>2020-01-16T14:53:07Z</time>
      </trkpt>
      <trkpt lat="48.39939" lon="2.82395">
        <ele>115.19999694824</ele>
        <time>2020-01-16T14:53:12Z</time>
      </trkpt>
      <trkpt lat="48.39939" lon="2.82403">
        <ele>114.80000305176</ele>
        <time>2020-01-16T14:53:17Z</time>
      </trkpt>
      <trkpt lat="48.39938" lon="2.82413">
        <ele>114.80000305176</ele>
        <time>2020-01-16T14:53:22Z</time>
      </trkpt>
      <trkpt lat="48.39938" lon="2.82422">
        <ele>114.40000152588</ele>
        <time>2020-01-16T14:53:27Z</time>
      </trkpt>
      <trkpt lat="48.39937" lon="2.82433">
        <ele>114.19999694824</ele>
        <time>2020-01-16T14:53:32Z</time>
      </trkpt>
      <trkpt lat="48.39935" lon="2.82442">
        <ele>114.19999694824</ele>
        <time>2020-01-16T14:53:37Z</time>
      </trkpt>
      <trkpt lat="48.39934" lon="2.82449">
        <ele>114</ele>
        <time>2020-01-16T14:53:42Z</time>
      </trkpt>
      <trkpt lat="48.39933" lon="2.82456">
        <ele>113.80000305176</ele>
        <time>2020-01-16T14:53:47Z</time>
      </trkpt>
      <trkpt lat="48.39932" lon="2.82462">
        <ele>113.59999847412</ele>
        <time>2020-01-16T14:53:52Z</time>
      </trkpt>
      <trkpt lat="48.39932" lon="2.82468">
        <ele>113.40000152588</ele>
        <time>2020-01-16T14:53:57Z</time>
      </trkpt>
      <trkpt lat="48.39933" lon="2.82473">
        <ele>113.40000152588</ele>
        <time>2020-01-16T14:54:02Z</time>
      </trkpt>
      <trkpt lat="48.39934" lon="2.82482">
        <ele>113.19999694824</ele>
        <time>2020-01-16T14:54:07Z</time>
      </trkpt>
      <trkpt lat="48.39934" lon="2.82491">
        <ele>113</ele>
        <time>2020-01-16T14:54:12Z</time>
      </trkpt>
      <trkpt lat="48.39934" lon="2.825">
        <ele>113</ele>
        <time>2020-01-16T14:54:17Z</time>
      </trkpt>
      <trkpt lat="48.39934" lon="2.82511">
        <ele>113</ele>
        <time>2020-01-16T14:54:22Z</time>
      </trkpt>
      <trkpt lat="48.39935" lon="2.82518">
        <ele>112.80000305176</ele>
        <time>2020-01-16T14:54:27Z</time>
      </trkpt>
      <trkpt lat="48.39933" lon="2.82527">
        <ele>112.80000305176</ele>
        <time>2020-01-16T14:54:32Z</time>
      </trkpt>
      <trkpt lat="48.39933" lon="2.82534">
        <ele>112.80000305176</ele>
        <time>2020-01-16T14:54:37Z</time>
      </trkpt>
      <trkpt lat="48.39933" lon="2.82543">
        <ele>112.80000305176</ele>
        <time>2020-01-16T14:54:42Z</time>
      </trkpt>
      <trkpt lat="48.39934" lon="2.82552">
        <ele>112.59999847412</ele>
        <time>2020-01-16T14:54:47Z</time>
      </trkpt>
      <trkpt lat="48.39933" lon="2.82558">
        <ele>112.59999847412</ele>
        <time>2020-01-16T14:54:52Z</time>
      </trkpt>
      <trkpt lat="48.39928" lon="2.82562">
        <ele>112.40000152588</ele>
        <time>2020-01-16T14:54:57Z</time>
      </trkpt>
      <trkpt lat="48.39924" lon="2.82564">
        <ele>112.19999694824</ele>
        <time>2020-01-16T14:55:02Z</time>
      </trkpt>
      <trkpt lat="48.3992" lon="2.82564">
        <ele>111.59999847412</ele>
        <time>2020-01-16T14:55:07Z</time>
      </trkpt>
      <trkpt lat="48.39916" lon="2.82566">
        <ele>111.19999694824</ele>
        <time>2020-01-16T14:55:12Z</time>
      </trkpt>
      <trkpt lat="48.3991" lon="2.82569">
        <ele>111</ele>
        <time>2020-01-16T14:55:17Z</time>
      </trkpt>
      <trkpt lat="48.39904" lon="2.82568">
        <ele>110.59999847412</ele>
        <time>2020-01-16T14:55:22Z</time>
      </trkpt>
      <trkpt lat="48.39899" lon="2.82569">
        <ele>110.59999847412</ele>
        <time>2020-01-16T14:55:27Z</time>
      </trkpt>
      <trkpt lat="48.39895" lon="2.82562">
        <ele>110.40000152588</ele>
        <time>2020-01-16T14:55:32Z</time>
      </trkpt>
      <trkpt lat="48.39892" lon="2.82555">
        <ele>110</ele>
        <time>2020-01-16T14:55:37Z</time>
      </trkpt>
      <trkpt lat="48.39891" lon="2.82549">
        <ele>110</ele>
        <time>2020-01-16T14:55:42Z</time>
      </trkpt>
      <trkpt lat="48.39889" lon="2.82544">
        <ele>110</ele>
        <time>2020-01-16T14:55:47Z</time>
      </trkpt>
      <trkpt lat="48.39886" lon="2.82537">
        <ele>110</ele>
        <time>2020-01-16T14:55:52Z</time>
      </trkpt>
      <trkpt lat="48.39886" lon="2.82531">
        <ele>110.19999694824</ele>
        <time>2020-01-16T14:55:57Z</time>
      </trkpt>
      <trkpt lat="48.39884" lon="2.82524">
        <ele>110.19999694824</ele>
        <time>2020-01-16T14:56:02Z</time>
      </trkpt>
      <trkpt lat="48.39883" lon="2.82515">
        <ele>110.59999847412</ele>
        <time>2020-01-16T14:56:07Z</time>
      </trkpt>
      <trkpt lat="48.39883" lon="2.82509">
        <ele>110.80000305176</ele>
        <time>2020-01-16T14:56:12Z</time>
      </trkpt>
      <trkpt lat="48.39881" lon="2.825">
        <ele>111.19999694824</ele>
        <time>2020-01-16T14:56:17Z</time>
      </trkpt>
      <trkpt lat="48.3988" lon="2.82489">
        <ele>111</ele>
        <time>2020-01-16T14:56:22Z</time>
      </trkpt>
      <trkpt lat="48.39877" lon="2.82482">
        <ele>111.19999694824</ele>
        <time>2020-01-16T14:56:27Z</time>
      </trkpt>
      <trkpt lat="48.39872" lon="2.82468">
        <ele>111.19999694824</ele>
        <time>2020-01-16T14:56:32Z</time>
      </trkpt>
      <trkpt lat="48.3987" lon="2.82461">
        <ele>111.40000152588</ele>
        <time>2020-01-16T14:56:37Z</time>
      </trkpt>
      <trkpt lat="48.39866" lon="2.82453">
        <ele>111.40000152588</ele>
        <time>2020-01-16T14:56:42Z</time>
      </trkpt>
      <trkpt lat="48.39862" lon="2.82447">
        <ele>111.59999847412</ele>
        <time>2020-01-16T14:56:47Z</time>
      </trkpt>
      <trkpt lat="48.39857" lon="2.82438">
        <ele>111.80000305176</ele>
        <time>2020-01-16T14:56:52Z</time>
      </trkpt>
      <trkpt lat="48.39854" lon="2.82432">
        <ele>111.80000305176</ele>
        <time>2020-01-16T14:56:57Z</time>
      </trkpt>
      <trkpt lat="48.39847" lon="2.82428">
        <ele>111.80000305176</ele>
        <time>2020-01-16T14:57:02Z</time>
      </trkpt>
      <trkpt lat="48.39841" lon="2.82424">
        <ele>111.80000305176</ele>
        <time>2020-01-16T14:57:07Z</time>
      </trkpt>
      <trkpt lat="48.39836" lon="2.82419">
        <ele>111.80000305176</ele>
        <time>2020-01-16T14:57:12Z</time>
      </trkpt>
      <trkpt lat="48.39831" lon="2.82412">
        <ele>112</ele>
        <time>2020-01-16T14:57:17Z</time>
      </trkpt>
      <trkpt lat="48.39827" lon="2.82409">
        <ele>111.80000305176</ele>
        <time>2020-01-16T14:57:22Z</time>
      </trkpt>
      <trkpt lat="48.39821" lon="2.82407">
        <ele>111.80000305176</ele>
        <time>2020-01-16T14:57:27Z</time>
      </trkpt>
      <trkpt lat="48.39814" lon="2.82405">
        <ele>111.80000305176</ele>
        <time>2020-01-16T14:57:32Z</time>
      </trkpt>
      <trkpt lat="48.39809" lon="2.82403">
        <ele>111.59999847412</ele>
        <time>2020-01-16T14:57:37Z</time>
      </trkpt>
      <trkpt lat="48.39805" lon="2.82399">
        <ele>111.59999847412</ele>
        <time>2020-01-16T14:57:42Z</time>
      </trkpt>
      <trkpt lat="48.39802" lon="2.82395">
        <ele>111.59999847412</ele>
        <time>2020-01-16T14:57:47Z</time>
      </trkpt>
      <trkpt lat="48.39799" lon="2.82388">
        <ele>111.59999847412</ele>
        <time>2020-01-16T14:57:52Z</time>
      </trkpt>
      <trkpt lat="48.39796" lon="2.82383">
        <ele>111.40000152588</ele>
        <time>2020-01-16T14:57:57Z</time>
      </trkpt>
      <trkpt lat="48.39795" lon="2.82372">
        <ele>111.40000152588</ele>
        <time>2020-01-16T14:58:02Z</time>
      </trkpt>
      <trkpt lat="48.39793" lon="2.82369">
        <ele>111.19999694824</ele>
        <time>2020-01-16T14:58:07Z</time>
      </trkpt>
      <trkpt lat="48.39786" lon="2.82369">
        <ele>111</ele>
        <time>2020-01-16T14:58:12Z</time>
      </trkpt>
      <trkpt lat="48.39781" lon="2.82368">
        <ele>110.80000305176</ele>
        <time>2020-01-16T14:58:17Z</time>
      </trkpt>
      <trkpt lat="48.39773" lon="2.82373">
        <ele>110.59999847412</ele>
        <time>2020-01-16T14:58:22Z</time>
      </trkpt>
      <trkpt lat="48.39769" lon="2.82374">
        <ele>110.40000152588</ele>
        <time>2020-01-16T14:58:27Z</time>
      </trkpt>
      <trkpt lat="48.39763" lon="2.82374">
        <ele>110</ele>
        <time>2020-01-16T14:58:32Z</time>
      </trkpt>
      <trkpt lat="48.39757" lon="2.8238">
        <ele>109.80000305176</ele>
        <time>2020-01-16T14:58:37Z</time>
      </trkpt>
      <trkpt lat="48.3975" lon="2.8238">
        <ele>109.59999847412</ele>
        <time>2020-01-16T14:58:42Z</time>
      </trkpt>
      <trkpt lat="48.39745" lon="2.8238">
        <ele>109.59999847412</ele>
        <time>2020-01-16T14:58:47Z</time>
      </trkpt>
      <trkpt lat="48.39739" lon="2.82378">
        <ele>109.59999847412</ele>
        <time>2020-01-16T14:58:52Z</time>
      </trkpt>
      <trkpt lat="48.39735" lon="2.82375">
        <ele>109.40000152588</ele>
        <time>2020-01-16T14:58:57Z</time>
      </trkpt>
      <trkpt lat="48.3973" lon="2.82371">
        <ele>109.19999694824</ele>
        <time>2020-01-16T14:59:02Z</time>
      </trkpt>
      <trkpt lat="48.39724" lon="2.82372">
        <ele>109</ele>
        <time>2020-01-16T14:59:07Z</time>
      </trkpt>
      <trkpt lat="48.39718" lon="2.82372">
        <ele>108.80000305176</ele>
        <time>2020-01-16T14:59:12Z</time>
      </trkpt>
      <trkpt lat="48.3971" lon="2.82374">
        <ele>108.80000305176</ele>
        <time>2020-01-16T14:59:17Z</time>
      </trkpt>
      <trkpt lat="48.39703" lon="2.82374">
        <ele>108.40000152588</ele>
        <time>2020-01-16T14:59:22Z</time>
      </trkpt>
      <trkpt lat="48.39697" lon="2.82375">
        <ele>108</ele>
        <time>2020-01-16T14:59:27Z</time>
      </trkpt>
      <trkpt lat="48.39691" lon="2.82377">
        <ele>107.80000305176</ele>
        <time>2020-01-16T14:59:32Z</time>
      </trkpt>
      <trkpt lat="48.39684" lon="2.82378">
        <ele>107.80000305176</ele>
        <time>2020-01-16T14:59:37Z</time>
      </trkpt>
      <trkpt lat="48.39678" lon="2.82378">
        <ele>107.80000305176</ele>
        <time>2020-01-16T14:59:42Z</time>
      </trkpt>
      <trkpt lat="48.39672" lon="2.82377">
        <ele>107.59999847412</ele>
        <time>2020-01-16T14:59:47Z</time>
      </trkpt>
      <trkpt lat="48.39665" lon="2.82374">
        <ele>107.80000305176</ele>
        <time>2020-01-16T14:59:52Z</time>
      </trkpt>
      <trkpt lat="48.39657" lon="2.82374">
        <ele>107.59999847412</ele>
        <time>2020-01-16T14:59:57Z</time>
      </trkpt>
      <trkpt lat="48.3965" lon="2.82376">
        <ele>107.59999847412</ele>
        <time>2020-01-16T15:00:02Z</time>
      </trkpt>
      <trkpt lat="48.39644" lon="2.82377">
        <ele>107.19999694824</ele>
        <time>2020-01-16T15:00:07Z</time>
      </trkpt>
      <trkpt lat="48.39638" lon="2.82377">
        <ele>107</ele>
        <time>2020-01-16T15:00:12Z</time>
      </trkpt>
      <trkpt lat="48.39632" lon="2.82377">
        <ele>107</ele>
        <time>2020-01-16T15:00:17Z</time>
      </trkpt>
      <trkpt lat="48.39629" lon="2.82376">
        <ele>106.80000305176</ele>
        <time>2020-01-16T15:00:22Z</time>
      </trkpt>
      <trkpt lat="48.39625" lon="2.82373">
        <ele>106.80000305176</ele>
        <time>2020-01-16T15:00:27Z</time>
      </trkpt>
      <trkpt lat="48.39623" lon="2.82368">
        <ele>106.59999847412</ele>
        <time>2020-01-16T15:00:32Z</time>
      </trkpt>
      <trkpt lat="48.39619" lon="2.82362">
        <ele>106.59999847412</ele>
        <time>2020-01-16T15:00:37Z</time>
      </trkpt>
      <trkpt lat="48.39618" lon="2.82355">
        <ele>106.80000305176</ele>
        <time>2020-01-16T15:00:42Z</time>
      </trkpt>
      <trkpt lat="48.39618" lon="2.82346">
        <ele>107.19999694824</ele>
        <time>2020-01-16T15:00:47Z</time>
      </trkpt>
      <trkpt lat="48.39617" lon="2.82338">
        <ele>107.40000152588</ele>
        <time>2020-01-16T15:00:52Z</time>
      </trkpt>
      <trkpt lat="48.39618" lon="2.82329">
        <ele>107.80000305176</ele>
        <time>2020-01-16T15:00:57Z</time>
      </trkpt>
      <trkpt lat="48.39616" lon="2.82322">
        <ele>108.19999694824</ele>
        <time>2020-01-16T15:01:02Z</time>
      </trkpt>
      <trkpt lat="48.39616" lon="2.82314">
        <ele>108.40000152588</ele>
        <time>2020-01-16T15:01:07Z</time>
      </trkpt>
      <trkpt lat="48.39617" lon="2.82306">
        <ele>108.80000305176</ele>
        <time>2020-01-16T15:01:12Z</time>
      </trkpt>
      <trkpt lat="48.39618" lon="2.82301">
        <ele>109.19999694824</ele>
        <time>2020-01-16T15:01:17Z</time>
      </trkpt>
      <trkpt lat="48.39619" lon="2.82298">
        <ele>109.59999847412</ele>
        <time>2020-01-16T15:01:22Z</time>
      </trkpt>
      <trkpt lat="48.39621" lon="2.82293">
        <ele>110.19999694824</ele>
        <time>2020-01-16T15:01:27Z</time>
      </trkpt>
      <trkpt lat="48.39623" lon="2.82289">
        <ele>110.59999847412</ele>
        <time>2020-01-16T15:01:32Z</time>
      </trkpt>
      <trkpt lat="48.39622" lon="2.82289">
        <ele>110.59999847412</ele>
        <time>2020-01-16T15:01:37Z</time>
      </trkpt>
      <trkpt lat="48.39622" lon="2.82286">
        <ele>110.59999847412</ele>
        <time>2020-01-16T15:01:42Z</time>
      </trkpt>
      <trkpt lat="48.39619" lon="2.82288">
        <ele>110.59999847412</ele>
        <time>2020-01-16T15:01:47Z</time>
      </trkpt>
      <trkpt lat="48.39617" lon="2.8229">
        <ele>110.40000152588</ele>
        <time>2020-01-16T15:01:52Z</time>
      </trkpt>
      <trkpt lat="48.39616" lon="2.82289">
        <ele>110.59999847412</ele>
        <time>2020-01-16T15:01:57Z</time>
      </trkpt>
      <trkpt lat="48.39615" lon="2.8229">
        <ele>110.59999847412</ele>
        <time>2020-01-16T15:02:02Z</time>
      </trkpt>
      <trkpt lat="48.39615" lon="2.8229">
        <ele>110.59999847412</ele>
        <time>2020-01-16T15:02:07Z</time>
      </trkpt>
      <trkpt lat="48.39616" lon="2.82289">
        <ele>110.59999847412</ele>
        <time>2020-01-16T15:02:12Z</time>
      </trkpt>
      <trkpt lat="48.39617" lon="2.82288">
        <ele>110.40000152588</ele>
        <time>2020-01-16T15:02:17Z</time>
      </trkpt>
      <trkpt lat="48.39616" lon="2.82286">
        <ele>110.40000152588</ele>
        <time>2020-01-16T15:02:22Z</time>
      </trkpt>
      <trkpt lat="48.39617" lon="2.82286">
        <ele>110.40000152588</ele>
        <time>2020-01-16T15:02:27Z</time>
      </trkpt>
      <trkpt lat="48.39617" lon="2.82285">
        <ele>110.40000152588</ele>
        <time>2020-01-16T15:02:32Z</time>
      </trkpt>
      <trkpt lat="48.39618" lon="2.82284">
        <ele>110.40000152588</ele>
        <time>2020-01-16T15:02:37Z</time>
      </trkpt>
      <trkpt lat="48.39618" lon="2.82285">
        <ele>110.40000152588</ele>
        <time>2020-01-16T15:02:42Z</time>
      </trkpt>
      <trkpt lat="48.39618" lon="2.82286">
        <ele>110.19999694824</ele>
        <time>2020-01-16T15:02:47Z</time>
      </trkpt>
      <trkpt lat="48.39617" lon="2.82288">
        <ele>110.19999694824</ele>
        <time>2020-01-16T15:02:52Z</time>
      </trkpt>
      <trkpt lat="48.39616" lon="2.8229">
        <ele>110.19999694824</ele>
        <time>2020-01-16T15:02:57Z</time>
      </trkpt>
      <trkpt lat="48.39615" lon="2.8229">
        <ele>110.19999694824</ele>
        <time>2020-01-16T15:03:02Z</time>
      </trkpt>
      <trkpt lat="48.39615" lon="2.82288">
        <ele>110.19999694824</ele>
        <time>2020-01-16T15:03:07Z</time>
      </trkpt>
      <trkpt lat="48.39614" lon="2.82289">
        <ele>110.40000152588</ele>
        <time>2020-01-16T15:03:12Z</time>
      </trkpt>
      <trkpt lat="48.39614" lon="2.8229">
        <ele>110.40000152588</ele>
        <time>2020-01-16T15:03:17Z</time>
      </trkpt>
      <trkpt lat="48.39614" lon="2.8229">
        <ele>110.59999847412</ele>
        <time>2020-01-16T15:03:22Z</time>
      </trkpt>
      <trkpt lat="48.39614" lon="2.8229">
        <ele>110.40000152588</ele>
        <time>2020-01-16T15:03:27Z</time>
      </trkpt>
      <trkpt lat="48.39614" lon="2.82289">
        <ele>110.40000152588</ele>
        <time>2020-01-16T15:03:32Z</time>
      </trkpt>
      <trkpt lat="48.39614" lon="2.82289">
        <ele>110.59999847412</ele>
        <time>2020-01-16T15:03:37Z</time>
      </trkpt>
      <trkpt lat="48.39614" lon="2.82288">
        <ele>110.59999847412</ele>
        <time>2020-01-16T15:03:42Z</time>
      </trkpt>
      <trkpt lat="48.39614" lon="2.82285">
        <ele>110.59999847412</ele>
        <time>2020-01-16T15:03:47Z</time>
      </trkpt>
      <trkpt lat="48.39614" lon="2.82284">
        <ele>110.59999847412</ele>
        <time>2020-01-16T15:03:52Z</time>
      </trkpt>
      <trkpt lat="48.39612" lon="2.82286">
        <ele>110.59999847412</ele>
        <time>2020-01-16T15:03:57Z</time>
      </trkpt>
      <trkpt lat="48.39613" lon="2.82286">
        <ele>110.40000152588</ele>
        <time>2020-01-16T15:04:02Z</time>
      </trkpt>
      <trkpt lat="48.39614" lon="2.82286">
        <ele>110.40000152588</ele>
        <time>2020-01-16T15:04:07Z</time>
      </trkpt>
      <trkpt lat="48.39614" lon="2.82285">
        <ele>110.40000152588</ele>
        <time>2020-01-16T15:04:12Z</time>
      </trkpt>
      <trkpt lat="48.39614" lon="2.82284">
        <ele>110.40000152588</ele>
        <time>2020-01-16T15:04:17Z</time>
      </trkpt>
      <trkpt lat="48.39615" lon="2.82283">
        <ele>110.40000152588</ele>
        <time>2020-01-16T15:04:22Z</time>
      </trkpt>
      <trkpt lat="48.39616" lon="2.82282">
        <ele>110.19999694824</ele>
        <time>2020-01-16T15:04:27Z</time>
      </trkpt>
      <trkpt lat="48.39612" lon="2.82284">
        <ele>110.19999694824</ele>
        <time>2020-01-16T15:04:32Z</time>
      </trkpt>
      <trkpt lat="48.39607" lon="2.82289">
        <ele>110</ele>
        <time>2020-01-16T15:04:37Z</time>
      </trkpt>
      <trkpt lat="48.39602" lon="2.82292">
        <ele>110</ele>
        <time>2020-01-16T15:04:42Z</time>
      </trkpt>
      <trkpt lat="48.39597" lon="2.82294">
        <ele>109.80000305176</ele>
        <time>2020-01-16T15:04:47Z</time>
      </trkpt>
      <trkpt lat="48.3959" lon="2.82298">
        <ele>109.59999847412</ele>
        <time>2020-01-16T15:04:52Z</time>
      </trkpt>
      <trkpt lat="48.39585" lon="2.823">
        <ele>109.40000152588</ele>
        <time>2020-01-16T15:04:57Z</time>
      </trkpt>
      <trkpt lat="48.39581" lon="2.82298">
        <ele>109.19999694824</ele>
        <time>2020-01-16T15:05:02Z</time>
      </trkpt>
      <trkpt lat="48.39575" lon="2.82295">
        <ele>109</ele>
        <time>2020-01-16T15:05:07Z</time>
      </trkpt>
      <trkpt lat="48.39569" lon="2.82292">
        <ele>108.80000305176</ele>
        <time>2020-01-16T15:05:12Z</time>
      </trkpt>
      <trkpt lat="48.39563" lon="2.82291">
        <ele>108.19999694824</ele>
        <time>2020-01-16T15:05:17Z</time>
      </trkpt>
      <trkpt lat="48.39557" lon="2.82289">
        <ele>107.59999847412</ele>
        <time>2020-01-16T15:05:22Z</time>
      </trkpt>
      <trkpt lat="48.3955" lon="2.82288">
        <ele>107.19999694824</ele>
        <time>2020-01-16T15:05:27Z</time>
      </trkpt>
      <trkpt lat="48.39543" lon="2.82287">
        <ele>106.80000305176</ele>
        <time>2020-01-16T15:05:32Z</time>
      </trkpt>
      <trkpt lat="48.39538" lon="2.82289">
        <ele>106.19999694824</ele>
        <time>2020-01-16T15:05:37Z</time>
      </trkpt>
      <trkpt lat="48.39535" lon="2.82289">
        <ele>105.80000305176</ele>
        <time>2020-01-16T15:05:42Z</time>
      </trkpt>
      <trkpt lat="48.39532" lon="2.82292">
        <ele>105.40000152588</ele>
        <time>2020-01-16T15:05:47Z</time>
      </trkpt>
      <trkpt lat="48.39528" lon="2.82296">
        <ele>104.80000305176</ele>
        <time>2020-01-16T15:05:52Z</time>
      </trkpt>
      <trkpt lat="48.39521" lon="2.82302">
        <ele>104.59999847412</ele>
        <time>2020-01-16T15:05:57Z</time>
      </trkpt>
      <trkpt lat="48.39514" lon="2.82307">
        <ele>103.80000305176</ele>
        <time>2020-01-16T15:06:02Z</time>
      </trkpt>
      <trkpt lat="48.39507" lon="2.8231">
        <ele>103</ele>
        <time>2020-01-16T15:06:07Z</time>
      </trkpt>
      <trkpt lat="48.39503" lon="2.82312">
        <ele>102.80000305176</ele>
        <time>2020-01-16T15:06:12Z</time>
      </trkpt>
      <trkpt lat="48.39496" lon="2.82312">
        <ele>102.19999694824</ele>
        <time>2020-01-16T15:06:17Z</time>
      </trkpt>
      <trkpt lat="48.3949" lon="2.82306">
        <ele>101.80000305176</ele>
        <time>2020-01-16T15:06:22Z</time>
      </trkpt>
      <trkpt lat="48.39487" lon="2.82301">
        <ele>101.19999694824</ele>
        <time>2020-01-16T15:06:27Z</time>
      </trkpt>
      <trkpt lat="48.39483" lon="2.82297">
        <ele>100.80000305176</ele>
        <time>2020-01-16T15:06:32Z</time>
      </trkpt>
      <trkpt lat="48.39478" lon="2.82291">
        <ele>100.40000152588</ele>
        <time>2020-01-16T15:06:37Z</time>
      </trkpt>
      <trkpt lat="48.39474" lon="2.82289">
        <ele>100</ele>
        <time>2020-01-16T15:06:42Z</time>
      </trkpt>
      <trkpt lat="48.39469" lon="2.8229">
        <ele>99.599998474121</ele>
        <time>2020-01-16T15:06:47Z</time>
      </trkpt>
      <trkpt lat="48.39463" lon="2.8229">
        <ele>99.400001525879</ele>
        <time>2020-01-16T15:06:52Z</time>
      </trkpt>
      <trkpt lat="48.39457" lon="2.82291">
        <ele>98.800003051758</ele>
        <time>2020-01-16T15:06:57Z</time>
      </trkpt>
      <trkpt lat="48.39452" lon="2.82293">
        <ele>98.400001525879</ele>
        <time>2020-01-16T15:07:02Z</time>
      </trkpt>
      <trkpt lat="48.39449" lon="2.82289">
        <ele>97.800003051758</ele>
        <time>2020-01-16T15:07:07Z</time>
      </trkpt>
      <trkpt lat="48.3945" lon="2.82281">
        <ele>97.800003051758</ele>
        <time>2020-01-16T15:07:12Z</time>
      </trkpt>
      <trkpt lat="48.39451" lon="2.82274">
        <ele>98</ele>
        <time>2020-01-16T15:07:17Z</time>
      </trkpt>
      <trkpt lat="48.39452" lon="2.8227">
        <ele>98.199996948242</ele>
        <time>2020-01-16T15:07:22Z</time>
      </trkpt>
      <trkpt lat="48.39453" lon="2.82263">
        <ele>98.199996948242</ele>
        <time>2020-01-16T15:07:27Z</time>
      </trkpt>
      <trkpt lat="48.39454" lon="2.82256">
        <ele>98.400001525879</ele>
        <time>2020-01-16T15:07:32Z</time>
      </trkpt>
      <trkpt lat="48.39452" lon="2.82248">
        <ele>98.599998474121</ele>
        <time>2020-01-16T15:07:37Z</time>
      </trkpt>
      <trkpt lat="48.39453" lon="2.82242">
        <ele>98.599998474121</ele>
        <time>2020-01-16T15:07:42Z</time>
      </trkpt>
      <trkpt lat="48.39453" lon="2.82234">
        <ele>98.800003051758</ele>
        <time>2020-01-16T15:07:47Z</time>
      </trkpt>
      <trkpt lat="48.39455" lon="2.82226">
        <ele>99</ele>
        <time>2020-01-16T15:07:52Z</time>
      </trkpt>
      <trkpt lat="48.39458" lon="2.82215">
        <ele>99.400001525879</ele>
        <time>2020-01-16T15:07:57Z</time>
      </trkpt>
      <trkpt lat="48.3946" lon="2.82205">
        <ele>99.599998474121</ele>
        <time>2020-01-16T15:08:02Z</time>
      </trkpt>
      <trkpt lat="48.3946" lon="2.82196">
        <ele>99.800003051758</ele>
        <time>2020-01-16T15:08:07Z</time>
      </trkpt>
      <trkpt lat="48.3946" lon="2.82189">
        <ele>100</ele>
        <time>2020-01-16T15:08:12Z</time>
      </trkpt>
      <trkpt lat="48.39461" lon="2.82182">
        <ele>100.40000152588</ele>
        <time>2020-01-16T15:08:17Z</time>
      </trkpt>
      <trkpt lat="48.3946" lon="2.82174">
        <ele>100.80000305176</ele>
        <time>2020-01-16T15:08:22Z</time>
      </trkpt>
      <trkpt lat="48.39461" lon="2.82166">
        <ele>101</ele>
        <time>2020-01-16T15:08:27Z</time>
      </trkpt>
      <trkpt lat="48.39462" lon="2.82158">
        <ele>101.19999694824</ele>
        <time>2020-01-16T15:08:32Z</time>
      </trkpt>
      <trkpt lat="48.39464" lon="2.82151">
        <ele>101.19999694824</ele>
        <time>2020-01-16T15:08:37Z</time>
      </trkpt>
      <trkpt lat="48.39465" lon="2.82143">
        <ele>101.19999694824</ele>
        <time>2020-01-16T15:08:42Z</time>
      </trkpt>
      <trkpt lat="48.39464" lon="2.82133">
        <ele>101.40000152588</ele>
        <time>2020-01-16T15:08:47Z</time>
      </trkpt>
      <trkpt lat="48.39462" lon="2.82124">
        <ele>101.59999847412</ele>
        <time>2020-01-16T15:08:52Z</time>
      </trkpt>
      <trkpt lat="48.39461" lon="2.82117">
        <ele>101.80000305176</ele>
        <time>2020-01-16T15:08:57Z</time>
      </trkpt>
      <trkpt lat="48.39461" lon="2.82111">
        <ele>102</ele>
        <time>2020-01-16T15:09:02Z</time>
      </trkpt>
      <trkpt lat="48.39462" lon="2.82102">
        <ele>102.40000152588</ele>
        <time>2020-01-16T15:09:07Z</time>
      </trkpt>
      <trkpt lat="48.39463" lon="2.82093">
        <ele>102.59999847412</ele>
        <time>2020-01-16T15:09:12Z</time>
      </trkpt>
      <trkpt lat="48.39463" lon="2.82084">
        <ele>102.80000305176</ele>
        <time>2020-01-16T15:09:17Z</time>
      </trkpt>
      <trkpt lat="48.39463" lon="2.82073">
        <ele>103</ele>
        <time>2020-01-16T15:09:22Z</time>
      </trkpt>
      <trkpt lat="48.39464" lon="2.82066">
        <ele>103.19999694824</ele>
        <time>2020-01-16T15:09:27Z</time>
      </trkpt>
      <trkpt lat="48.39465" lon="2.82062">
        <ele>103.19999694824</ele>
        <time>2020-01-16T15:09:32Z</time>
      </trkpt>
      <trkpt lat="48.39466" lon="2.82055">
        <ele>103.59999847412</ele>
        <time>2020-01-16T15:09:37Z</time>
      </trkpt>
      <trkpt lat="48.39466" lon="2.82048">
        <ele>103.59999847412</ele>
        <time>2020-01-16T15:09:42Z</time>
      </trkpt>
      <trkpt lat="48.39465" lon="2.8204">
        <ele>103.80000305176</ele>
        <time>2020-01-16T15:09:47Z</time>
      </trkpt>
      <trkpt lat="48.39464" lon="2.82032">
        <ele>103.80000305176</ele>
        <time>2020-01-16T15:09:52Z</time>
      </trkpt>
      <trkpt lat="48.39465" lon="2.82023">
        <ele>104</ele>
        <time>2020-01-16T15:09:57Z</time>
      </trkpt>
      <trkpt lat="48.39464" lon="2.82016">
        <ele>104.19999694824</ele>
        <time>2020-01-16T15:10:02Z</time>
      </trkpt>
      <trkpt lat="48.39465" lon="2.82005">
        <ele>104.40000152588</ele>
        <time>2020-01-16T15:10:07Z</time>
      </trkpt>
      <trkpt lat="48.39464" lon="2.81997">
        <ele>104.40000152588</ele>
        <time>2020-01-16T15:10:12Z</time>
      </trkpt>
      <trkpt lat="48.39464" lon="2.81987">
        <ele>104.40000152588</ele>
        <time>2020-01-16T15:10:17Z</time>
      </trkpt>
      <trkpt lat="48.39464" lon="2.81979">
        <ele>104.59999847412</ele>
        <time>2020-01-16T15:10:22Z</time>
      </trkpt>
      <trkpt lat="48.39463" lon="2.81971">
        <ele>105</ele>
        <time>2020-01-16T15:10:27Z</time>
      </trkpt>
      <trkpt lat="48.39461" lon="2.81962">
        <ele>105</ele>
        <time>2020-01-16T15:10:32Z</time>
      </trkpt>
      <trkpt lat="48.3946" lon="2.81953">
        <ele>105</ele>
        <time>2020-01-16T15:10:37Z</time>
      </trkpt>
      <trkpt lat="48.39459" lon="2.81943">
        <ele>105</ele>
        <time>2020-01-16T15:10:42Z</time>
      </trkpt>
      <trkpt lat="48.39461" lon="2.81935">
        <ele>104.80000305176</ele>
        <time>2020-01-16T15:10:47Z</time>
      </trkpt>
      <trkpt lat="48.39461" lon="2.8193">
        <ele>104.80000305176</ele>
        <time>2020-01-16T15:10:52Z</time>
      </trkpt>
      <trkpt lat="48.39462" lon="2.81929">
        <ele>104.80000305176</ele>
        <time>2020-01-16T15:10:57Z</time>
      </trkpt>
      <trkpt lat="48.39462" lon="2.81928">
        <ele>104.80000305176</ele>
        <time>2020-01-16T15:11:02Z</time>
      </trkpt>
      <trkpt lat="48.39462" lon="2.81928">
        <ele>104.80000305176</ele>
        <time>2020-01-16T15:11:07Z</time>
      </trkpt>
      <trkpt lat="48.39463" lon="2.81928">
        <ele>104.59999847412</ele>
        <time>2020-01-16T15:11:12Z</time>
      </trkpt>
      <trkpt lat="48.39463" lon="2.81928">
        <ele>104.59999847412</ele>
        <time>2020-01-16T15:11:17Z</time>
      </trkpt>
      <trkpt lat="48.39463" lon="2.81927">
        <ele>104.59999847412</ele>
        <time>2020-01-16T15:11:22Z</time>
      </trkpt>
      <trkpt lat="48.39464" lon="2.81926">
        <ele>104.59999847412</ele>
        <time>2020-01-16T15:11:27Z</time>
      </trkpt>
      <trkpt lat="48.39463" lon="2.81924">
        <ele>104.40000152588</ele>
        <time>2020-01-16T15:11:32Z</time>
      </trkpt>
      <trkpt lat="48.39461" lon="2.81919">
        <ele>104.19999694824</ele>
        <time>2020-01-16T15:11:37Z</time>
      </trkpt>
      <trkpt lat="48.39461" lon="2.81911">
        <ele>104.19999694824</ele>
        <time>2020-01-16T15:11:42Z</time>
      </trkpt>
      <trkpt lat="48.39462" lon="2.81904">
        <ele>104</ele>
        <time>2020-01-16T15:11:47Z</time>
      </trkpt>
      <trkpt lat="48.39461" lon="2.81898">
        <ele>104.19999694824</ele>
        <time>2020-01-16T15:11:52Z</time>
      </trkpt>
      <trkpt lat="48.3946" lon="2.81891">
        <ele>104.40000152588</ele>
        <time>2020-01-16T15:11:57Z</time>
      </trkpt>
      <trkpt lat="48.3946" lon="2.81884">
        <ele>104.19999694824</ele>
        <time>2020-01-16T15:12:02Z</time>
      </trkpt>
      <trkpt lat="48.3946" lon="2.81876">
        <ele>104.19999694824</ele>
        <time>2020-01-16T15:12:07Z</time>
      </trkpt>
      <trkpt lat="48.39458" lon="2.81869">
        <ele>104</ele>
        <time>2020-01-16T15:12:12Z</time>
      </trkpt>
      <trkpt lat="48.39459" lon="2.8186">
        <ele>104.19999694824</ele>
        <time>2020-01-16T15:12:17Z</time>
      </trkpt>
      <trkpt lat="48.39457" lon="2.81853">
        <ele>104.40000152588</ele>
        <time>2020-01-16T15:12:22Z</time>
      </trkpt>
      <trkpt lat="48.39457" lon="2.81844">
        <ele>104.19999694824</ele>
        <time>2020-01-16T15:12:27Z</time>
      </trkpt>
      <trkpt lat="48.39457" lon="2.81835">
        <ele>104.19999694824</ele>
        <time>2020-01-16T15:12:32Z</time>
      </trkpt>
      <trkpt lat="48.39458" lon="2.81825">
        <ele>104</ele>
        <time>2020-01-16T15:12:37Z</time>
      </trkpt>
      <trkpt lat="48.39462" lon="2.81817">
        <ele>104</ele>
        <time>2020-01-16T15:12:42Z</time>
      </trkpt>
      <trkpt lat="48.39463" lon="2.81806">
        <ele>104</ele>
        <time>2020-01-16T15:12:47Z</time>
      </trkpt>
      <trkpt lat="48.39463" lon="2.81798">
        <ele>104.19999694824</ele>
        <time>2020-01-16T15:12:52Z</time>
      </trkpt>
      <trkpt lat="48.39464" lon="2.81789">
        <ele>104.19999694824</ele>
        <time>2020-01-16T15:12:57Z</time>
      </trkpt>
      <trkpt lat="48.39465" lon="2.81782">
        <ele>104.80000305176</ele>
        <time>2020-01-16T15:13:02Z</time>
      </trkpt>
      <trkpt lat="48.39465" lon="2.81773">
        <ele>104.59999847412</ele>
        <time>2020-01-16T15:13:07Z</time>
      </trkpt>
      <trkpt lat="48.39466" lon="2.81763">
        <ele>104.80000305176</ele>
        <time>2020-01-16T15:13:12Z</time>
      </trkpt>
      <trkpt lat="48.39467" lon="2.81755">
        <ele>104.80000305176</ele>
        <time>2020-01-16T15:13:17Z</time>
      </trkpt>
      <trkpt lat="48.39467" lon="2.81749">
        <ele>104.80000305176</ele>
        <time>2020-01-16T15:13:22Z</time>
      </trkpt>
      <trkpt lat="48.39467" lon="2.8174">
        <ele>105</ele>
        <time>2020-01-16T15:13:27Z</time>
      </trkpt>
      <trkpt lat="48.39468" lon="2.81731">
        <ele>105.19999694824</ele>
        <time>2020-01-16T15:13:32Z</time>
      </trkpt>
      <trkpt lat="48.39466" lon="2.81722">
        <ele>105.59999847412</ele>
        <time>2020-01-16T15:13:37Z</time>
      </trkpt>
      <trkpt lat="48.39466" lon="2.81715">
        <ele>105.80000305176</ele>
        <time>2020-01-16T15:13:42Z</time>
      </trkpt>
      <trkpt lat="48.39467" lon="2.81708">
        <ele>105.80000305176</ele>
        <time>2020-01-16T15:13:47Z</time>
      </trkpt>
      <trkpt lat="48.39468" lon="2.817">
        <ele>106</ele>
        <time>2020-01-16T15:13:52Z</time>
      </trkpt>
      <trkpt lat="48.39467" lon="2.81692">
        <ele>106</ele>
        <time>2020-01-16T15:13:57Z</time>
      </trkpt>
      <trkpt lat="48.39464" lon="2.81685">
        <ele>106</ele>
        <time>2020-01-16T15:14:02Z</time>
      </trkpt>
      <trkpt lat="48.39463" lon="2.81678">
        <ele>106.40000152588</ele>
        <time>2020-01-16T15:14:07Z</time>
      </trkpt>
      <trkpt lat="48.39464" lon="2.8167">
        <ele>106.59999847412</ele>
        <time>2020-01-16T15:14:12Z</time>
      </trkpt>
      <trkpt lat="48.39464" lon="2.81662">
        <ele>106.80000305176</ele>
        <time>2020-01-16T15:14:17Z</time>
      </trkpt>
      <trkpt lat="48.39464" lon="2.81655">
        <ele>107</ele>
        <time>2020-01-16T15:14:22Z</time>
      </trkpt>
      <trkpt lat="48.39464" lon="2.81645">
        <ele>107</ele>
        <time>2020-01-16T15:14:27Z</time>
      </trkpt>
      <trkpt lat="48.39465" lon="2.81637">
        <ele>107</ele>
        <time>2020-01-16T15:14:32Z</time>
      </trkpt>
      <trkpt lat="48.39465" lon="2.81631">
        <ele>107</ele>
        <time>2020-01-16T15:14:37Z</time>
      </trkpt>
      <trkpt lat="48.39464" lon="2.81622">
        <ele>107</ele>
        <time>2020-01-16T15:14:42Z</time>
      </trkpt>
      <trkpt lat="48.39465" lon="2.81612">
        <ele>107.19999694824</ele>
        <time>2020-01-16T15:14:47Z</time>
      </trkpt>
      <trkpt lat="48.39464" lon="2.81604">
        <ele>107.19999694824</ele>
        <time>2020-01-16T15:14:52Z</time>
      </trkpt>
      <trkpt lat="48.3946" lon="2.81595">
        <ele>107.19999694824</ele>
        <time>2020-01-16T15:14:57Z</time>
      </trkpt>
      <trkpt lat="48.39457" lon="2.81584">
        <ele>107.19999694824</ele>
        <time>2020-01-16T15:15:02Z</time>
      </trkpt>
      <trkpt lat="48.39457" lon="2.81574">
        <ele>107.40000152588</ele>
        <time>2020-01-16T15:15:07Z</time>
      </trkpt>
      <trkpt lat="48.39456" lon="2.81568">
        <ele>107.40000152588</ele>
        <time>2020-01-16T15:15:12Z</time>
      </trkpt>
      <trkpt lat="48.39456" lon="2.81561">
        <ele>107.40000152588</ele>
        <time>2020-01-16T15:15:17Z</time>
      </trkpt>
      <trkpt lat="48.39456" lon="2.81553">
        <ele>107.59999847412</ele>
        <time>2020-01-16T15:15:22Z</time>
      </trkpt>
      <trkpt lat="48.39455" lon="2.81548">
        <ele>107.80000305176</ele>
        <time>2020-01-16T15:15:27Z</time>
      </trkpt>
      <trkpt lat="48.39455" lon="2.81542">
        <ele>107.19999694824</ele>
        <time>2020-01-16T15:15:32Z</time>
      </trkpt>
      <trkpt lat="48.39456" lon="2.81534">
        <ele>107</ele>
        <time>2020-01-16T15:15:37Z</time>
      </trkpt>
      <trkpt lat="48.39456" lon="2.81527">
        <ele>106.80000305176</ele>
        <time>2020-01-16T15:15:42Z</time>
      </trkpt>
      <trkpt lat="48.39455" lon="2.8152">
        <ele>106.80000305176</ele>
        <time>2020-01-16T15:15:47Z</time>
      </trkpt>
      <trkpt lat="48.39455" lon="2.81511">
        <ele>106.59999847412</ele>
        <time>2020-01-16T15:15:52Z</time>
      </trkpt>
      <trkpt lat="48.39455" lon="2.81503">
        <ele>106.59999847412</ele>
        <time>2020-01-16T15:15:57Z</time>
      </trkpt>
      <trkpt lat="48.39452" lon="2.81496">
        <ele>106.80000305176</ele>
        <time>2020-01-16T15:16:02Z</time>
      </trkpt>
      <trkpt lat="48.39449" lon="2.81486">
        <ele>106.59999847412</ele>
        <time>2020-01-16T15:16:07Z</time>
      </trkpt>
      <trkpt lat="48.39444" lon="2.81476">
        <ele>106.19999694824</ele>
        <time>2020-01-16T15:16:12Z</time>
      </trkpt>
      <trkpt lat="48.39444" lon="2.81468">
        <ele>106.19999694824</ele>
        <time>2020-01-16T15:16:17Z</time>
      </trkpt>
      <trkpt lat="48.39444" lon="2.81461">
        <ele>106.19999694824</ele>
        <time>2020-01-16T15:16:22Z</time>
      </trkpt>
      <trkpt lat="48.39443" lon="2.81455">
        <ele>105.80000305176</ele>
        <time>2020-01-16T15:16:27Z</time>
      </trkpt>
      <trkpt lat="48.39439" lon="2.81446">
        <ele>105.80000305176</ele>
        <time>2020-01-16T15:16:32Z</time>
      </trkpt>
      <trkpt lat="48.39437" lon="2.81435">
        <ele>105.40000152588</ele>
        <time>2020-01-16T15:16:37Z</time>
      </trkpt>
      <trkpt lat="48.39436" lon="2.81428">
        <ele>105.40000152588</ele>
        <time>2020-01-16T15:16:42Z</time>
      </trkpt>
      <trkpt lat="48.39433" lon="2.81421">
        <ele>105.40000152588</ele>
        <time>2020-01-16T15:16:47Z</time>
      </trkpt>
      <trkpt lat="48.39431" lon="2.8141">
        <ele>105.40000152588</ele>
        <time>2020-01-16T15:16:52Z</time>
      </trkpt>
      <trkpt lat="48.39429" lon="2.81404">
        <ele>105.40000152588</ele>
        <time>2020-01-16T15:16:57Z</time>
      </trkpt>
      <trkpt lat="48.39425" lon="2.81398">
        <ele>105.19999694824</ele>
        <time>2020-01-16T15:17:02Z</time>
      </trkpt>
      <trkpt lat="48.39425" lon="2.81391">
        <ele>105.59999847412</ele>
        <time>2020-01-16T15:17:07Z</time>
      </trkpt>
      <trkpt lat="48.39423" lon="2.8138">
        <ele>106</ele>
        <time>2020-01-16T15:17:12Z</time>
      </trkpt>
      <trkpt lat="48.39421" lon="2.81369">
        <ele>106.19999694824</ele>
        <time>2020-01-16T15:17:17Z</time>
      </trkpt>
      <trkpt lat="48.3942" lon="2.8136">
        <ele>106.40000152588</ele>
        <time>2020-01-16T15:17:22Z</time>
      </trkpt>
      <trkpt lat="48.39417" lon="2.81352">
        <ele>106.40000152588</ele>
        <time>2020-01-16T15:17:27Z</time>
      </trkpt>
      <trkpt lat="48.39415" lon="2.81344">
        <ele>106.59999847412</ele>
        <time>2020-01-16T15:17:32Z</time>
      </trkpt>
      <trkpt lat="48.39415" lon="2.81335">
        <ele>106.59999847412</ele>
        <time>2020-01-16T15:17:37Z</time>
      </trkpt>
      <trkpt lat="48.39415" lon="2.81328">
        <ele>106.80000305176</ele>
        <time>2020-01-16T15:17:42Z</time>
      </trkpt>
      <trkpt lat="48.39413" lon="2.81322">
        <ele>106.80000305176</ele>
        <time>2020-01-16T15:17:47Z</time>
      </trkpt>
      <trkpt lat="48.39412" lon="2.81314">
        <ele>106.59999847412</ele>
        <time>2020-01-16T15:17:52Z</time>
      </trkpt>
      <trkpt lat="48.39411" lon="2.81306">
        <ele>106.59999847412</ele>
        <time>2020-01-16T15:17:57Z</time>
      </trkpt>
      <trkpt lat="48.3941" lon="2.81298">
        <ele>106.59999847412</ele>
        <time>2020-01-16T15:18:02Z</time>
      </trkpt>
      <trkpt lat="48.39408" lon="2.8129">
        <ele>107</ele>
        <time>2020-01-16T15:18:07Z</time>
      </trkpt>
      <trkpt lat="48.39408" lon="2.81289">
        <ele>107</ele>
        <time>2020-01-16T15:18:12Z</time>
      </trkpt>
      <trkpt lat="48.39409" lon="2.81288">
        <ele>107</ele>
        <time>2020-01-16T15:18:17Z</time>
      </trkpt>
      <trkpt lat="48.39409" lon="2.81287">
        <ele>107.19999694824</ele>
        <time>2020-01-16T15:18:22Z</time>
      </trkpt>
      <trkpt lat="48.39409" lon="2.81287">
        <ele>107.19999694824</ele>
        <time>2020-01-16T15:18:27Z</time>
      </trkpt>
      <trkpt lat="48.39409" lon="2.81286">
        <ele>107</ele>
        <time>2020-01-16T15:18:32Z</time>
      </trkpt>
      <trkpt lat="48.3941" lon="2.81285">
        <ele>107.19999694824</ele>
        <time>2020-01-16T15:18:37Z</time>
      </trkpt>
      <trkpt lat="48.39409" lon="2.81286">
        <ele>107</ele>
        <time>2020-01-16T15:18:42Z</time>
      </trkpt>
      <trkpt lat="48.39411" lon="2.81285">
        <ele>107</ele>
        <time>2020-01-16T15:18:47Z</time>
      </trkpt>
      <trkpt lat="48.39413" lon="2.81282">
        <ele>107</ele>
        <time>2020-01-16T15:18:52Z</time>
      </trkpt>
      <trkpt lat="48.39411" lon="2.81281">
        <ele>107</ele>
        <time>2020-01-16T15:18:57Z</time>
      </trkpt>
      <trkpt lat="48.39412" lon="2.8128">
        <ele>107.19999694824</ele>
        <time>2020-01-16T15:19:02Z</time>
      </trkpt>
      <trkpt lat="48.39412" lon="2.81277">
        <ele>107</ele>
        <time>2020-01-16T15:19:07Z</time>
      </trkpt>
      <trkpt lat="48.39412" lon="2.81275">
        <ele>107</ele>
        <time>2020-01-16T15:19:12Z</time>
      </trkpt>
      <trkpt lat="48.3941" lon="2.81276">
        <ele>107</ele>
        <time>2020-01-16T15:19:17Z</time>
      </trkpt>
      <trkpt lat="48.3941" lon="2.81278">
        <ele>107</ele>
        <time>2020-01-16T15:19:22Z</time>
      </trkpt>
      <trkpt lat="48.3941" lon="2.81279">
        <ele>107</ele>
        <time>2020-01-16T15:19:27Z</time>
      </trkpt>
      <trkpt lat="48.39409" lon="2.81279">
        <ele>107</ele>
        <time>2020-01-16T15:19:32Z</time>
      </trkpt>
      <trkpt lat="48.3941" lon="2.81278">
        <ele>107</ele>
        <time>2020-01-16T15:19:37Z</time>
      </trkpt>
      <trkpt lat="48.3941" lon="2.81277">
        <ele>107</ele>
        <time>2020-01-16T15:19:42Z</time>
      </trkpt>
      <trkpt lat="48.3941" lon="2.81277">
        <ele>107</ele>
        <time>2020-01-16T15:19:47Z</time>
      </trkpt>
      <trkpt lat="48.39409" lon="2.81279">
        <ele>107</ele>
        <time>2020-01-16T15:19:52Z</time>
      </trkpt>
      <trkpt lat="48.39409" lon="2.81277">
        <ele>107</ele>
        <time>2020-01-16T15:19:57Z</time>
      </trkpt>
      <trkpt lat="48.39409" lon="2.81277">
        <ele>107</ele>
        <time>2020-01-16T15:20:02Z</time>
      </trkpt>
      <trkpt lat="48.3941" lon="2.81277">
        <ele>107</ele>
        <time>2020-01-16T15:20:07Z</time>
      </trkpt>
      <trkpt lat="48.39409" lon="2.81278">
        <ele>107</ele>
        <time>2020-01-16T15:20:12Z</time>
      </trkpt>
      <trkpt lat="48.39409" lon="2.81278">
        <ele>107</ele>
        <time>2020-01-16T15:20:17Z</time>
      </trkpt>
      <trkpt lat="48.39407" lon="2.81278">
        <ele>107</ele>
        <time>2020-01-16T15:20:22Z</time>
      </trkpt>
      <trkpt lat="48.39406" lon="2.81276">
        <ele>107</ele>
        <time>2020-01-16T15:20:27Z</time>
      </trkpt>
      <trkpt lat="48.39405" lon="2.81275">
        <ele>107</ele>
        <time>2020-01-16T15:20:32Z</time>
      </trkpt>
      <trkpt lat="48.39403" lon="2.81276">
        <ele>107</ele>
        <time>2020-01-16T15:20:37Z</time>
      </trkpt>
      <trkpt lat="48.39401" lon="2.81275">
        <ele>107</ele>
        <time>2020-01-16T15:20:42Z</time>
      </trkpt>
      <trkpt lat="48.39395" lon="2.81272">
        <ele>107</ele>
        <time>2020-01-16T15:20:47Z</time>
      </trkpt>
      <trkpt lat="48.39389" lon="2.81269">
        <ele>107</ele>
        <time>2020-01-16T15:20:52Z</time>
      </trkpt>
      <trkpt lat="48.39385" lon="2.81268">
        <ele>107</ele>
        <time>2020-01-16T15:20:57Z</time>
      </trkpt>
      <trkpt lat="48.39381" lon="2.81269">
        <ele>107</ele>
        <time>2020-01-16T15:21:02Z</time>
      </trkpt>
      <trkpt lat="48.39376" lon="2.81274">
        <ele>106.59999847412</ele>
        <time>2020-01-16T15:21:07Z</time>
      </trkpt>
      <trkpt lat="48.39372" lon="2.81276">
        <ele>103.19999694824</ele>
        <time>2020-01-16T15:21:12Z</time>
      </trkpt>
      <trkpt lat="48.39367" lon="2.81278">
        <ele>102.59999847412</ele>
        <time>2020-01-16T15:21:17Z</time>
      </trkpt>
      <trkpt lat="48.39363" lon="2.8128">
        <ele>102</ele>
        <time>2020-01-16T15:21:22Z</time>
      </trkpt>
      <trkpt lat="48.3936" lon="2.8128">
        <ele>101.40000152588</ele>
        <time>2020-01-16T15:21:27Z</time>
      </trkpt>
      <trkpt lat="48.39358" lon="2.81281">
        <ele>101.19999694824</ele>
        <time>2020-01-16T15:21:32Z</time>
      </trkpt>
      <trkpt lat="48.39358" lon="2.81279">
        <ele>101</ele>
        <time>2020-01-16T15:21:37Z</time>
      </trkpt>
      <trkpt lat="48.39357" lon="2.81278">
        <ele>101</ele>
        <time>2020-01-16T15:21:42Z</time>
      </trkpt>
      <trkpt lat="48.39356" lon="2.81279">
        <ele>101</ele>
        <time>2020-01-16T15:21:47Z</time>
      </trkpt>
      <trkpt lat="48.39356" lon="2.81279">
        <ele>101</ele>
        <time>2020-01-16T15:21:52Z</time>
      </trkpt>
      <trkpt lat="48.39356" lon="2.81279">
        <ele>101</ele>
        <time>2020-01-16T15:21:57Z</time>
      </trkpt>
      <trkpt lat="48.39354" lon="2.8128">
        <ele>100.80000305176</ele>
        <time>2020-01-16T15:22:02Z</time>
      </trkpt>
      <trkpt lat="48.39353" lon="2.81279">
        <ele>100.80000305176</ele>
        <time>2020-01-16T15:22:07Z</time>
      </trkpt>
      <trkpt lat="48.39352" lon="2.81277">
        <ele>100.59999847412</ele>
        <time>2020-01-16T15:22:12Z</time>
      </trkpt>
      <trkpt lat="48.39352" lon="2.81276">
        <ele>100.59999847412</ele>
        <time>2020-01-16T15:22:17Z</time>
      </trkpt>
      <trkpt lat="48.39348" lon="2.81276">
        <ele>100.40000152588</ele>
        <time>2020-01-16T15:22:22Z</time>
      </trkpt>
      <trkpt lat="48.39347" lon="2.81273">
        <ele>100</ele>
        <time>2020-01-16T15:22:27Z</time>
      </trkpt>
      <trkpt lat="48.39344" lon="2.81267">
        <ele>99.599998474121</ele>
        <time>2020-01-16T15:22:32Z</time>
      </trkpt>
      <trkpt lat="48.39343" lon="2.81262">
        <ele>99.599998474121</ele>
        <time>2020-01-16T15:22:37Z</time>
      </trkpt>
      <trkpt lat="48.39343" lon="2.81255">
        <ele>99.400001525879</ele>
        <time>2020-01-16T15:22:42Z</time>
      </trkpt>
      <trkpt lat="48.39342" lon="2.8125">
        <ele>99.199996948242</ele>
        <time>2020-01-16T15:22:47Z</time>
      </trkpt>
      <trkpt lat="48.39339" lon="2.81246">
        <ele>99.599998474121</ele>
        <time>2020-01-16T15:22:52Z</time>
      </trkpt>
      <trkpt lat="48.39338" lon="2.81241">
        <ele>99.800003051758</ele>
        <time>2020-01-16T15:22:57Z</time>
      </trkpt>
      <trkpt lat="48.39336" lon="2.81233">
        <ele>99.800003051758</ele>
        <time>2020-01-16T15:23:02Z</time>
      </trkpt>
      <trkpt lat="48.39335" lon="2.81223">
        <ele>99.800003051758</ele>
        <time>2020-01-16T15:23:07Z</time>
      </trkpt>
      <trkpt lat="48.39332" lon="2.81217">
        <ele>99.800003051758</ele>
        <time>2020-01-16T15:23:12Z</time>
      </trkpt>
      <trkpt lat="48.3933" lon="2.81212">
        <ele>99.800003051758</ele>
        <time>2020-01-16T15:23:17Z</time>
      </trkpt>
      <trkpt lat="48.39329" lon="2.81208">
        <ele>100</ele>
        <time>2020-01-16T15:23:22Z</time>
      </trkpt>
      <trkpt lat="48.39327" lon="2.81203">
        <ele>100</ele>
        <time>2020-01-16T15:23:27Z</time>
      </trkpt>
      <trkpt lat="48.39324" lon="2.812">
        <ele>100</ele>
        <time>2020-01-16T15:23:32Z</time>
      </trkpt>
      <trkpt lat="48.39322" lon="2.81194">
        <ele>99.800003051758</ele>
        <time>2020-01-16T15:23:37Z</time>
      </trkpt>
      <trkpt lat="48.3932" lon="2.81188">
        <ele>99.599998474121</ele>
        <time>2020-01-16T15:23:42Z</time>
      </trkpt>
      <trkpt lat="48.39318" lon="2.81181">
        <ele>99.400001525879</ele>
        <time>2020-01-16T15:23:47Z</time>
      </trkpt>
      <trkpt lat="48.39316" lon="2.81173">
        <ele>99.800003051758</ele>
        <time>2020-01-16T15:23:52Z</time>
      </trkpt>
      <trkpt lat="48.39315" lon="2.81164">
        <ele>99.800003051758</ele>
        <time>2020-01-16T15:23:57Z</time>
      </trkpt>
      <trkpt lat="48.39312" lon="2.81157">
        <ele>99.599998474121</ele>
        <time>2020-01-16T15:24:02Z</time>
      </trkpt>
      <trkpt lat="48.39309" lon="2.8115">
        <ele>99.599998474121</ele>
        <time>2020-01-16T15:24:07Z</time>
      </trkpt>
      <trkpt lat="48.39305" lon="2.8114">
        <ele>99.599998474121</ele>
        <time>2020-01-16T15:24:12Z</time>
      </trkpt>
      <trkpt lat="48.39301" lon="2.81134">
        <ele>99.599998474121</ele>
        <time>2020-01-16T15:24:17Z</time>
      </trkpt>
      <trkpt lat="48.39299" lon="2.81129">
        <ele>99.400001525879</ele>
        <time>2020-01-16T15:24:22Z</time>
      </trkpt>
      <trkpt lat="48.39297" lon="2.81123">
        <ele>99.199996948242</ele>
        <time>2020-01-16T15:24:27Z</time>
      </trkpt>
      <trkpt lat="48.39294" lon="2.81116">
        <ele>99.199996948242</ele>
        <time>2020-01-16T15:24:32Z</time>
      </trkpt>
      <trkpt lat="48.39291" lon="2.8111">
        <ele>99.199996948242</ele>
        <time>2020-01-16T15:24:37Z</time>
      </trkpt>
      <trkpt lat="48.39289" lon="2.81104">
        <ele>99.199996948242</ele>
        <time>2020-01-16T15:24:42Z</time>
      </trkpt>
      <trkpt lat="48.39286" lon="2.81095">
        <ele>99</ele>
        <time>2020-01-16T15:24:47Z</time>
      </trkpt>
      <trkpt lat="48.39283" lon="2.81086">
        <ele>99</ele>
        <time>2020-01-16T15:24:52Z</time>
      </trkpt>
      <trkpt lat="48.39281" lon="2.8108">
        <ele>99</ele>
        <time>2020-01-16T15:24:57Z</time>
      </trkpt>
      <trkpt lat="48.39281" lon="2.81075">
        <ele>98.599998474121</ele>
        <time>2020-01-16T15:25:02Z</time>
      </trkpt>
      <trkpt lat="48.39278" lon="2.81071">
        <ele>98.400001525879</ele>
        <time>2020-01-16T15:25:07Z</time>
      </trkpt>
      <trkpt lat="48.39274" lon="2.81067">
        <ele>98.599998474121</ele>
        <time>2020-01-16T15:25:12Z</time>
      </trkpt>
      <trkpt lat="48.3927" lon="2.81063">
        <ele>98.400001525879</ele>
        <time>2020-01-16T15:25:17Z</time>
      </trkpt>
      <trkpt lat="48.39266" lon="2.81056">
        <ele>98.599998474121</ele>
        <time>2020-01-16T15:25:22Z</time>
      </trkpt>
      <trkpt lat="48.39263" lon="2.81051">
        <ele>98.599998474121</ele>
        <time>2020-01-16T15:25:27Z</time>
      </trkpt>
      <trkpt lat="48.3926" lon="2.81043">
        <ele>98.599998474121</ele>
        <time>2020-01-16T15:25:32Z</time>
      </trkpt>
      <trkpt lat="48.39256" lon="2.81036">
        <ele>98.599998474121</ele>
        <time>2020-01-16T15:25:37Z</time>
      </trkpt>
      <trkpt lat="48.39251" lon="2.81029">
        <ele>98.599998474121</ele>
        <time>2020-01-16T15:25:42Z</time>
      </trkpt>
      <trkpt lat="48.39249" lon="2.81023">
        <ele>98.599998474121</ele>
        <time>2020-01-16T15:25:47Z</time>
      </trkpt>
      <trkpt lat="48.39245" lon="2.81016">
        <ele>98.199996948242</ele>
        <time>2020-01-16T15:25:52Z</time>
      </trkpt>
      <trkpt lat="48.39242" lon="2.81011">
        <ele>98.199996948242</ele>
        <time>2020-01-16T15:25:57Z</time>
      </trkpt>
      <trkpt lat="48.39239" lon="2.81006">
        <ele>98.199996948242</ele>
        <time>2020-01-16T15:26:02Z</time>
      </trkpt>
      <trkpt lat="48.39236" lon="2.81001">
        <ele>97.800003051758</ele>
        <time>2020-01-16T15:26:07Z</time>
      </trkpt>
      <trkpt lat="48.39234" lon="2.80993">
        <ele>97.599998474121</ele>
        <time>2020-01-16T15:26:12Z</time>
      </trkpt>
      <trkpt lat="48.39231" lon="2.80985">
        <ele>97.599998474121</ele>
        <time>2020-01-16T15:26:17Z</time>
      </trkpt>
      <trkpt lat="48.39228" lon="2.80979">
        <ele>97.599998474121</ele>
        <time>2020-01-16T15:26:22Z</time>
      </trkpt>
      <trkpt lat="48.39226" lon="2.8097">
        <ele>97.800003051758</ele>
        <time>2020-01-16T15:26:27Z</time>
      </trkpt>
      <trkpt lat="48.39224" lon="2.80961">
        <ele>97.800003051758</ele>
        <time>2020-01-16T15:26:32Z</time>
      </trkpt>
      <trkpt lat="48.3922" lon="2.80953">
        <ele>98</ele>
        <time>2020-01-16T15:26:37Z</time>
      </trkpt>
      <trkpt lat="48.39217" lon="2.80944">
        <ele>98.199996948242</ele>
        <time>2020-01-16T15:26:42Z</time>
      </trkpt>
      <trkpt lat="48.39215" lon="2.80937">
        <ele>98.199996948242</ele>
        <time>2020-01-16T15:26:47Z</time>
      </trkpt>
      <trkpt lat="48.39213" lon="2.8093">
        <ele>98.199996948242</ele>
        <time>2020-01-16T15:26:52Z</time>
      </trkpt>
      <trkpt lat="48.3921" lon="2.80925">
        <ele>98.599998474121</ele>
        <time>2020-01-16T15:26:57Z</time>
      </trkpt>
      <trkpt lat="48.39206" lon="2.80918">
        <ele>98.400001525879</ele>
        <time>2020-01-16T15:27:02Z</time>
      </trkpt>
      <trkpt lat="48.39204" lon="2.80912">
        <ele>98.199996948242</ele>
        <time>2020-01-16T15:27:07Z</time>
      </trkpt>
      <trkpt lat="48.39202" lon="2.80906">
        <ele>98</ele>
        <time>2020-01-16T15:27:12Z</time>
      </trkpt>
      <trkpt lat="48.392" lon="2.809">
        <ele>97.400001525879</ele>
        <time>2020-01-16T15:27:17Z</time>
      </trkpt>
      <trkpt lat="48.39197" lon="2.80893">
        <ele>97.400001525879</ele>
        <time>2020-01-16T15:27:22Z</time>
      </trkpt>
      <trkpt lat="48.39195" lon="2.80886">
        <ele>97.199996948242</ele>
        <time>2020-01-16T15:27:27Z</time>
      </trkpt>
      <trkpt lat="48.39194" lon="2.80877">
        <ele>97.599998474121</ele>
        <time>2020-01-16T15:27:32Z</time>
      </trkpt>
      <trkpt lat="48.39191" lon="2.80869">
        <ele>97.400001525879</ele>
        <time>2020-01-16T15:27:37Z</time>
      </trkpt>
      <trkpt lat="48.3919" lon="2.8086">
        <ele>97.400001525879</ele>
        <time>2020-01-16T15:27:42Z</time>
      </trkpt>
      <trkpt lat="48.39188" lon="2.80854">
        <ele>97.400001525879</ele>
        <time>2020-01-16T15:27:47Z</time>
      </trkpt>
      <trkpt lat="48.39186" lon="2.80846">
        <ele>97.400001525879</ele>
        <time>2020-01-16T15:27:52Z</time>
      </trkpt>
      <trkpt lat="48.39184" lon="2.80839">
        <ele>97.400001525879</ele>
        <time>2020-01-16T15:27:57Z</time>
      </trkpt>
      <trkpt lat="48.39182" lon="2.80833">
        <ele>97.400001525879</ele>
        <time>2020-01-16T15:28:02Z</time>
      </trkpt>
      <trkpt lat="48.39178" lon="2.80825">
        <ele>97.599998474121</ele>
        <time>2020-01-16T15:28:07Z</time>
      </trkpt>
      <trkpt lat="48.39176" lon="2.80819">
        <ele>97.599998474121</ele>
        <time>2020-01-16T15:28:12Z</time>
      </trkpt>
      <trkpt lat="48.39173" lon="2.80812">
        <ele>97.800003051758</ele>
        <time>2020-01-16T15:28:17Z</time>
      </trkpt>
      <trkpt lat="48.39171" lon="2.80805">
        <ele>97.800003051758</ele>
        <time>2020-01-16T15:28:22Z</time>
      </trkpt>
      <trkpt lat="48.39168" lon="2.80798">
        <ele>97.800003051758</ele>
        <time>2020-01-16T15:28:27Z</time>
      </trkpt>
      <trkpt lat="48.39165" lon="2.80791">
        <ele>97.800003051758</ele>
        <time>2020-01-16T15:28:32Z</time>
      </trkpt>
      <trkpt lat="48.39161" lon="2.80784">
        <ele>97.599998474121</ele>
        <time>2020-01-16T15:28:37Z</time>
      </trkpt>
      <trkpt lat="48.39159" lon="2.80776">
        <ele>97.599998474121</ele>
        <time>2020-01-16T15:28:42Z</time>
      </trkpt>
      <trkpt lat="48.39157" lon="2.80769">
        <ele>97.599998474121</ele>
        <time>2020-01-16T15:28:47Z</time>
      </trkpt>
      <trkpt lat="48.39155" lon="2.8076">
        <ele>97.199996948242</ele>
        <time>2020-01-16T15:28:52Z</time>
      </trkpt>
      <trkpt lat="48.39153" lon="2.80753">
        <ele>97.400001525879</ele>
        <time>2020-01-16T15:28:57Z</time>
      </trkpt>
      <trkpt lat="48.39151" lon="2.80745">
        <ele>97.199996948242</ele>
        <time>2020-01-16T15:29:02Z</time>
      </trkpt>
      <trkpt lat="48.39149" lon="2.80737">
        <ele>97</ele>
        <time>2020-01-16T15:29:07Z</time>
      </trkpt>
      <trkpt lat="48.39149" lon="2.80729">
        <ele>97</ele>
        <time>2020-01-16T15:29:12Z</time>
      </trkpt>
      <trkpt lat="48.39147" lon="2.8072">
        <ele>96.800003051758</ele>
        <time>2020-01-16T15:29:17Z</time>
      </trkpt>
      <trkpt lat="48.39147" lon="2.80713">
        <ele>96.599998474121</ele>
        <time>2020-01-16T15:29:22Z</time>
      </trkpt>
      <trkpt lat="48.39146" lon="2.80705">
        <ele>96.599998474121</ele>
        <time>2020-01-16T15:29:27Z</time>
      </trkpt>
      <trkpt lat="48.39144" lon="2.80697">
        <ele>96.400001525879</ele>
        <time>2020-01-16T15:29:32Z</time>
      </trkpt>
      <trkpt lat="48.39141" lon="2.80689">
        <ele>96</ele>
        <time>2020-01-16T15:29:37Z</time>
      </trkpt>
      <trkpt lat="48.39142" lon="2.8068">
        <ele>95.800003051758</ele>
        <time>2020-01-16T15:29:42Z</time>
      </trkpt>
      <trkpt lat="48.39141" lon="2.80672">
        <ele>95.599998474121</ele>
        <time>2020-01-16T15:29:47Z</time>
      </trkpt>
      <trkpt lat="48.39138" lon="2.80667">
        <ele>95.400001525879</ele>
        <time>2020-01-16T15:29:52Z</time>
      </trkpt>
      <trkpt lat="48.39137" lon="2.80662">
        <ele>95</ele>
        <time>2020-01-16T15:29:57Z</time>
      </trkpt>
      <trkpt lat="48.39138" lon="2.80652">
        <ele>94.800003051758</ele>
        <time>2020-01-16T15:30:02Z</time>
      </trkpt>
      <trkpt lat="48.39137" lon="2.80644">
        <ele>94.800003051758</ele>
        <time>2020-01-16T15:30:07Z</time>
      </trkpt>
      <trkpt lat="48.39136" lon="2.80636">
        <ele>94.800003051758</ele>
        <time>2020-01-16T15:30:12Z</time>
      </trkpt>
      <trkpt lat="48.39136" lon="2.80629">
        <ele>94.599998474121</ele>
        <time>2020-01-16T15:30:17Z</time>
      </trkpt>
      <trkpt lat="48.39139" lon="2.80626">
        <ele>94.599998474121</ele>
        <time>2020-01-16T15:30:22Z</time>
      </trkpt>
      <trkpt lat="48.39141" lon="2.80621">
        <ele>94.599998474121</ele>
        <time>2020-01-16T15:30:27Z</time>
      </trkpt>
      <trkpt lat="48.39146" lon="2.80617">
        <ele>94.800003051758</ele>
        <time>2020-01-16T15:30:32Z</time>
      </trkpt>
      <trkpt lat="48.39152" lon="2.80613">
        <ele>94.800003051758</ele>
        <time>2020-01-16T15:30:37Z</time>
      </trkpt>
      <trkpt lat="48.39157" lon="2.80613">
        <ele>95</ele>
        <time>2020-01-16T15:30:42Z</time>
      </trkpt>
      <trkpt lat="48.39163" lon="2.80609">
        <ele>95</ele>
        <time>2020-01-16T15:30:47Z</time>
      </trkpt>
      <trkpt lat="48.39169" lon="2.80605">
        <ele>95.199996948242</ele>
        <time>2020-01-16T15:30:52Z</time>
      </trkpt>
      <trkpt lat="48.39174" lon="2.80602">
        <ele>95.199996948242</ele>
        <time>2020-01-16T15:30:57Z</time>
      </trkpt>
      <trkpt lat="48.39176" lon="2.80597">
        <ele>95.199996948242</ele>
        <time>2020-01-16T15:31:02Z</time>
      </trkpt>
      <trkpt lat="48.39182" lon="2.80593">
        <ele>95.199996948242</ele>
        <time>2020-01-16T15:31:07Z</time>
      </trkpt>
      <trkpt lat="48.39186" lon="2.80589">
        <ele>94.800003051758</ele>
        <time>2020-01-16T15:31:12Z</time>
      </trkpt>
      <trkpt lat="48.39191" lon="2.80584">
        <ele>94.800003051758</ele>
        <time>2020-01-16T15:31:17Z</time>
      </trkpt>
      <trkpt lat="48.39195" lon="2.8058">
        <ele>94.800003051758</ele>
        <time>2020-01-16T15:31:22Z</time>
      </trkpt>
      <trkpt lat="48.392" lon="2.80577">
        <ele>94.599998474121</ele>
        <time>2020-01-16T15:31:27Z</time>
      </trkpt>
      <trkpt lat="48.39203" lon="2.80574">
        <ele>94.599998474121</ele>
        <time>2020-01-16T15:31:32Z</time>
      </trkpt>
      <trkpt lat="48.39208" lon="2.80572">
        <ele>94.599998474121</ele>
        <time>2020-01-16T15:31:37Z</time>
      </trkpt>
      <trkpt lat="48.39213" lon="2.80569">
        <ele>94.400001525879</ele>
        <time>2020-01-16T15:31:42Z</time>
      </trkpt>
      <trkpt lat="48.39216" lon="2.80568">
        <ele>94.400001525879</ele>
        <time>2020-01-16T15:31:47Z</time>
      </trkpt>
      <trkpt lat="48.3922" lon="2.80565">
        <ele>94.400001525879</ele>
        <time>2020-01-16T15:31:52Z</time>
      </trkpt>
      <trkpt lat="48.39223" lon="2.80557">
        <ele>94.400001525879</ele>
        <time>2020-01-16T15:31:57Z</time>
      </trkpt>
      <trkpt lat="48.39224" lon="2.8055">
        <ele>93.599998474121</ele>
        <time>2020-01-16T15:32:02Z</time>
      </trkpt>
      <trkpt lat="48.39223" lon="2.80542">
        <ele>93.800003051758</ele>
        <time>2020-01-16T15:32:07Z</time>
      </trkpt>
      <trkpt lat="48.39224" lon="2.80535">
        <ele>93.599998474121</ele>
        <time>2020-01-16T15:32:12Z</time>
      </trkpt>
      <trkpt lat="48.39221" lon="2.80531">
        <ele>93.199996948242</ele>
        <time>2020-01-16T15:32:17Z</time>
      </trkpt>
      <trkpt lat="48.39218" lon="2.80529">
        <ele>92.800003051758</ele>
        <time>2020-01-16T15:32:22Z</time>
      </trkpt>
      <trkpt lat="48.39215" lon="2.80528">
        <ele>92.400001525879</ele>
        <time>2020-01-16T15:32:27Z</time>
      </trkpt>
      <trkpt lat="48.39212" lon="2.80527">
        <ele>92</ele>
        <time>2020-01-16T15:32:32Z</time>
      </trkpt>
      <trkpt lat="48.39209" lon="2.80527">
        <ele>91.599998474121</ele>
        <time>2020-01-16T15:32:37Z</time>
      </trkpt>
      <trkpt lat="48.39207" lon="2.80523">
        <ele>90.800003051758</ele>
        <time>2020-01-16T15:32:42Z</time>
      </trkpt>
      <trkpt lat="48.39207" lon="2.80515">
        <ele>90</ele>
        <time>2020-01-16T15:32:47Z</time>
      </trkpt>
      <trkpt lat="48.39205" lon="2.8051">
        <ele>89.800003051758</ele>
        <time>2020-01-16T15:32:52Z</time>
      </trkpt>
      <trkpt lat="48.39201" lon="2.80507">
        <ele>89.199996948242</ele>
        <time>2020-01-16T15:32:57Z</time>
      </trkpt>
      <trkpt lat="48.39194" lon="2.80505">
        <ele>89</ele>
        <time>2020-01-16T15:33:02Z</time>
      </trkpt>
      <trkpt lat="48.39187" lon="2.80505">
        <ele>89</ele>
        <time>2020-01-16T15:33:07Z</time>
      </trkpt>
      <trkpt lat="48.39183" lon="2.805">
        <ele>88.800003051758</ele>
        <time>2020-01-16T15:33:12Z</time>
      </trkpt>
      <trkpt lat="48.39179" lon="2.80494">
        <ele>88.599998474121</ele>
        <time>2020-01-16T15:33:17Z</time>
      </trkpt>
      <trkpt lat="48.39175" lon="2.80491">
        <ele>88.199996948242</ele>
        <time>2020-01-16T15:33:22Z</time>
      </trkpt>
      <trkpt lat="48.39175" lon="2.80488">
        <ele>88.199996948242</ele>
        <time>2020-01-16T15:33:27Z</time>
      </trkpt>
      <trkpt lat="48.39173" lon="2.80483">
        <ele>88.199996948242</ele>
        <time>2020-01-16T15:33:32Z</time>
      </trkpt>
      <trkpt lat="48.39171" lon="2.80477">
        <ele>88.199996948242</ele>
        <time>2020-01-16T15:33:37Z</time>
      </trkpt>
      <trkpt lat="48.39168" lon="2.80471">
        <ele>87.800003051758</ele>
        <time>2020-01-16T15:33:42Z</time>
      </trkpt>
      <trkpt lat="48.39165" lon="2.80464">
        <ele>87.599998474121</ele>
        <time>2020-01-16T15:33:47Z</time>
      </trkpt>
      <trkpt lat="48.39162" lon="2.80457">
        <ele>87.599998474121</ele>
        <time>2020-01-16T15:33:52Z</time>
      </trkpt>
      <trkpt lat="48.39161" lon="2.8045">
        <ele>87.199996948242</ele>
        <time>2020-01-16T15:33:57Z</time>
      </trkpt>
      <trkpt lat="48.39156" lon="2.80441">
        <ele>86.800003051758</ele>
        <time>2020-01-16T15:34:02Z</time>
      </trkpt>
      <trkpt lat="48.39155" lon="2.80435">
        <ele>86.599998474121</ele>
        <time>2020-01-16T15:34:07Z</time>
      </trkpt>
      <trkpt lat="48.39153" lon="2.80427">
        <ele>86.400001525879</ele>
        <time>2020-01-16T15:34:12Z</time>
      </trkpt>
      <trkpt lat="48.39151" lon="2.80422">
        <ele>86.199996948242</ele>
        <time>2020-01-16T15:34:17Z</time>
      </trkpt>
      <trkpt lat="48.39146" lon="2.80416">
        <ele>86</ele>
        <time>2020-01-16T15:34:22Z</time>
      </trkpt>
      <trkpt lat="48.39143" lon="2.8041">
        <ele>85.800003051758</ele>
        <time>2020-01-16T15:34:27Z</time>
      </trkpt>
      <trkpt lat="48.39141" lon="2.80408">
        <ele>85.599998474121</ele>
        <time>2020-01-16T15:34:32Z</time>
      </trkpt>
      <trkpt lat="48.39139" lon="2.80405">
        <ele>85.400001525879</ele>
        <time>2020-01-16T15:34:37Z</time>
      </trkpt>
      <trkpt lat="48.39135" lon="2.80402">
        <ele>85.400001525879</ele>
        <time>2020-01-16T15:34:42Z</time>
      </trkpt>
      <trkpt lat="48.39127" lon="2.804">
        <ele>85.199996948242</ele>
        <time>2020-01-16T15:34:47Z</time>
      </trkpt>
      <trkpt lat="48.39121" lon="2.80396">
        <ele>85</ele>
        <time>2020-01-16T15:34:52Z</time>
      </trkpt>
      <trkpt lat="48.39115" lon="2.80395">
        <ele>84.800003051758</ele>
        <time>2020-01-16T15:34:57Z</time>
      </trkpt>
      <trkpt lat="48.39109" lon="2.80394">
        <ele>84.599998474121</ele>
        <time>2020-01-16T15:35:02Z</time>
      </trkpt>
      <trkpt lat="48.39104" lon="2.80392">
        <ele>84.199996948242</ele>
        <time>2020-01-16T15:35:07Z</time>
      </trkpt>
      <trkpt lat="48.39099" lon="2.80392">
        <ele>84.199996948242</ele>
        <time>2020-01-16T15:35:12Z</time>
      </trkpt>
      <trkpt lat="48.39094" lon="2.8039">
        <ele>84</ele>
        <time>2020-01-16T15:35:17Z</time>
      </trkpt>
      <trkpt lat="48.39091" lon="2.80385">
        <ele>84</ele>
        <time>2020-01-16T15:35:22Z</time>
      </trkpt>
      <trkpt lat="48.39088" lon="2.80378">
        <ele>83.800003051758</ele>
        <time>2020-01-16T15:35:27Z</time>
      </trkpt>
      <trkpt lat="48.39084" lon="2.80372">
        <ele>83.199996948242</ele>
        <time>2020-01-16T15:35:32Z</time>
      </trkpt>
      <trkpt lat="48.3908" lon="2.80367">
        <ele>83.199996948242</ele>
        <time>2020-01-16T15:35:37Z</time>
      </trkpt>
      <trkpt lat="48.39075" lon="2.80362">
        <ele>82.800003051758</ele>
        <time>2020-01-16T15:35:42Z</time>
      </trkpt>
      <trkpt lat="48.39069" lon="2.80356">
        <ele>82.800003051758</ele>
        <time>2020-01-16T15:35:47Z</time>
      </trkpt>
      <trkpt lat="48.39065" lon="2.80351">
        <ele>82.400001525879</ele>
        <time>2020-01-16T15:35:52Z</time>
      </trkpt>
      <trkpt lat="48.39061" lon="2.80345">
        <ele>82.199996948242</ele>
        <time>2020-01-16T15:35:57Z</time>
      </trkpt>
      <trkpt lat="48.39057" lon="2.8034">
        <ele>82</ele>
        <time>2020-01-16T15:36:02Z</time>
      </trkpt>
      <trkpt lat="48.39052" lon="2.80335">
        <ele>81.599998474121</ele>
        <time>2020-01-16T15:36:07Z</time>
      </trkpt>
      <trkpt lat="48.39049" lon="2.80331">
        <ele>81.400001525879</ele>
        <time>2020-01-16T15:36:12Z</time>
      </trkpt>
      <trkpt lat="48.39045" lon="2.80328">
        <ele>81.199996948242</ele>
        <time>2020-01-16T15:36:17Z</time>
      </trkpt>
      <trkpt lat="48.3904" lon="2.80323">
        <ele>81</ele>
        <time>2020-01-16T15:36:22Z</time>
      </trkpt>
      <trkpt lat="48.39038" lon="2.80322">
        <ele>80.800003051758</ele>
        <time>2020-01-16T15:36:27Z</time>
      </trkpt>
      <trkpt lat="48.39037" lon="2.80322">
        <ele>80.800003051758</ele>
        <time>2020-01-16T15:36:32Z</time>
      </trkpt>
      <trkpt lat="48.39037" lon="2.80323">
        <ele>80.800003051758</ele>
        <time>2020-01-16T15:36:37Z</time>
      </trkpt>
      <trkpt lat="48.39036" lon="2.80325">
        <ele>80.800003051758</ele>
        <time>2020-01-16T15:36:42Z</time>
      </trkpt>
      <trkpt lat="48.39036" lon="2.80325">
        <ele>80.800003051758</ele>
        <time>2020-01-16T15:36:47Z</time>
      </trkpt>
      <trkpt lat="48.39037" lon="2.80324">
        <ele>80.599998474121</ele>
        <time>2020-01-16T15:36:52Z</time>
      </trkpt>
      <trkpt lat="48.39035" lon="2.80316">
        <ele>80.599998474121</ele>
        <time>2020-01-16T15:36:57Z</time>
      </trkpt>
      <trkpt lat="48.39031" lon="2.80309">
        <ele>80.199996948242</ele>
        <time>2020-01-16T15:37:02Z</time>
      </trkpt>
      <trkpt lat="48.39031" lon="2.80308">
        <ele>80.199996948242</ele>
        <time>2020-01-16T15:37:07Z</time>
      </trkpt>
      <trkpt lat="48.39032" lon="2.80309">
        <ele>80.199996948242</ele>
        <time>2020-01-16T15:37:12Z</time>
      </trkpt>
      <trkpt lat="48.39033" lon="2.8031">
        <ele>80.199996948242</ele>
        <time>2020-01-16T15:37:17Z</time>
      </trkpt>
      <trkpt lat="48.39032" lon="2.80309">
        <ele>80.199996948242</ele>
        <time>2020-01-16T15:37:22Z</time>
      </trkpt>
      <trkpt lat="48.3903" lon="2.80302">
        <ele>80</ele>
        <time>2020-01-16T15:37:27Z</time>
      </trkpt>
      <trkpt lat="48.39026" lon="2.80299">
        <ele>80.199996948242</ele>
        <time>2020-01-16T15:37:32Z</time>
      </trkpt>
      <trkpt lat="48.39023" lon="2.80299">
        <ele>80.199996948242</ele>
        <time>2020-01-16T15:37:37Z</time>
      </trkpt>
      <trkpt lat="48.39019" lon="2.80303">
        <ele>80</ele>
        <time>2020-01-16T15:37:42Z</time>
      </trkpt>
      <trkpt lat="48.39016" lon="2.80308">
        <ele>80</ele>
        <time>2020-01-16T15:37:47Z</time>
      </trkpt>
      <trkpt lat="48.39015" lon="2.80308">
        <ele>80</ele>
        <time>2020-01-16T15:37:52Z</time>
      </trkpt>
      <trkpt lat="48.39011" lon="2.80312">
        <ele>80</ele>
        <time>2020-01-16T15:37:57Z</time>
      </trkpt>
      <trkpt lat="48.39009" lon="2.80314">
        <ele>80</ele>
        <time>2020-01-16T15:38:02Z</time>
      </trkpt>
      <trkpt lat="48.39007" lon="2.80317">
        <ele>80</ele>
        <time>2020-01-16T15:38:07Z</time>
      </trkpt>
      <trkpt lat="48.39006" lon="2.80322">
        <ele>79.800003051758</ele>
        <time>2020-01-16T15:38:12Z</time>
      </trkpt>
      <trkpt lat="48.39004" lon="2.80328">
        <ele>79.400001525879</ele>
        <time>2020-01-16T15:38:17Z</time>
      </trkpt>
      <trkpt lat="48.39004" lon="2.80332">
        <ele>79.400001525879</ele>
        <time>2020-01-16T15:38:22Z</time>
      </trkpt>
      <trkpt lat="48.39003" lon="2.80338">
        <ele>79.199996948242</ele>
        <time>2020-01-16T15:38:27Z</time>
      </trkpt>
      <trkpt lat="48.39002" lon="2.80344">
        <ele>79</ele>
        <time>2020-01-16T15:38:32Z</time>
      </trkpt>
      <trkpt lat="48.39" lon="2.80351">
        <ele>78.599998474121</ele>
        <time>2020-01-16T15:38:37Z</time>
      </trkpt>
      <trkpt lat="48.39" lon="2.8036">
        <ele>78.199996948242</ele>
        <time>2020-01-16T15:38:42Z</time>
      </trkpt>
      <trkpt lat="48.39001" lon="2.80368">
        <ele>78</ele>
        <time>2020-01-16T15:38:47Z</time>
      </trkpt>
      <trkpt lat="48.39" lon="2.80377">
        <ele>77.599998474121</ele>
        <time>2020-01-16T15:38:52Z</time>
      </trkpt>
      <trkpt lat="48.39" lon="2.80383">
        <ele>77.199996948242</ele>
        <time>2020-01-16T15:38:57Z</time>
      </trkpt>
      <trkpt lat="48.38999" lon="2.80386">
        <ele>77</ele>
        <time>2020-01-16T15:39:02Z</time>
      </trkpt>
      <trkpt lat="48.38999" lon="2.80394">
        <ele>76.599998474121</ele>
        <time>2020-01-16T15:39:07Z</time>
      </trkpt>
      <trkpt lat="48.38999" lon="2.80401">
        <ele>76.199996948242</ele>
        <time>2020-01-16T15:39:12Z</time>
      </trkpt>
      <trkpt lat="48.39002" lon="2.8041">
        <ele>76</ele>
        <time>2020-01-16T15:39:17Z</time>
      </trkpt>
      <trkpt lat="48.39004" lon="2.80418">
        <ele>75.599998474121</ele>
        <time>2020-01-16T15:39:22Z</time>
      </trkpt>
      <trkpt lat="48.39005" lon="2.80426">
        <ele>75.400001525879</ele>
        <time>2020-01-16T15:39:27Z</time>
      </trkpt>
      <trkpt lat="48.39007" lon="2.80433">
        <ele>75</ele>
        <time>2020-01-16T15:39:32Z</time>
      </trkpt>
      <trkpt lat="48.3901" lon="2.80441">
        <ele>74.800003051758</ele>
        <time>2020-01-16T15:39:37Z</time>
      </trkpt>
      <trkpt lat="48.39013" lon="2.80448">
        <ele>74.800003051758</ele>
        <time>2020-01-16T15:39:42Z</time>
      </trkpt>
      <trkpt lat="48.39015" lon="2.80455">
        <ele>74.400001525879</ele>
        <time>2020-01-16T15:39:47Z</time>
      </trkpt>
      <trkpt lat="48.39016" lon="2.80463">
        <ele>74</ele>
        <time>2020-01-16T15:39:52Z</time>
      </trkpt>
      <trkpt lat="48.39018" lon="2.8047">
        <ele>73.800003051758</ele>
        <time>2020-01-16T15:39:57Z</time>
      </trkpt>
      <trkpt lat="48.39019" lon="2.80476">
        <ele>73.599998474121</ele>
        <time>2020-01-16T15:40:02Z</time>
      </trkpt>
      <trkpt lat="48.3902" lon="2.80484">
        <ele>73.199996948242</ele>
        <time>2020-01-16T15:40:07Z</time>
      </trkpt>
      <trkpt lat="48.39023" lon="2.80487">
        <ele>73</ele>
        <time>2020-01-16T15:40:12Z</time>
      </trkpt>
      <trkpt lat="48.39026" lon="2.80493">
        <ele>72.599998474121</ele>
        <time>2020-01-16T15:40:17Z</time>
      </trkpt>
      <trkpt lat="48.39028" lon="2.80501">
        <ele>72.599998474121</ele>
        <time>2020-01-16T15:40:22Z</time>
      </trkpt>
      <trkpt lat="48.39031" lon="2.80507">
        <ele>72.199996948242</ele>
        <time>2020-01-16T15:40:27Z</time>
      </trkpt>
      <trkpt lat="48.39032" lon="2.80514">
        <ele>72</ele>
        <time>2020-01-16T15:40:32Z</time>
      </trkpt>
      <trkpt lat="48.39035" lon="2.80521">
        <ele>71.800003051758</ele>
        <time>2020-01-16T15:40:37Z</time>
      </trkpt>
      <trkpt lat="48.39037" lon="2.8053">
        <ele>71.599998474121</ele>
        <time>2020-01-16T15:40:42Z</time>
      </trkpt>
      <trkpt lat="48.3904" lon="2.8054">
        <ele>71.199996948242</ele>
        <time>2020-01-16T15:40:47Z</time>
      </trkpt>
      <trkpt lat="48.39044" lon="2.80546">
        <ele>70.800003051758</ele>
        <time>2020-01-16T15:40:52Z</time>
      </trkpt>
      <trkpt lat="48.39045" lon="2.80553">
        <ele>70.599998474121</ele>
        <time>2020-01-16T15:40:57Z</time>
      </trkpt>
      <trkpt lat="48.39046" lon="2.80561">
        <ele>70</ele>
        <time>2020-01-16T15:41:02Z</time>
      </trkpt>
      <trkpt lat="48.39048" lon="2.8057">
        <ele>69.800003051758</ele>
        <time>2020-01-16T15:41:07Z</time>
      </trkpt>
      <trkpt lat="48.39049" lon="2.80577">
        <ele>69.400001525879</ele>
        <time>2020-01-16T15:41:12Z</time>
      </trkpt>
      <trkpt lat="48.3905" lon="2.80584">
        <ele>69.199996948242</ele>
        <time>2020-01-16T15:41:17Z</time>
      </trkpt>
      <trkpt lat="48.39047" lon="2.80594">
        <ele>69</ele>
        <time>2020-01-16T15:41:22Z</time>
      </trkpt>
      <trkpt lat="48.39048" lon="2.80601">
        <ele>68.599998474121</ele>
        <time>2020-01-16T15:41:27Z</time>
      </trkpt>
      <trkpt lat="48.39051" lon="2.80608">
        <ele>68.199996948242</ele>
        <time>2020-01-16T15:41:32Z</time>
      </trkpt>
      <trkpt lat="48.39053" lon="2.80616">
        <ele>68.199996948242</ele>
        <time>2020-01-16T15:41:37Z</time>
      </trkpt>
      <trkpt lat="48.39053" lon="2.80624">
        <ele>68.199996948242</ele>
        <time>2020-01-16T15:41:42Z</time>
      </trkpt>
      <trkpt lat="48.39053" lon="2.80633">
        <ele>68</ele>
        <time>2020-01-16T15:41:47Z</time>
      </trkpt>
      <trkpt lat="48.39051" lon="2.80641">
        <ele>68</ele>
        <time>2020-01-16T15:41:52Z</time>
      </trkpt>
      <trkpt lat="48.39045" lon="2.80649">
        <ele>68.199996948242</ele>
        <time>2020-01-16T15:41:57Z</time>
      </trkpt>
      <trkpt lat="48.3904" lon="2.80655">
        <ele>68.400001525879</ele>
        <time>2020-01-16T15:42:02Z</time>
      </trkpt>
      <trkpt lat="48.39034" lon="2.80663">
        <ele>68.599998474121</ele>
        <time>2020-01-16T15:42:07Z</time>
      </trkpt>
      <trkpt lat="48.39029" lon="2.8067">
        <ele>68.800003051758</ele>
        <time>2020-01-16T15:42:12Z</time>
      </trkpt>
      <trkpt lat="48.39023" lon="2.80678">
        <ele>69</ele>
        <time>2020-01-16T15:42:17Z</time>
      </trkpt>
      <trkpt lat="48.39018" lon="2.80684">
        <ele>69</ele>
        <time>2020-01-16T15:42:22Z</time>
      </trkpt>
      <trkpt lat="48.39013" lon="2.80691">
        <ele>69.400001525879</ele>
        <time>2020-01-16T15:42:27Z</time>
      </trkpt>
      <trkpt lat="48.39008" lon="2.80696">
        <ele>69.599998474121</ele>
        <time>2020-01-16T15:42:32Z</time>
      </trkpt>
      <trkpt lat="48.39002" lon="2.80702">
        <ele>69.599998474121</ele>
        <time>2020-01-16T15:42:37Z</time>
      </trkpt>
      <trkpt lat="48.38997" lon="2.80705">
        <ele>69.599998474121</ele>
        <time>2020-01-16T15:42:42Z</time>
      </trkpt>
      <trkpt lat="48.38992" lon="2.80711">
        <ele>69.400001525879</ele>
        <time>2020-01-16T15:42:47Z</time>
      </trkpt>
      <trkpt lat="48.38987" lon="2.80715">
        <ele>69.400001525879</ele>
        <time>2020-01-16T15:42:52Z</time>
      </trkpt>
      <trkpt lat="48.38982" lon="2.8072">
        <ele>69.199996948242</ele>
        <time>2020-01-16T15:42:57Z</time>
      </trkpt>
      <trkpt lat="48.38978" lon="2.80727">
        <ele>69.199996948242</ele>
        <time>2020-01-16T15:43:02Z</time>
      </trkpt>
      <trkpt lat="48.38973" lon="2.80732">
        <ele>68.800003051758</ele>
        <time>2020-01-16T15:43:07Z</time>
      </trkpt>
      <trkpt lat="48.38968" lon="2.80736">
        <ele>68.599998474121</ele>
        <time>2020-01-16T15:43:12Z</time>
      </trkpt>
      <trkpt lat="48.38964" lon="2.8074">
        <ele>68.199996948242</ele>
        <time>2020-01-16T15:43:17Z</time>
      </trkpt>
      <trkpt lat="48.38959" lon="2.80746">
        <ele>68</ele>
        <time>2020-01-16T15:43:22Z</time>
      </trkpt>
      <trkpt lat="48.38954" lon="2.80753">
        <ele>67.400001525879</ele>
        <time>2020-01-16T15:43:27Z</time>
      </trkpt>
      <trkpt lat="48.38949" lon="2.8076">
        <ele>67.199996948242</ele>
        <time>2020-01-16T15:43:32Z</time>
      </trkpt>
      <trkpt lat="48.38944" lon="2.80767">
        <ele>66.599998474121</ele>
        <time>2020-01-16T15:43:37Z</time>
      </trkpt>
      <trkpt lat="48.38939" lon="2.80772">
        <ele>66.199996948242</ele>
        <time>2020-01-16T15:43:42Z</time>
      </trkpt>
      <trkpt lat="48.38934" lon="2.80777">
        <ele>65.599998474121</ele>
        <time>2020-01-16T15:43:47Z</time>
      </trkpt>
      <trkpt lat="48.38929" lon="2.80781">
        <ele>65.400001525879</ele>
        <time>2020-01-16T15:43:52Z</time>
      </trkpt>
      <trkpt lat="48.38923" lon="2.80784">
        <ele>65</ele>
        <time>2020-01-16T15:43:57Z</time>
      </trkpt>
      <trkpt lat="48.38917" lon="2.80784">
        <ele>64.800003051758</ele>
        <time>2020-01-16T15:44:02Z</time>
      </trkpt>
      <trkpt lat="48.38911" lon="2.80784">
        <ele>64.199996948242</ele>
        <time>2020-01-16T15:44:07Z</time>
      </trkpt>
      <trkpt lat="48.38906" lon="2.80778">
        <ele>64</ele>
        <time>2020-01-16T15:44:12Z</time>
      </trkpt>
      <trkpt lat="48.38902" lon="2.80771">
        <ele>63.599998474121</ele>
        <time>2020-01-16T15:44:17Z</time>
      </trkpt>
      <trkpt lat="48.38898" lon="2.80763">
        <ele>63.400001525879</ele>
        <time>2020-01-16T15:44:22Z</time>
      </trkpt>
      <trkpt lat="48.38897" lon="2.80757">
        <ele>63.400001525879</ele>
        <time>2020-01-16T15:44:27Z</time>
      </trkpt>
      <trkpt lat="48.38896" lon="2.80752">
        <ele>63.400001525879</ele>
        <time>2020-01-16T15:44:32Z</time>
      </trkpt>
      <trkpt lat="48.38896" lon="2.8075">
        <ele>63.400001525879</ele>
        <time>2020-01-16T15:44:37Z</time>
      </trkpt>
      <trkpt lat="48.38897" lon="2.80749">
        <ele>63.200000762939</ele>
        <time>2020-01-16T15:44:42Z</time>
      </trkpt>
      <trkpt lat="48.38897" lon="2.8075">
        <ele>63.200000762939</ele>
        <time>2020-01-16T15:44:47Z</time>
      </trkpt>
      <trkpt lat="48.38897" lon="2.8075">
        <ele>63.200000762939</ele>
        <time>2020-01-16T15:44:52Z</time>
      </trkpt>
      <trkpt lat="48.38897" lon="2.80748">
        <ele>63.200000762939</ele>
        <time>2020-01-16T15:44:57Z</time>
      </trkpt>
      <trkpt lat="48.38897" lon="2.80746">
        <ele>63.200000762939</ele>
        <time>2020-01-16T15:45:02Z</time>
      </trkpt>
      <trkpt lat="48.38898" lon="2.80743">
        <ele>63.200000762939</ele>
        <time>2020-01-16T15:45:07Z</time>
      </trkpt>
      <trkpt lat="48.38897" lon="2.8074">
        <ele>63.200000762939</ele>
        <time>2020-01-16T15:45:12Z</time>
      </trkpt>
      <trkpt lat="48.38895" lon="2.80739">
        <ele>63.200000762939</ele>
        <time>2020-01-16T15:45:17Z</time>
      </trkpt>
      <trkpt lat="48.38894" lon="2.80737">
        <ele>63</ele>
        <time>2020-01-16T15:45:22Z</time>
      </trkpt>
      <trkpt lat="48.38891" lon="2.80732">
        <ele>62.799999237061</ele>
        <time>2020-01-16T15:45:27Z</time>
      </trkpt>
      <trkpt lat="48.3889" lon="2.80728">
        <ele>62.599998474121</ele>
        <time>2020-01-16T15:45:32Z</time>
      </trkpt>
      <trkpt lat="48.38887" lon="2.80723">
        <ele>62.599998474121</ele>
        <time>2020-01-16T15:45:37Z</time>
      </trkpt>
      <trkpt lat="48.38884" lon="2.80719">
        <ele>62.599998474121</ele>
        <time>2020-01-16T15:45:42Z</time>
      </trkpt>
      <trkpt lat="48.38883" lon="2.80715">
        <ele>62.599998474121</ele>
        <time>2020-01-16T15:45:47Z</time>
      </trkpt>
      <trkpt lat="48.3888" lon="2.80713">
        <ele>62.599998474121</ele>
        <time>2020-01-16T15:45:52Z</time>
      </trkpt>
      <trkpt lat="48.38877" lon="2.8071">
        <ele>62.400001525879</ele>
        <time>2020-01-16T15:45:57Z</time>
      </trkpt>
      <trkpt lat="48.38875" lon="2.80707">
        <ele>62.400001525879</ele>
        <time>2020-01-16T15:46:02Z</time>
      </trkpt>
      <trkpt lat="48.38873" lon="2.80702">
        <ele>62.599998474121</ele>
        <time>2020-01-16T15:46:07Z</time>
      </trkpt>
      <trkpt lat="48.38873" lon="2.80696">
        <ele>62.599998474121</ele>
        <time>2020-01-16T15:46:12Z</time>
      </trkpt>
      <trkpt lat="48.38871" lon="2.80692">
        <ele>62.599998474121</ele>
        <time>2020-01-16T15:46:17Z</time>
      </trkpt>
      <trkpt lat="48.3887" lon="2.80688">
        <ele>62.599998474121</ele>
        <time>2020-01-16T15:46:22Z</time>
      </trkpt>
      <trkpt lat="48.38869" lon="2.80685">
        <ele>62.799999237061</ele>
        <time>2020-01-16T15:46:27Z</time>
      </trkpt>
      <trkpt lat="48.38868" lon="2.8068">
        <ele>62.799999237061</ele>
        <time>2020-01-16T15:46:32Z</time>
      </trkpt>
      <trkpt lat="48.38865" lon="2.80674">
        <ele>62.799999237061</ele>
        <time>2020-01-16T15:46:37Z</time>
      </trkpt>
      <trkpt lat="48.38863" lon="2.80668">
        <ele>62.599998474121</ele>
        <time>2020-01-16T15:46:42Z</time>
      </trkpt>
      <trkpt lat="48.3886" lon="2.80663">
        <ele>62.599998474121</ele>
        <time>2020-01-16T15:46:47Z</time>
      </trkpt>
      <trkpt lat="48.3886" lon="2.80658">
        <ele>62.400001525879</ele>
        <time>2020-01-16T15:46:52Z</time>
      </trkpt>
      <trkpt lat="48.38856" lon="2.80657">
        <ele>62.200000762939</ele>
        <time>2020-01-16T15:46:57Z</time>
      </trkpt>
      <trkpt lat="48.38853" lon="2.80652">
        <ele>62.200000762939</ele>
        <time>2020-01-16T15:47:02Z</time>
      </trkpt>
      <trkpt lat="48.3885" lon="2.80643">
        <ele>62.400001525879</ele>
        <time>2020-01-16T15:47:07Z</time>
      </trkpt>
      <trkpt lat="48.38847" lon="2.80638">
        <ele>62.400001525879</ele>
        <time>2020-01-16T15:47:12Z</time>
      </trkpt>
      <trkpt lat="48.38843" lon="2.80633">
        <ele>62.599998474121</ele>
        <time>2020-01-16T15:47:17Z</time>
      </trkpt>
      <trkpt lat="48.38839" lon="2.80628">
        <ele>62.400001525879</ele>
        <time>2020-01-16T15:47:22Z</time>
      </trkpt>
      <trkpt lat="48.38835" lon="2.80623">
        <ele>62.400001525879</ele>
        <time>2020-01-16T15:47:27Z</time>
      </trkpt>
      <trkpt lat="48.38831" lon="2.80617">
        <ele>62.599998474121</ele>
        <time>2020-01-16T15:47:32Z</time>
      </trkpt>
      <trkpt lat="48.38828" lon="2.8061">
        <ele>62.400001525879</ele>
        <time>2020-01-16T15:47:37Z</time>
      </trkpt>
      <trkpt lat="48.38827" lon="2.80605">
        <ele>62.400001525879</ele>
        <time>2020-01-16T15:47:42Z</time>
      </trkpt>
      <trkpt lat="48.38826" lon="2.806">
        <ele>62.599998474121</ele>
        <time>2020-01-16T15:47:47Z</time>
      </trkpt>
      <trkpt lat="48.38823" lon="2.80597">
        <ele>62.599998474121</ele>
        <time>2020-01-16T15:47:52Z</time>
      </trkpt>
      <trkpt lat="48.38822" lon="2.80592">
        <ele>62.400001525879</ele>
        <time>2020-01-16T15:47:57Z</time>
      </trkpt>
      <trkpt lat="48.38819" lon="2.80585">
        <ele>62.400001525879</ele>
        <time>2020-01-16T15:48:02Z</time>
      </trkpt>
      <trkpt lat="48.38816" lon="2.80575">
        <ele>62.400001525879</ele>
        <time>2020-01-16T15:48:07Z</time>
      </trkpt>
      <trkpt lat="48.3881" lon="2.80567">
        <ele>62.400001525879</ele>
        <time>2020-01-16T15:48:12Z</time>
      </trkpt>
      <trkpt lat="48.38803" lon="2.80561">
        <ele>62.400001525879</ele>
        <time>2020-01-16T15:48:17Z</time>
      </trkpt>
      <trkpt lat="48.38798" lon="2.80555">
        <ele>62.400001525879</ele>
        <time>2020-01-16T15:48:22Z</time>
      </trkpt>
      <trkpt lat="48.38795" lon="2.80548">
        <ele>62.400001525879</ele>
        <time>2020-01-16T15:48:27Z</time>
      </trkpt>
      <trkpt lat="48.38793" lon="2.80542">
        <ele>62.200000762939</ele>
        <time>2020-01-16T15:48:32Z</time>
      </trkpt>
      <trkpt lat="48.3879" lon="2.80537">
        <ele>62.200000762939</ele>
        <time>2020-01-16T15:48:37Z</time>
      </trkpt>
      <trkpt lat="48.38786" lon="2.8053">
        <ele>62</ele>
        <time>2020-01-16T15:48:42Z</time>
      </trkpt>
      <trkpt lat="48.38784" lon="2.80523">
        <ele>62.200000762939</ele>
        <time>2020-01-16T15:48:47Z</time>
      </trkpt>
      <trkpt lat="48.3878" lon="2.80518">
        <ele>62.200000762939</ele>
        <time>2020-01-16T15:48:52Z</time>
      </trkpt>
      <trkpt lat="48.38775" lon="2.80512">
        <ele>62.400001525879</ele>
        <time>2020-01-16T15:48:57Z</time>
      </trkpt>
      <trkpt lat="48.3877" lon="2.80506">
        <ele>62.200000762939</ele>
        <time>2020-01-16T15:49:02Z</time>
      </trkpt>
      <trkpt lat="48.38767" lon="2.80501">
        <ele>62.400001525879</ele>
        <time>2020-01-16T15:49:07Z</time>
      </trkpt>
      <trkpt lat="48.38762" lon="2.80495">
        <ele>62.200000762939</ele>
        <time>2020-01-16T15:49:12Z</time>
      </trkpt>
      <trkpt lat="48.38758" lon="2.80489">
        <ele>62.400001525879</ele>
        <time>2020-01-16T15:49:17Z</time>
      </trkpt>
      <trkpt lat="48.38754" lon="2.80483">
        <ele>62.400001525879</ele>
        <time>2020-01-16T15:49:22Z</time>
      </trkpt>
      <trkpt lat="48.3875" lon="2.80476">
        <ele>62.799999237061</ele>
        <time>2020-01-16T15:49:27Z</time>
      </trkpt>
      <trkpt lat="48.38747" lon="2.80469">
        <ele>62.599998474121</ele>
        <time>2020-01-16T15:49:32Z</time>
      </trkpt>
      <trkpt lat="48.38746" lon="2.80461">
        <ele>62.599998474121</ele>
        <time>2020-01-16T15:49:37Z</time>
      </trkpt>
      <trkpt lat="48.38746" lon="2.80451">
        <ele>62.799999237061</ele>
        <time>2020-01-16T15:49:42Z</time>
      </trkpt>
      <trkpt lat="48.38744" lon="2.80441">
        <ele>62.799999237061</ele>
        <time>2020-01-16T15:49:47Z</time>
      </trkpt>
      <trkpt lat="48.38741" lon="2.80432">
        <ele>62.599998474121</ele>
        <time>2020-01-16T15:49:52Z</time>
      </trkpt>
      <trkpt lat="48.38738" lon="2.80423">
        <ele>62.599998474121</ele>
        <time>2020-01-16T15:49:57Z</time>
      </trkpt>
      <trkpt lat="48.38735" lon="2.80415">
        <ele>62.799999237061</ele>
        <time>2020-01-16T15:50:02Z</time>
      </trkpt>
      <trkpt lat="48.38732" lon="2.80409">
        <ele>62.799999237061</ele>
        <time>2020-01-16T15:50:07Z</time>
      </trkpt>
      <trkpt lat="48.38731" lon="2.80406">
        <ele>62.799999237061</ele>
        <time>2020-01-16T15:50:09Z</time>
      </trkpt>
    </trkseg>
  </trk>
</gpx>